GFSSE_850_thetae_000.txt.gz
Theta_e
341 340 338 339 338 339 339 339 338 338 338 337 336 336 336 336 337 336 334 332 330 329 328 327 326 325 324 324 323 323 324 324 325 326 326 325 324 323 322 320 330 334 330
342 339 339 339 338 338 337 337 337 337 338 337 337 336 337 337 336 335 333 332 330 329 329 328 327 325 324 323 323 322 324 325 326 326 328 324 327 328 328 327 321 326 326
340 336 337 338 337 337 337 337 337 337 337 337 337 337 335 334 333 333 332 331 329 327 324 319 317 315 314 315 316 320 323 326 326 326 327 327 331 332 330 327 325 322 328
343 342 335 335 334 335 337 336 335 335 336 335 333 332 330 330 328 327 324 323 321 319 317 315 315 316 318 321 324 325 324 324 326 326 326 327 330 332 330 324 323 322 320
342 340 331 331 333 334 333 333 334 334 333 330 330 328 325 324 322 320 319 319 317 311 307 308 310 315 320 323 327 326 324 324 325 325 325 327 330 327 323 323 321 319 317
338 328 326 322 323 328 329 330 331 331 331 329 325 324 322 320 319 319 318 317 313 306 309 310 310 312 316 319 319 319 320 323 324 325 327 329 329 328 324 325 322 322 319
328 318 316 317 318 319 320 320 321 321 321 321 321 320 318 318 318 318 317 316 310 308 310 310 310 310 310 309 309 309 314 317 318 321 330 329 328 321 327 326 324 323 322
329 317 317 316 316 315 316 317 319 319 319 318 317 317 317 316 316 315 316 313 308 308 309 310 309 309 309 309 309 308 308 308 310 323 330 328 328 328 328 327 327 325 323
330 320 317 316 315 315 315 317 317 317 317 315 316 317 316 314 315 313 313 311 307 307 309 309 309 308 308 308 308 308 307 308 310 323 326 325 328 326 327 326 326 327 327
330 330 331 328 322 328 318 310 311 312 313 314 316 317 316 327 325 325 319 316 312 309 310 312 312 309 307 308 312 313 313 309 322 321 325 324 324 324 324 323 323 325 326
329 330 330 331 330 329 325 315 317 314 322 323 327 321 328 327 328 325 321 324 322 322 319 318 317 316 315 315 313 314 314 320 323 320 323 323 321 319 322 323 322 322 323
329 330 332 330 329 323 326 327 326 326 325 326 326 326 330 326 325 326 326 324 324 322 322 321 319 320 320 316 313 316 317 318 315 314 321 319 318 310 311 316 320 320 321
330 330 331 331 323 329 326 328 328 328 326 327 330 326 325 324 327 326 325 324 322 321 322 320 321 320 320 316 310 309 309 311 312 316 318 317 314 305 306 308 311 315 319
329 330 334 330 317 319 329 329 328 327 327 327 327 328 324 324 323 319 321 317 318 318 318 319 318 318 317 317 311 309 308 308 307 311 313 313 310 306 307 307 307 308 311
329 329 331 330 322 323 317 328 327 326 328 324 326 325 314 314 317 316 318 317 317 317 317 317 317 317 317 315 312 311 310 310 309 308 308 311 311 309 307 307 307 307 307
329 329 333 335 331 325 327 326 329 326 324 323 323 322 315 314 315 315 314 316 318 318 317 317 318 318 318 318 317 314 312 311 310 310 311 312 311 310 308 306 306 307 307
327 327 333 332 331 326 324 325 326 323 319 321 321 321 321 320 316 315 314 318 319 318 318 317 318 318 317 318 318 316 315 313 311 311 310 310 310 309 309 307 305 305 306
328 328 331 333 331 325 324 324 323 323 322 322 321 320 320 320 319 318 317 315 317 318 316 318 317 317 318 317 317 317 316 315 313 311 311 311 310 309 309 308 306 305 305
326 327 332 332 327 323 322 322 323 323 321 320 319 318 317 317 317 317 315 314 314 315 315 317 317 318 320 318 317 317 316 316 316 313 311 311 311 310 310 309 308 308 304
326 326 327 330 323 322 323 323 321 320 318 318 317 317 316 316 316 313 312 312 314 314 314 315 316 315 312 312 314 316 315 314 314 314 314 312 311 311 310 309 308 309 307
325 325 326 328 322 322 323 320 318 317 316 316 316 315 313 313 313 312 311 312 312 311 311 311 310 309 310 311 312 314 314 314 316 317 317 315 312 312 310 309 308 308 308
326 326 326 324 320 318 317 317 316 315 314 314 314 312 312 312 312 312 310 309 309 309 309 308 310 310 309 308 310 310 312 311 312 312 313 315 314 313 312 310 309 308 308
323 321 320 319 318 316 315 314 313 313 313 313 313 313 312 312 311 308 307 307 307 307 306 302 304 306 308 308 309 309 309 310 310 310 311 311 312 313 313 312 310 308 308
319 318 317 316 314 313 313 313 313 313 313 314 314 313 310 310 308 307 306 305 305 305 304 304 305 305 304 305 306 307 308 307 306 307 309 310 310 311 312 312 311 310 309
318 317 316 315 314 313 313 313 313 313 313 310 309 308 307 307 306 305 304 304 303 303 302 303 304 303 304 305 306 305 305 304 301 301 303 304 306 308 308 310 310 308 305
317 316 315 313 313 313 313 313 312 309 308 308 308 307 306 306 304 302 302 302 302 302 302 302 303 304 303 303 302 301 301 299 298 298 298 298 298 300 302 304 307 305 305

GFSSE_850_thetae_003.txt.gz
Theta_e
340 336 338 337 339 339 339 338 338 337 337 336 336 335 336 337 336 335 333 332 331 330 329 328 328 326 324 324 323 322 322 323 324 326 327 323 321 322 321 324 322 328 328
339 338 338 337 338 337 337 336 337 337 337 336 336 337 336 335 334 334 332 331 330 328 325 322 319 316 315 315 316 316 319 324 326 326 327 325 326 330 326 326 327 323 325
338 338 338 337 337 337 336 337 336 336 335 336 336 334 332 331 331 330 326 323 320 318 317 315 313 313 313 315 317 321 323 325 327 326 326 325 327 330 329 327 325 324 321
337 337 337 336 336 336 335 334 333 334 335 333 330 328 327 326 324 321 319 318 317 315 309 307 307 308 313 317 319 323 325 324 324 327 326 326 327 329 329 323 323 322 322
336 334 333 333 334 333 332 331 332 331 330 328 326 323 323 321 319 318 318 318 317 309 308 309 309 309 311 315 316 318 323 326 325 326 327 327 325 326 326 323 322 320 317
337 329 329 327 326 326 324 325 327 326 325 323 321 320 319 318 317 317 317 317 313 307 309 309 309 309 310 309 309 308 310 316 320 324 325 326 327 326 325 322 325 323 322
325 319 317 318 319 319 320 321 322 322 320 318 317 317 316 316 316 316 316 315 310 308 309 309 308 308 308 308 308 307 307 308 309 321 330 328 326 325 321 322 324 324 324
315 316 316 317 316 316 317 318 319 319 317 316 315 315 315 315 313 312 314 311 307 308 308 308 309 309 308 308 308 308 308 307 308 323 323 325 324 323 327 326 328 326 324
317 317 316 315 315 314 315 316 315 315 314 312 312 315 313 315 317 315 310 311 312 311 311 312 311 312 309 309 310 311 312 312 314 325 318 319 322 323 324 324 325 326 327
322 319 320 319 324 320 309 310 310 309 308 309 311 314 321 319 317 318 320 319 320 319 318 317 316 313 313 313 311 310 314 315 323 321 320 323 323 320 323 323 323 322 324
329 327 329 324 322 324 318 311 309 314 315 316 317 321 323 321 319 319 322 321 320 318 320 318 316 314 313 313 311 308 311 316 319 322 322 323 324 319 316 317 322 323 323
329 331 330 326 318 325 325 325 325 324 323 323 319 319 322 320 322 324 323 320 320 318 318 317 317 315 314 313 313 309 307 308 311 317 316 318 319 317 312 307 318 320 321
327 331 327 323 322 326 325 326 327 327 325 326 327 323 322 326 325 324 319 316 315 316 316 317 317 317 316 316 314 311 309 307 307 311 316 315 315 312 309 303 308 310 314
329 331 330 321 316 326 325 328 326 328 326 327 325 325 317 320 319 314 315 315 316 317 317 317 317 316 317 317 317 316 314 312 309 307 313 312 312 308 309 306 307 308 309
328 330 329 325 317 315 328 329 329 328 328 325 325 323 314 313 316 315 314 314 314 317 317 317 317 316 318 318 317 317 317 316 315 314 310 308 308 308 310 309 307 307 307
328 330 330 330 330 325 324 325 324 326 326 323 323 322 317 316 315 316 314 314 314 318 319 319 318 316 318 318 317 317 317 317 316 316 314 312 311 309 309 309 308 307 307
328 330 331 331 331 329 325 323 324 326 319 322 321 320 320 321 320 319 317 316 316 315 316 315 314 316 317 316 318 317 317 316 316 316 316 313 311 311 310 309 308 308 307
327 330 332 327 326 325 325 322 323 323 321 322 322 321 321 321 319 317 318 313 312 313 313 314 312 315 316 319 319 318 317 316 317 315 315 314 311 311 311 311 310 309 308
326 326 329 330 327 326 324 323 324 323 321 319 318 317 318 317 315 316 315 311 311 311 313 315 315 315 316 315 313 310 313 317 317 316 317 316 315 313 311 311 310 310 309
325 326 330 329 325 322 322 324 322 320 319 318 317 316 315 314 313 312 312 312 312 311 311 312 312 312 311 310 313 314 313 312 316 314 315 316 315 315 314 313 311 311 309
324 328 326 323 321 322 323 323 321 319 316 315 314 313 313 313 312 313 312 311 309 309 309 309 309 309 309 308 306 305 305 305 308 307 312 313 314 314 314 313 312 311 310
325 326 325 323 322 321 320 319 318 316 314 312 312 312 312 313 313 312 311 309 308 308 308 308 307 305 305 305 305 306 308 307 307 308 311 313 311 312 313 314 313 311 311
322 322 321 321 319 318 316 314 313 312 312 312 313 313 311 309 309 309 308 307 306 306 306 306 305 304 303 303 303 304 306 306 307 306 306 309 311 311 311 311 312 311 311
318 318 318 317 316 313 312 313 312 313 313 313 313 310 308 308 308 308 306 305 304 304 304 304 302 302 303 304 304 305 307 306 302 303 304 304 305 303 306 305 306 309 310
316 315 314 314 313 313 312 312 312 311 309 307 307 307 307 307 307 306 304 302 301 301 300 300 301 302 303 304 303 304 304 303 302 301 299 299 298 298 298 299 298 299 304
316 315 315 315 314 313 312 311 310 309 308 307 307 307 306 306 305 302 300 300 301 301 301 301 301 301 301 301 300 300 300 299 299 299 297 297 296 296 296 296 296 297 298

GFSSE_850_thetae_006.txt.gz
Theta_e
338 338 339 340 340 339 338 338 337 336 336 335 335 336 335 334 333 333 331 330 328 325 323 322 320 317 316 317 319 320 321 323 327 328 327 324 322 325 327 327 327 327 326
337 337 337 338 338 337 337 336 336 336 335 335 336 335 333 331 329 325 321 319 317 316 315 314 314 313 313 315 315 316 317 317 323 327 327 326 325 328 329 329 327 325 325
336 337 337 337 336 335 335 336 335 334 335 334 332 328 325 323 320 318 317 316 315 315 310 307 307 307 310 314 317 320 322 323 323 325 326 326 325 327 329 329 326 324 323
336 338 337 337 336 335 335 334 332 333 331 328 324 322 320 318 317 316 316 315 315 312 308 309 308 309 310 313 315 318 323 325 323 323 325 325 326 326 327 327 324 322 322
338 337 336 336 335 334 331 328 328 326 324 322 320 318 317 316 315 316 314 314 314 309 308 309 309 309 309 309 308 308 311 317 324 324 324 325 325 325 326 326 325 323 319
335 336 333 333 330 326 324 324 324 321 320 319 317 316 315 314 315 314 313 314 311 308 308 309 308 308 307 307 307 307 307 309 313 320 326 325 325 327 322 325 322 324 322
331 331 328 323 321 322 324 324 321 320 318 316 315 314 314 314 314 310 312 311 308 308 308 308 308 309 309 308 308 308 307 307 308 313 318 323 325 324 324 324 321 324 323
320 320 319 319 319 319 319 319 318 317 316 314 311 312 314 311 310 310 309 309 311 311 312 314 313 312 310 309 308 311 312 310 309 312 320 321 319 322 323 327 326 326 325
316 317 316 316 316 315 316 316 314 313 311 309 310 311 311 316 315 315 316 317 318 318 317 316 314 313 313 312 312 310 312 313 315 320 319 319 321 323 322 322 324 325 326
316 315 316 316 313 309 310 310 310 309 308 308 310 316 319 317 318 319 317 317 317 316 317 316 315 313 313 313 311 308 310 315 320 320 318 321 322 322 323 320 321 321 322
323 323 321 319 319 315 310 309 311 315 314 314 316 318 317 319 316 317 316 315 316 315 315 316 317 316 314 313 312 310 308 309 313 313 316 316 318 323 322 319 315 321 322
327 327 325 319 318 320 323 322 322 321 320 317 319 316 315 317 317 317 314 313 313 315 316 316 317 316 316 316 315 315 314 309 307 308 310 313 317 318 317 314 311 308 321
329 329 328 319 317 322 323 325 325 326 324 324 322 317 318 318 315 314 313 313 313 315 316 316 316 316 316 316 317 317 317 316 314 311 308 309 311 311 311 309 306 304 309
330 328 329 320 319 324 323 327 325 327 326 326 324 321 316 317 315 314 314 314 314 315 315 315 314 314 316 315 318 318 317 317 317 316 315 314 312 309 308 308 309 308 307
328 328 329 320 325 325 326 328 327 327 327 326 325 322 316 314 315 316 317 316 317 318 317 317 319 318 317 315 318 317 317 317 316 316 315 315 315 313 312 311 309 308 307
328 329 331 323 322 322 328 328 328 328 326 324 321 321 320 320 320 320 318 317 315 315 314 314 315 315 315 314 316 317 317 317 318 318 317 315 315 315 313 311 311 309 308
328 329 330 329 323 324 325 325 326 326 323 322 321 321 321 321 321 321 319 318 315 311 312 312 312 312 313 315 317 317 318 315 313 314 314 315 316 315 313 312 311 311 310
327 329 329 330 325 325 324 324 325 323 321 321 321 321 321 321 321 318 317 315 314 314 312 312 312 312 313 314 315 315 313 311 312 314 316 315 315 316 314 313 313 311 311
327 329 331 330 328 326 322 324 323 323 321 321 319 318 320 318 317 314 313 312 312 313 312 311 311 311 311 311 311 311 311 311 312 312 313 313 313 314 315 315 314 312 311
327 331 330 329 327 326 325 323 323 323 321 318 317 315 314 313 313 312 312 313 312 310 310 310 309 309 309 308 307 306 305 305 305 305 307 309 310 312 313 313 314 314 311
329 330 326 325 325 324 323 323 323 320 316 313 312 312 312 312 312 313 312 312 311 309 308 308 308 308 307 305 304 304 302 302 301 302 303 306 308 310 311 312 313 313 313
326 324 322 321 323 322 321 320 316 314 312 312 312 312 312 312 312 309 309 309 307 307 306 306 306 305 305 303 302 300 302 300 300 303 303 304 306 307 307 307 310 312 312
321 321 320 319 319 319 317 313 312 312 312 313 312 311 310 308 308 308 307 306 305 303 302 302 302 301 301 300 300 303 304 304 304 303 304 304 304 304 303 302 300 303 308
316 315 314 314 313 313 313 312 312 312 311 311 309 308 307 307 307 307 306 304 301 300 299 298 298 299 298 299 301 302 302 301 302 301 301 300 300 300 299 298 297 297 297
316 315 314 314 312 313 313 312 312 311 310 309 309 308 307 307 306 304 302 301 297 297 297 298 299 299 299 300 298 299 298 298 298 297 297 297 297 297 297 296 295 295 296
316 316 315 315 315 315 314 312 312 311 309 308 307 306 305 304 304 303 302 298 299 299 298 298 298 298 298 298 298 298 298 297 296 296 295 295 295 295 295 295 294 294 295

GFSSE_850_thetae_009.txt.gz
Theta_e
340 340 340 339 338 336 336 336 335 335 335 335 335 334 332 330 326 322 319 318 316 315 314 313 313 313 314 314 315 318 320 321 322 322 324 326 325 325 327 328 327 326 326
338 339 340 339 339 338 337 335 335 335 334 335 333 330 327 323 319 317 316 315 314 313 309 308 307 308 311 313 315 315 317 318 319 322 325 326 325 326 327 329 328 326 324
336 337 338 338 338 337 335 335 335 333 333 331 328 324 319 317 316 316 315 313 313 309 308 308 308 309 311 313 315 318 320 322 322 324 325 325 326 326 326 327 327 325 323
336 336 337 337 336 335 335 335 333 332 329 324 321 319 316 315 315 315 312 313 312 308 308 308 308 309 308 308 308 309 313 320 324 322 324 325 325 325 324 325 326 325 323
337 337 336 336 335 335 334 331 329 325 323 320 318 315 314 313 314 312 312 312 309 308 308 308 308 307 307 307 307 307 308 311 317 324 324 325 325 325 326 321 323 325 323
337 336 336 335 334 332 329 326 322 320 319 317 315 312 312 313 312 310 312 309 308 308 308 308 308 308 308 307 307 307 306 307 309 316 322 325 325 326 326 324 323 323 323
337 335 334 333 328 325 323 322 319 318 317 314 310 310 312 311 309 309 308 308 310 311 313 314 313 312 310 308 307 310 310 307 307 309 315 321 325 324 321 325 325 321 324
333 332 327 323 321 321 320 318 318 316 314 311 309 311 311 313 312 313 314 316 316 315 315 313 312 312 311 312 312 311 310 312 311 311 316 323 320 321 322 322 325 325 325
324 319 319 318 316 316 316 316 314 312 309 308 309 312 316 315 316 316 315 315 314 315 314 313 312 311 311 311 309 308 308 311 313 316 321 319 321 322 323 321 319 322 325
317 317 315 313 311 311 313 311 309 308 308 310 315 318 316 316 315 313 313 313 313 314 314 315 313 313 313 313 313 311 308 308 310 313 317 318 318 319 322 322 320 316 316
315 315 316 315 310 308 309 309 312 313 313 314 316 316 317 315 313 312 312 312 313 314 315 315 314 314 314 313 313 314 314 312 309 308 308 309 312 314 318 317 316 313 309
318 319 319 316 316 316 313 316 318 318 318 316 316 315 315 314 314 312 313 313 314 315 315 315 315 316 316 315 315 316 315 314 313 312 312 310 309 309 311 311 310 309 304
322 324 323 318 320 322 323 321 322 321 321 320 317 313 313 313 313 313 313 314 314 315 315 315 316 318 318 317 315 318 318 316 317 315 314 313 315 314 312 309 308 308 309
326 325 327 319 321 322 323 325 324 324 324 321 320 314 312 313 312 314 314 315 315 317 316 315 315 315 314 315 314 315 317 316 317 317 317 316 315 315 314 313 311 310 308
327 328 328 321 319 321 323 326 325 325 325 326 324 318 315 316 318 316 317 316 316 314 313 312 312 312 312 312 312 312 313 317 318 317 318 317 316 314 314 314 313 311 310
328 327 328 325 319 322 323 326 327 327 327 326 322 320 321 319 320 320 320 319 317 316 314 313 313 312 312 312 312 312 313 315 316 313 315 315 315 316 316 314 313 312 312
327 328 329 325 321 322 326 327 328 327 326 323 320 321 321 320 320 321 321 319 317 314 313 313 312 312 311 311 312 314 313 314 313 312 312 313 314 315 314 314 313 312 312
326 329 330 323 326 326 327 327 326 326 323 321 321 322 321 320 320 319 317 314 313 312 312 312 312 311 311 310 310 310 310 309 309 311 311 309 310 312 313 313 314 314 312
325 330 330 328 326 324 325 325 326 321 321 321 320 320 319 318 317 315 313 312 312 312 312 311 310 309 309 309 309 308 306 304 304 303 302 304 306 307 308 309 311 313 314
324 329 329 327 327 326 324 324 323 321 321 320 316 315 314 313 312 312 312 312 309 310 310 309 308 307 306 306 305 304 304 304 303 301 299 300 301 304 306 308 311 312 313
326 328 328 328 326 324 324 323 322 322 316 314 312 312 312 312 312 312 310 308 308 308 307 305 305 304 303 303 302 302 302 300 300 299 303 304 303 303 303 305 307 309 311
329 328 325 325 324 322 321 321 319 317 313 312 312 312 312 311 310 309 308 307 307 306 304 302 301 300 298 297 297 297 301 300 301 302 300 302 303 303 303 303 303 303 304
324 321 318 319 321 321 321 317 312 312 312 312 312 311 310 309 308 307 306 305 304 303 301 300 298 296 296 296 296 299 300 301 300 299 299 299 300 299 298 297 297 298 299
316 315 314 313 313 313 313 312 312 312 312 311 311 310 308 307 306 306 303 303 303 300 299 297 295 294 295 296 297 298 298 298 298 298 297 296 296 296 295 295 295 296 296
315 315 315 314 315 315 314 313 312 312 311 310 308 307 306 305 304 304 304 305 302 298 298 298 298 293 296 297 297 297 297 296 297 296 296 296 295 294 294 294 295 294 294
315 315 315 315 315 314 314 313 312 311 309 308 307 306 305 305 305 305 304 301 300 299 299 299 296 294 295 295 294 294 293 294 294 294 294 294 294 293 294 293 294 294 293

GFSSE_850_thetae_015.txt.gz
Theta_e
338 338 338 336 334 333 332 332 332 332 333 333 332 331 328 322 317 315 313 312 309 307 307 307 308 309 311 311 312 312 313 314 314 315 318 322 325 325 326 327 328 327 325
338 338 338 336 335 334 334 333 333 333 333 331 328 321 317 315 314 312 311 308 308 308 308 308 308 309 309 310 312 313 313 314 315 318 319 320 323 324 326 326 326 326 325
338 339 338 336 336 335 334 334 333 332 330 324 317 315 314 314 311 312 309 308 308 308 308 308 308 308 308 308 308 309 310 313 317 320 320 323 323 324 325 325 325 323 325
337 338 339 336 336 336 334 333 332 329 322 317 314 313 313 311 312 310 308 308 308 308 308 308 307 307 307 307 307 307 307 308 311 316 322 323 324 325 325 326 322 324 324
338 339 339 338 337 335 334 332 328 321 317 314 311 312 313 310 311 309 308 308 308 310 311 311 310 310 309 309 308 309 309 308 307 308 314 323 325 325 326 325 323 324 322
338 339 339 337 335 334 333 328 320 317 315 310 311 312 309 309 309 308 309 313 314 312 311 310 310 310 310 310 309 309 309 309 310 311 309 314 323 326 324 323 321 323 322
338 337 337 335 334 333 329 320 317 317 313 310 312 310 309 309 309 315 315 313 312 310 310 310 309 309 309 309 309 309 309 309 310 312 313 314 316 318 316 318 319 322 325
337 336 335 335 333 326 320 319 318 315 311 310 310 310 310 313 315 314 313 312 311 311 311 311 311 311 311 311 311 311 310 309 308 308 309 311 312 314 315 316 321 318 318
336 335 335 331 324 322 321 319 316 313 309 311 313 313 314 314 313 312 312 312 312 312 312 312 312 312 312 311 310 310 310 310 311 311 311 309 309 310 312 314 318 317 314
335 334 327 323 323 321 319 317 313 311 310 312 315 315 314 313 312 312 312 312 312 313 313 313 314 314 314 313 313 313 312 311 310 311 311 313 313 311 309 309 309 309 309
332 324 321 318 318 317 315 313 311 310 311 317 316 315 315 313 312 312 312 313 313 313 314 314 314 314 314 313 313 312 312 312 312 311 312 313 313 314 314 313 312 311 310
320 318 315 313 313 314 314 311 310 311 316 318 316 315 315 313 312 312 313 314 314 314 314 313 313 313 313 312 312 312 312 312 312 312 313 313 315 314 315 314 313 313 311
317 314 314 310 311 311 310 312 314 316 318 317 317 316 315 314 313 313 314 314 315 315 314 314 313 312 312 312 312 312 311 311 311 312 314 315 315 316 315 313 312 311 313
314 316 316 314 312 311 314 318 320 321 319 320 317 317 317 316 314 315 315 315 316 316 315 315 313 312 312 312 311 311 310 310 312 313 314 314 315 316 317 314 311 310 309
317 319 319 319 320 318 321 323 324 324 325 325 324 319 316 317 317 317 318 318 319 318 317 316 313 312 311 310 310 310 310 311 312 312 312 312 313 313 313 314 313 313 312
321 324 324 322 322 323 324 326 325 325 326 325 325 324 322 321 319 320 320 320 320 319 317 314 312 310 309 310 309 309 309 309 309 310 310 309 309 309 310 310 311 313 314
324 326 328 327 324 325 326 326 325 324 323 322 324 324 321 321 321 320 321 320 319 314 312 312 308 307 308 309 309 309 308 308 308 307 307 306 306 306 305 305 305 308 310
326 328 328 328 327 325 326 323 321 325 322 322 323 323 321 321 320 319 317 315 313 313 310 309 308 307 308 308 307 307 307 307 306 305 303 303 303 303 303 303 302 302 302
326 328 328 327 327 326 324 323 322 325 324 322 321 320 318 316 315 313 312 313 313 310 309 308 307 306 305 305 304 304 304 304 303 302 302 302 302 301 301 301 300 300 301
323 323 327 327 327 326 325 324 324 322 318 320 320 317 314 313 312 312 310 309 309 309 308 307 305 304 303 303 303 303 302 301 300 302 301 300 299 300 297 296 296 297 298
325 324 326 326 326 324 324 323 321 320 319 313 312 312 311 312 312 309 309 308 308 307 306 305 305 305 304 302 299 298 297 296 298 295 295 299 297 294 294 293 294 295 294
326 325 326 323 323 321 321 320 313 311 312 311 311 312 311 311 310 309 308 306 305 304 304 304 303 300 298 297 296 297 298 298 299 297 299 295 296 293 295 295 293 293 294
320 320 320 318 318 318 313 312 313 312 312 312 312 311 311 309 307 306 305 304 301 301 301 301 299 298 299 298 295 296 297 297 297 297 297 296 297 296 295 294 292 291 292
314 313 313 313 313 313 314 313 313 313 313 312 311 309 307 306 305 303 301 300 299 301 300 299 299 298 295 294 292 294 291 294 294 293 294 295 294 293 293 293 292 291 291
313 313 313 314 314 314 313 313 313 312 311 310 307 305 304 305 304 301 299 297 298 301 300 299 296 296 293 291 292 290 291 291 292 293 290 291 291 291 291 290 291 291 291
314 314 314 314 314 314 313 312 311 310 308 305 303 302 301 300 297 296 296 298 299 299 300 297 295 296 294 291 288 288 289 289 289 290 290 289 289 289 289 289 289 289 289

GFSSE_850_thetae_018.txt.gz
Theta_e
342 337 333 329 330 331 331 331 331 332 332 332 330 329 325 319 315 314 312 310 307 307 307 307 308 309 310 311 312 313 313 314 315 316 317 320 323 325 325 327 327 331 325
341 337 335 331 330 331 332 331 332 333 332 330 326 320 316 314 313 311 309 308 308 308 308 308 308 308 308 308 308 309 311 313 316 319 319 324 326 324 324 325 325 325 324
339 337 336 334 333 333 333 333 333 332 330 325 319 315 314 312 311 309 308 308 308 308 307 307 307 307 307 307 307 307 307 308 311 316 322 327 328 324 324 325 325 322 322
339 339 337 335 334 334 334 333 332 331 325 319 315 313 312 311 310 308 308 308 308 308 308 309 309 309 309 309 309 309 309 309 308 309 323 328 329 326 325 325 325 323 323
339 340 337 335 335 335 334 332 331 325 319 314 313 313 311 311 309 308 308 309 312 312 311 311 311 310 310 310 310 310 310 310 311 320 321 322 328 327 325 324 322 321 323
337 339 337 336 336 335 333 331 326 319 315 311 312 311 310 309 308 309 313 312 310 310 309 309 309 309 309 309 309 309 310 310 318 321 322 323 326 319 318 317 318 322 323
332 339 338 337 335 334 331 327 320 317 312 311 312 309 309 308 312 314 313 310 311 311 311 310 311 311 311 311 311 310 310 309 313 314 317 320 314 315 317 317 320 318 319
338 338 337 335 334 331 328 321 319 315 311 312 311 309 309 313 314 313 312 311 311 311 311 312 312 312 312 312 312 312 311 311 315 315 314 315 309 310 313 317 319 318 317
337 336 335 334 332 329 323 322 318 314 310 312 311 310 314 315 313 313 312 312 312 312 313 313 313 314 313 313 312 312 312 312 318 317 315 315 311 310 309 310 310 310 309
336 335 335 333 330 326 323 321 317 313 311 313 314 313 315 314 313 313 313 313 313 314 314 314 314 314 313 312 312 312 312 318 317 317 317 314 311 313 313 313 312 310 309
336 335 333 334 333 332 331 320 316 312 312 316 316 317 316 323 320 316 313 313 314 314 314 314 314 313 313 318 315 312 316 316 317 316 317 314 313 313 313 313 313 312 311
334 331 328 326 325 328 329 316 314 313 320 325 324 319 324 317 320 318 313 314 314 315 315 314 313 314 318 317 317 315 316 315 316 316 316 313 314 313 315 315 314 312 312
336 331 325 322 319 325 325 324 322 322 323 321 319 320 320 317 318 322 322 321 316 315 320 319 319 318 314 314 314 315 313 313 314 314 314 313 314 315 315 316 316 314 311
332 330 315 314 316 315 321 321 318 324 322 325 320 319 320 325 321 320 321 321 317 318 317 317 318 315 313 312 310 310 310 311 311 312 313 312 312 312 313 314 315 314 313
329 329 316 313 312 312 316 319 322 323 324 325 321 318 318 319 317 318 319 319 319 319 318 317 317 315 314 313 312 310 311 310 309 311 311 310 310 309 310 310 311 312 313
327 329 319 318 318 317 324 324 325 325 326 326 326 325 322 320 319 319 320 320 320 319 317 315 314 313 312 311 311 310 309 309 309 309 310 310 308 307 306 306 306 305 306
327 330 324 322 322 322 324 325 319 318 322 325 323 322 323 322 320 321 320 320 316 316 313 313 311 311 311 310 310 309 309 309 308 308 308 308 307 306 305 304 304 304 303
328 330 327 326 324 324 324 323 320 319 323 324 322 323 322 321 320 319 318 314 313 312 311 311 310 309 309 308 308 307 307 307 306 307 308 307 306 306 305 305 304 303 302
329 331 327 328 327 326 323 324 323 321 322 321 320 319 318 316 314 312 312 312 310 309 309 308 308 307 307 306 306 305 305 305 305 306 307 306 305 304 303 302 300 298 297
329 329 327 328 327 327 325 324 324 322 319 319 318 316 313 312 312 312 311 309 308 308 307 307 307 307 307 306 305 304 304 303 303 304 306 304 302 302 301 300 299 299 297
324 324 325 326 326 325 325 324 321 319 320 317 313 312 312 311 311 309 308 308 307 307 307 306 306 306 305 304 303 301 301 301 303 303 302 302 302 301 299 299 299 298 297
328 328 326 326 324 323 322 321 320 318 314 312 312 312 311 311 309 307 307 307 307 306 306 305 303 302 302 302 302 301 300 300 300 301 300 299 299 299 299 298 297 296 296
327 327 326 323 322 321 317 313 312 312 312 312 311 311 310 308 307 306 306 305 303 303 302 302 302 302 301 301 299 299 300 299 298 298 298 297 298 297 296 295 295 294 295
324 321 320 319 317 315 312 314 314 314 315 312 310 308 308 307 305 305 303 299 299 300 301 301 300 299 298 298 297 297 297 297 296 296 296 296 294 294 294 293 294 293 293
318 316 314 313 313 312 312 313 313 312 311 309 308 307 307 306 305 304 303 301 301 301 301 300 299 297 297 297 297 296 294 294 293 293 293 293 292 292 291 291 291 291 291
314 313 313 313 312 312 313 313 312 308 306 305 304 303 301 300 300 300 301 302 301 300 301 299 297 297 297 295 293 293 292 292 292 291 291 291 291 291 291 291 290 290 290

GFSSE_850_thetae_021.txt.gz
Theta_e
341 330 328 327 327 328 328 329 331 332 332 331 330 329 323 316 314 313 310 308 307 307 308 308 309 309 310 310 310 311 312 313 315 317 318 319 321 322 324 325 327 331 325
340 331 329 329 329 330 331 331 332 333 332 330 327 319 315 314 311 310 307 308 308 308 308 308 308 308 307 307 307 307 308 309 312 317 322 330 330 323 323 324 325 324 322
340 335 329 330 331 331 332 332 332 332 331 326 318 315 313 311 310 308 308 308 308 308 308 308 308 308 309 309 310 310 309 309 308 321 326 330 330 323 325 325 325 323 323
341 335 330 330 331 332 332 333 333 331 326 318 314 313 311 311 308 308 308 308 309 310 310 310 310 310 310 310 310 310 310 311 317 321 325 325 331 326 325 325 323 321 323
339 337 334 332 333 333 333 333 332 328 319 315 313 312 311 309 308 308 310 312 311 311 310 310 310 309 309 309 309 309 310 318 321 323 325 324 328 322 318 316 315 314 319
338 337 335 334 334 334 333 332 330 322 317 313 313 311 311 308 308 312 312 310 310 309 309 310 311 311 311 311 311 311 310 314 316 317 321 325 324 315 314 315 316 318 316
338 336 335 335 335 334 332 331 325 320 313 313 313 311 309 308 313 313 310 311 311 311 311 311 312 313 313 313 312 312 312 315 317 316 316 320 309 311 315 314 316 318 318
330 336 336 336 334 333 330 326 321 317 312 313 312 310 308 314 314 312 311 311 312 312 312 313 313 313 313 313 312 312 314 314 320 319 317 317 311 310 310 311 312 313 314
328 337 337 335 333 330 328 323 320 315 311 313 310 309 315 315 313 312 312 312 312 313 313 314 314 313 313 313 313 312 318 318 319 319 318 318 312 313 313 312 310 309 309
333 335 335 334 333 328 324 323 319 314 312 312 311 313 316 314 313 314 314 313 313 314 314 314 314 313 314 319 317 315 317 317 318 318 319 318 314 314 314 314 313 312 310
337 334 334 335 333 332 328 322 317 312 312 316 313 316 317 325 324 322 318 314 314 314 314 314 314 314 319 320 318 316 317 317 317 316 318 317 311 313 314 315 315 314 312
335 334 334 332 332 331 330 321 325 318 321 327 326 321 327 326 326 325 319 314 315 315 315 316 317 320 320 319 318 317 317 316 315 315 315 314 312 313 314 314 316 316 315
336 332 330 329 328 329 328 326 324 324 327 329 329 328 328 327 327 325 325 324 324 322 323 321 321 321 320 319 317 317 316 315 314 313 314 313 311 312 313 313 314 316 316
333 333 336 333 328 329 326 325 325 327 328 328 328 328 329 327 328 325 324 324 323 323 322 321 321 320 319 317 316 316 315 314 313 313 312 312 311 310 309 310 310 311 312
330 331 329 329 329 328 326 328 329 328 328 326 326 323 322 327 321 317 321 323 323 322 322 321 320 318 316 315 315 314 314 313 312 312 312 311 311 310 308 307 306 306 306
328 331 330 329 327 326 329 330 329 326 325 325 325 324 324 320 317 321 319 323 322 321 320 318 316 315 315 314 313 312 312 311 311 311 311 311 310 309 308 307 305 304 304
328 330 330 329 328 330 327 324 319 319 318 320 323 325 324 322 322 320 322 321 320 317 316 315 315 313 313 312 311 310 310 309 309 309 308 309 310 309 308 307 306 305 305
329 332 331 329 330 325 324 322 321 321 320 320 323 323 322 322 322 321 319 318 317 313 313 313 312 311 311 310 310 309 308 307 307 308 307 308 310 309 308 307 304 304 301
330 333 333 331 330 323 325 323 324 321 320 322 320 319 318 318 317 317 316 315 311 312 312 311 311 311 310 310 308 307 307 305 306 305 305 306 309 307 306 304 302 301 300
329 333 334 333 330 327 325 324 323 324 323 320 319 317 316 314 312 313 313 311 310 311 311 311 311 310 309 307 305 306 304 304 303 303 305 307 305 304 304 303 301 301 300
333 334 333 329 329 327 327 327 326 322 320 319 316 314 312 312 311 311 311 311 311 311 310 309 309 308 304 303 304 304 303 303 302 303 303 303 304 302 302 301 301 300 299
332 333 330 329 327 328 327 325 323 322 319 316 314 312 311 311 311 310 310 310 309 308 307 306 305 304 303 302 303 302 301 300 301 301 301 301 300 300 300 300 299 298 297
332 331 331 330 328 325 324 323 321 318 315 315 314 313 311 310 310 309 309 308 307 305 303 303 304 304 302 301 301 300 299 299 299 299 298 298 298 299 298 297 296 295 295
331 330 328 326 324 323 319 317 317 317 318 315 313 312 311 310 309 308 306 305 304 303 303 303 302 302 300 300 300 299 300 299 298 297 296 295 296 296 295 295 294 293 293
326 325 323 322 318 317 317 317 316 316 314 312 311 309 307 305 303 302 301 302 304 303 303 302 302 301 299 300 299 298 297 296 295 295 294 294 294 294 294 293 293 293 292
321 320 318 316 316 316 315 315 314 312 309 308 305 303 301 300 299 299 299 299 300 301 302 302 301 300 299 299 296 296 295 294 293 293 293 293 293 293 293 293 292 292 292

GFSSE_850_thetae_024.txt.gz
Theta_e
339 327 329 327 328 330 328 326 328 330 330 330 328 324 316 314 312 309 307 308 308 308 308 308 308 308 308 308 308 308 309 310 312 316 321 328 329 324 318 323 325 324 322
336 327 328 325 326 326 327 330 331 331 330 329 322 316 313 311 310 307 308 308 308 307 307 307 308 308 309 309 310 310 309 308 322 327 328 331 327 323 318 321 323 323 322
333 328 328 327 327 329 331 332 332 331 329 322 316 313 311 310 308 308 308 308 308 309 309 310 310 310 310 310 310 310 312 315 322 326 326 332 329 326 323 324 322 322 322
331 329 329 329 330 332 333 333 332 330 323 316 313 312 311 309 308 308 309 311 311 311 310 310 309 309 309 309 309 312 321 322 323 326 324 330 328 319 319 317 315 316 319
333 331 330 330 331 332 333 333 331 325 317 313 312 310 310 308 308 310 312 310 310 310 309 310 311 311 312 312 312 312 316 316 317 323 322 321 323 312 314 314 315 315 316
336 330 330 331 332 333 333 332 329 319 314 312 312 311 309 308 311 311 310 310 310 310 311 312 313 313 313 313 313 313 314 317 316 317 318 318 309 309 311 312 315 317 317
336 333 333 333 332 333 332 331 323 317 311 312 311 310 308 311 312 310 311 311 311 312 312 313 313 313 313 313 313 315 315 320 320 318 318 317 314 310 309 310 311 312 314
335 326 330 333 333 333 331 327 321 314 311 312 310 309 310 314 312 311 311 312 312 313 314 314 313 313 314 315 315 317 317 317 318 319 319 318 317 312 312 311 310 309 309
327 327 330 333 333 331 329 324 319 312 311 311 310 309 315 313 312 312 312 312 313 313 314 314 313 314 318 318 318 316 318 317 318 320 319 319 317 312 314 313 313 312 310
331 324 333 334 332 329 325 321 317 310 311 311 310 315 314 313 313 313 313 313 314 314 314 314 314 315 320 320 318 316 317 316 317 316 317 317 316 310 313 314 315 314 313
324 326 332 332 329 324 321 320 315 310 312 312 313 317 325 324 325 327 319 313 314 314 314 315 317 320 320 320 319 317 317 316 315 315 315 315 314 311 310 313 315 316 316
328 332 331 327 328 330 323 318 313 312 321 320 317 326 328 326 327 325 321 320 321 320 321 322 322 321 321 320 318 317 317 315 314 314 314 313 313 312 310 311 312 313 315
331 333 333 331 330 331 325 323 322 325 329 329 326 328 328 324 326 327 324 325 324 323 323 322 322 321 320 318 316 316 315 314 314 313 312 313 312 312 311 309 309 310 311
333 331 329 327 329 328 324 324 325 327 329 329 326 327 325 327 328 324 324 324 324 324 322 322 321 320 318 316 315 315 314 314 312 312 312 312 312 311 310 310 308 306 306
331 325 322 328 330 326 326 325 328 327 327 327 327 321 323 328 326 321 317 320 318 322 322 321 320 319 317 315 315 313 312 312 311 311 311 311 311 310 310 309 308 307 305
332 322 319 328 321 326 326 326 325 323 323 324 325 325 322 322 318 319 318 320 321 322 321 319 316 315 314 313 312 312 311 310 309 309 310 309 308 309 310 308 307 306 306
331 330 329 327 323 329 326 326 324 319 319 320 320 322 325 324 323 322 322 321 321 320 318 314 314 313 312 311 310 310 310 309 308 307 307 308 307 307 310 309 307 306 305
330 330 329 327 328 329 326 321 319 320 320 320 320 321 323 322 322 322 320 319 318 315 313 312 311 311 311 311 310 308 308 307 307 305 306 306 305 309 309 308 306 305 303
332 331 330 329 329 327 321 319 322 322 321 320 321 320 320 319 318 318 317 315 312 311 312 312 312 311 310 309 308 306 305 305 304 304 304 303 304 308 307 305 304 303 302
333 333 332 330 328 325 323 324 324 323 324 323 320 319 316 313 312 313 314 312 312 312 312 311 310 309 308 307 303 302 304 304 303 302 304 304 304 304 304 303 302 301 301
332 334 333 331 330 328 325 325 325 324 321 320 318 316 314 313 312 311 312 312 311 311 310 309 306 304 304 303 303 303 303 302 301 301 302 301 301 302 301 301 300 300 298
334 334 333 330 330 327 326 326 325 322 320 318 316 313 312 312 312 311 311 310 310 309 306 303 303 303 304 303 302 301 302 301 300 300 300 299 298 298 298 299 299 297 296
333 333 332 329 328 328 327 324 323 321 318 316 314 313 312 312 311 310 309 307 304 304 304 303 303 303 303 302 300 300 300 300 300 299 298 298 297 296 296 295 295 295 294
332 331 330 328 328 326 324 323 321 318 316 316 314 313 312 311 309 307 304 303 303 303 304 303 303 303 302 301 300 300 299 298 297 296 296 295 294 294 294 294 293 293 293
330 330 330 327 325 324 319 319 319 318 316 314 313 310 307 306 304 301 301 300 299 298 300 301 302 302 302 300 299 299 297 296 296 295 294 294 293 293 293 293 293 293 292
330 327 325 323 319 318 318 318 317 315 313 311 308 307 306 302 300 299 298 297 295 298 299 300 301 301 301 300 299 298 296 295 294 294 294 293 293 293 292 292 292 292 292

GFSSE_850_thetae_030.txt.gz
Theta_e
331 335 338 338 337 334 324 325 327 327 324 317 311 310 308 307 308 308 308 308 309 310 310 310 310 310 310 309 318 323 325 325 325 329 329 326 322 322 322 321 321 322 322
330 336 338 338 337 330 325 327 329 327 319 312 310 309 308 308 308 308 309 310 310 310 310 310 310 311 313 313 320 320 323 324 323 328 325 324 313 316 318 317 317 319 319
336 337 337 336 333 325 327 330 329 323 314 310 309 308 308 308 309 310 310 310 309 310 310 310 310 318 320 319 317 320 324 324 320 317 318 310 309 310 312 313 313 315 318
334 337 336 332 328 326 330 330 326 316 312 310 309 308 308 309 311 311 310 310 310 311 313 313 313 313 316 316 318 316 322 321 319 318 317 316 316 309 309 312 314 316 315
334 334 335 330 326 330 331 329 320 314 311 309 308 308 309 311 310 310 310 311 313 313 313 313 313 313 313 315 318 319 319 321 319 318 317 317 318 311 310 309 309 310 310
331 332 330 327 330 332 331 326 316 312 310 309 308 309 311 310 310 311 312 313 314 314 313 313 315 314 314 315 317 317 318 319 319 319 318 318 317 311 310 311 311 309 309
328 328 327 330 332 332 329 319 314 311 310 309 308 311 310 310 312 313 313 314 314 313 313 315 317 317 316 315 315 315 317 318 317 317 318 316 315 314 310 309 311 312 311
329 328 330 332 332 330 323 317 311 310 309 309 309 312 310 312 313 313 314 314 314 314 315 316 318 318 317 317 317 316 316 316 316 315 315 314 314 313 312 309 310 312 312
331 333 332 331 331 329 323 316 310 311 309 308 311 311 311 312 313 314 314 314 314 314 315 317 319 319 318 318 317 317 316 314 314 314 314 314 313 312 311 311 308 311 312
332 329 326 325 323 321 321 313 310 310 309 309 313 311 311 311 313 314 314 314 314 314 317 320 320 320 320 319 319 317 316 315 314 313 313 313 312 310 312 311 309 308 310
329 327 323 319 325 327 319 312 310 310 309 314 312 312 311 312 313 312 313 315 317 319 322 321 321 321 321 320 320 317 315 315 314 313 311 310 310 311 311 311 310 309 308
326 325 324 322 328 324 317 311 310 309 312 313 312 314 315 321 319 323 322 323 322 323 322 321 322 321 320 318 318 316 315 314 313 313 310 310 311 311 311 310 307 308 308
325 322 326 329 329 322 315 310 311 311 319 322 323 322 321 323 324 325 324 324 323 323 322 322 321 320 318 318 317 315 314 313 312 311 310 310 311 310 310 309 307 308 309
322 325 329 326 325 319 314 311 313 313 323 327 326 325 320 323 323 326 325 324 323 323 322 322 321 320 319 318 318 315 313 312 311 310 309 309 308 308 308 308 307 307 308
326 328 325 327 322 317 314 319 321 322 322 324 325 326 326 327 324 325 324 323 319 319 322 322 321 320 319 318 315 313 312 311 310 308 308 307 307 306 306 307 307 308 308
330 327 327 326 323 324 325 324 324 326 324 322 326 328 323 324 326 325 323 320 318 320 320 321 320 318 314 312 311 311 309 307 305 308 307 307 306 305 304 305 307 308 306
330 330 330 328 324 324 325 326 326 326 329 328 326 325 323 322 322 320 319 322 321 320 319 317 313 311 311 310 310 310 305 303 306 305 305 305 304 303 304 307 307 306 304
330 332 329 327 325 325 325 326 327 327 327 326 323 319 319 319 321 323 323 322 319 314 311 311 311 310 310 310 309 302 300 300 302 302 302 302 303 303 307 306 303 303 302
329 328 328 327 325 325 326 327 327 325 322 321 321 320 320 321 322 322 320 317 313 311 311 311 310 310 310 308 302 300 299 301 304 303 302 301 301 301 303 304 303 301 301
317 319 324 326 327 324 325 325 325 322 320 322 321 320 320 320 318 313 312 312 311 311 311 310 310 309 304 300 299 298 300 300 302 301 299 300 300 299 298 299 298 297 297
320 317 317 317 322 323 326 324 324 320 323 323 322 320 317 313 311 311 311 311 311 311 310 308 304 300 298 297 299 301 300 299 299 300 299 299 299 298 297 296 295 294 294
328 326 323 319 319 322 325 324 322 321 324 323 321 319 313 312 311 312 312 311 310 309 306 301 299 298 298 298 301 302 300 299 299 298 296 297 297 295 295 295 294 293 293
329 329 329 328 328 325 326 326 321 323 323 321 319 318 314 312 312 312 311 311 311 305 300 300 299 300 300 300 302 302 300 299 298 297 296 295 295 294 294 294 294 292 293
329 330 331 330 329 328 328 326 320 324 321 320 318 317 313 312 312 312 311 311 308 302 300 299 296 296 298 300 301 301 301 300 299 298 296 296 295 294 293 293 292 291 291
329 331 330 330 330 330 326 322 323 321 319 319 318 316 314 313 313 310 312 308 302 299 297 294 294 295 298 301 301 301 300 299 298 297 295 295 294 294 294 293 292 292 291
331 332 332 329 327 327 325 325 324 322 321 320 317 314 314 313 308 307 302 302 298 295 294 293 293 297 299 300 300 298 298 297 297 296 295 295 294 294 293 293 292 291 290

GFSSE_850_thetae_033.txt.gz
Theta_e
335 336 337 337 335 329 323 325 325 324 318 311 310 308 308 308 309 309 309 310 310 310 310 310 310 309 319 321 322 323 323 326 326 319 310 309 313 316 317 318 319 319 320
336 337 338 338 335 326 325 326 326 321 313 310 308 308 308 308 309 310 310 310 310 309 310 312 313 315 319 320 322 323 320 317 316 315 316 312 309 311 312 313 313 315 320
338 338 338 337 333 324 326 327 325 316 310 308 308 308 308 310 310 310 310 310 310 310 313 319 320 317 318 319 322 323 318 318 317 316 316 317 311 309 309 312 314 314 313
338 338 338 337 330 325 328 328 322 313 309 308 308 308 310 310 310 310 310 311 313 313 313 314 315 316 317 316 318 320 318 318 317 317 317 317 313 309 310 308 309 310 311
338 338 338 335 327 327 329 326 317 311 309 308 308 310 311 310 310 311 312 313 313 313 313 313 315 316 318 318 318 318 319 319 317 318 317 315 315 310 309 310 310 309 308
338 338 337 332 325 330 329 323 313 310 309 308 309 311 310 310 311 312 313 314 313 314 315 314 316 316 316 317 317 318 318 317 317 317 315 313 313 312 311 308 311 311 310
338 338 336 327 329 330 326 316 311 309 309 308 310 311 310 311 312 313 314 313 313 315 317 316 315 315 315 314 315 316 316 316 314 314 314 313 312 311 311 310 308 310 312
336 336 331 328 331 327 317 312 310 309 309 309 311 310 311 312 313 314 313 313 314 316 317 317 317 317 317 317 316 315 315 314 314 314 313 313 312 310 309 310 309 308 310
335 331 329 330 327 318 313 312 310 309 308 310 310 310 312 312 313 314 313 314 315 316 317 318 318 318 318 319 317 316 315 315 314 313 313 310 310 309 310 310 310 308 308
329 331 331 327 321 316 314 313 312 309 308 312 310 311 312 313 313 313 314 314 315 316 318 319 320 320 320 320 319 318 316 314 312 312 310 309 309 310 310 310 309 308 308
327 326 325 322 320 318 317 315 311 309 309 313 310 311 312 313 313 313 314 314 315 320 320 320 320 320 320 320 318 317 317 313 313 312 311 310 309 310 310 309 309 307 306
324 322 322 322 320 320 315 311 311 309 313 312 311 312 313 314 313 314 316 320 321 321 321 321 321 321 320 319 318 316 315 313 312 312 311 310 310 310 309 308 307 307 306
325 320 321 322 327 321 314 312 310 311 314 313 314 320 320 319 322 322 322 322 322 322 322 322 321 320 319 318 317 316 313 312 311 311 310 309 309 308 308 308 307 306 306
326 323 321 328 326 321 313 311 310 314 314 317 319 321 323 322 322 323 323 323 323 322 321 321 321 319 319 318 317 314 313 312 311 310 308 307 308 307 310 309 307 306 307
323 322 322 328 325 319 312 312 311 322 323 323 324 323 321 320 320 324 324 323 322 319 320 321 320 320 319 316 314 313 312 311 308 306 305 307 307 306 305 307 306 307 307
322 325 325 324 322 319 313 315 313 321 324 324 326 325 325 323 324 325 324 323 321 319 320 321 321 319 315 312 311 310 310 306 302 304 306 306 306 305 304 306 308 307 306
325 328 323 325 322 318 316 321 321 320 321 322 325 327 325 323 325 324 323 321 321 321 320 318 314 311 311 310 310 309 304 300 299 299 300 300 301 301 303 306 307 305 304
328 325 325 325 322 319 323 325 325 326 326 326 326 326 324 324 323 322 320 321 321 319 314 311 311 310 310 310 307 301 299 298 300 301 302 302 300 302 304 306 304 304 303
328 326 327 326 324 324 324 325 326 328 329 329 326 321 320 320 323 323 323 322 320 312 311 311 310 310 309 304 299 298 298 300 301 303 302 302 300 301 305 304 303 301 299
327 327 326 328 326 324 325 325 328 329 328 325 321 321 320 320 321 322 321 317 311 311 311 310 309 305 301 299 297 296 298 299 299 300 299 299 299 299 299 299 299 298 296
329 329 328 327 326 324 325 326 328 327 323 321 322 321 320 320 320 317 312 311 311 311 310 308 305 300 299 297 296 297 298 298 299 298 299 298 297 298 297 295 295 295 294
327 328 329 327 325 325 325 325 326 325 323 322 321 320 318 316 313 311 311 311 311 310 309 307 302 299 297 296 296 297 300 299 299 298 298 297 296 295 295 294 293 294 293
327 323 322 321 321 324 325 325 326 324 322 322 321 321 317 313 312 311 311 311 310 310 309 308 301 298 295 295 297 299 300 299 299 298 297 297 295 295 295 294 293 293 292
327 325 323 319 319 320 323 326 326 324 322 322 323 320 317 314 312 311 312 310 310 307 306 301 297 295 294 295 298 301 301 300 299 298 298 297 296 296 294 294 293 293 292
329 327 325 324 323 322 323 327 327 324 322 322 322 318 316 314 312 312 311 308 304 304 302 296 294 293 294 296 299 300 300 299 298 297 297 296 295 294 295 294 293 293 292
329 328 327 328 328 326 326 327 327 323 321 322 320 317 316 314 313 312 308 305 303 303 295 295 293 293 294 297 298 298 297 297 297 297 296 296 295 295 295 294 294 293 292

GFSSE_850_thetae_036.txt.gz
Theta_e
335 338 336 333 330 324 323 324 323 320 316 312 310 308 308 308 309 308 308 309 310 310 310 310 311 313 318 321 321 323 319 314 315 316 313 309 310 311 312 312 314 317 320
334 337 336 334 330 323 324 324 322 319 312 310 308 308 308 308 309 310 310 310 310 310 310 311 314 318 321 322 317 316 315 316 316 316 314 310 309 309 311 312 313 312 316
334 337 337 335 329 323 325 324 321 314 309 308 308 308 309 310 310 309 309 311 314 316 316 317 318 318 321 323 317 317 317 317 317 317 314 310 309 310 308 308 309 311 312
336 337 337 335 328 324 326 325 318 310 308 308 308 309 310 310 309 310 310 313 317 317 317 315 316 316 318 319 317 318 318 317 318 316 314 314 311 309 310 310 308 308 308
338 337 337 333 326 326 327 323 312 308 308 308 309 310 310 309 310 312 313 313 313 313 313 314 315 316 316 317 318 318 318 317 316 314 312 311 311 310 309 308 310 310 309
338 337 337 332 324 328 326 317 310 309 308 308 310 310 309 310 313 313 313 313 313 313 313 314 314 316 316 315 317 317 315 314 313 313 312 312 310 309 309 309 307 309 311
338 337 336 329 327 329 321 313 309 308 308 310 311 310 310 312 313 313 314 315 315 315 315 315 315 314 315 315 315 314 315 314 313 313 312 311 310 309 309 309 308 308 309
336 336 331 327 328 325 314 312 309 308 308 311 310 310 311 313 313 313 314 316 316 317 317 317 317 318 317 316 316 315 315 314 313 311 311 309 309 308 309 309 309 308 308
335 334 331 328 326 318 312 310 308 308 310 311 310 311 312 313 313 313 314 315 316 317 318 318 318 319 319 319 318 316 315 313 311 310 310 309 307 307 308 307 308 306 306
334 332 330 329 320 314 311 309 308 308 311 310 310 311 312 313 313 313 314 315 316 317 318 319 320 320 319 319 319 318 317 313 311 310 310 310 309 307 307 308 307 306 305
330 327 328 318 313 313 311 309 309 309 310 310 311 312 313 313 313 314 314 315 316 318 319 320 320 320 320 319 318 318 317 313 311 311 310 310 309 312 309 307 306 305 305
327 325 320 318 316 315 316 314 313 310 310 310 311 312 313 313 313 313 314 315 319 320 320 321 321 320 320 319 317 316 314 312 311 311 310 309 309 312 311 309 307 306 306
323 324 322 319 319 318 317 313 311 308 312 311 311 312 313 313 313 315 319 320 321 321 322 321 320 321 319 318 316 314 313 311 311 310 309 308 307 309 310 309 308 306 306
323 322 323 321 320 317 314 311 309 311 313 311 313 313 316 315 317 321 321 322 322 322 322 319 320 320 319 317 316 314 312 311 310 309 306 305 307 307 310 307 307 306 306
322 321 320 321 321 319 312 312 309 314 313 314 321 323 322 321 322 322 322 323 323 322 319 320 320 320 319 317 314 311 310 310 309 305 301 302 305 306 305 308 308 307 307
322 322 326 327 324 317 312 312 311 314 318 321 323 323 320 321 322 322 324 324 322 320 319 320 320 319 316 311 310 310 309 307 301 299 298 299 301 302 303 307 308 308 307
324 321 323 327 326 320 314 312 311 319 324 324 323 324 325 323 323 325 324 323 323 320 321 319 317 312 310 310 310 308 303 299 298 299 300 300 300 299 300 304 307 307 305
322 327 326 324 324 321 314 316 312 322 324 324 324 325 325 324 323 325 324 322 320 321 319 313 310 310 310 309 306 300 298 298 299 300 301 301 300 299 302 305 306 305 304
322 327 324 323 324 320 314 322 323 320 322 324 323 324 325 324 324 325 322 321 322 319 312 311 310 310 307 302 299 297 297 298 298 299 299 298 298 299 301 304 304 303 302
324 327 325 325 323 320 319 324 326 326 327 327 327 326 322 320 320 323 323 322 319 312 311 310 309 304 300 299 297 297 297 297 298 299 298 298 298 297 296 298 297 296 296
327 326 325 325 324 323 323 324 324 326 327 327 326 323 320 320 320 322 321 317 312 311 310 308 304 300 299 297 296 296 297 298 298 298 298 298 298 297 296 294 294 294 293
324 325 325 326 326 325 324 324 325 325 326 326 323 321 321 320 320 319 316 312 311 310 308 306 303 300 297 296 295 296 297 298 299 298 298 298 297 297 296 296 295 294 293
323 323 325 325 325 325 326 325 325 326 326 323 321 321 321 317 316 314 312 311 311 308 307 305 300 296 297 296 294 296 298 299 299 298 298 297 297 296 295 295 295 294 293
326 325 325 324 324 326 325 324 324 325 325 324 322 321 319 315 313 311 311 311 309 307 305 304 299 300 301 296 294 295 297 299 300 299 297 297 297 296 296 295 294 295 294
327 327 326 326 325 327 325 325 325 326 325 324 322 320 318 315 313 312 311 310 308 307 306 307 306 308 304 294 293 295 297 298 297 297 297 296 295 295 295 295 295 294 293
328 328 327 326 325 325 325 325 325 326 326 323 322 320 317 315 315 313 311 309 305 305 308 310 312 299 294 293 293 294 296 296 296 296 295 294 294 294 294 294 294 293 292

GFSSE_850_thetae_039.txt.gz
Theta_e
338 336 330 326 325 325 325 325 325 323 320 317 313 310 307 307 308 308 308 308 309 309 310 315 319 320 321 323 316 315 315 316 315 311 309 309 309 311 311 310 311 315 319
338 336 331 327 324 324 324 323 320 317 313 311 308 307 308 308 308 309 310 310 310 311 314 318 320 319 316 315 315 316 317 317 316 314 310 309 309 308 309 311 312 311 314
339 336 332 328 324 324 323 321 316 312 310 308 308 309 309 309 310 310 310 310 312 314 316 317 319 319 316 316 317 317 317 317 315 314 313 318 310 310 309 308 308 310 311
339 335 332 326 324 325 323 319 313 310 308 308 309 309 310 310 310 311 313 314 315 315 314 315 316 317 316 317 317 317 316 315 313 311 311 318 317 309 309 310 310 308 308
338 336 330 325 325 325 322 317 311 308 308 308 310 310 309 310 311 314 315 315 314 314 314 315 315 316 317 317 317 315 314 313 312 311 312 311 318 309 309 308 309 310 310
337 336 330 325 325 325 321 312 308 308 308 309 310 309 310 311 312 313 313 313 313 313 314 315 316 315 315 317 316 314 314 313 312 312 311 309 311 308 309 309 308 309 309
337 335 329 325 326 325 317 310 308 308 308 310 309 310 311 313 313 313 313 314 314 314 314 314 315 315 315 315 315 314 314 312 311 310 312 312 308 308 308 308 308 308 308
337 335 330 327 322 318 312 309 308 308 309 310 309 311 313 313 314 315 316 315 315 315 316 317 317 317 317 316 315 315 313 311 310 309 309 314 306 306 307 307 307 306 305
336 334 330 327 325 312 310 308 308 309 311 309 310 312 313 314 315 316 316 317 317 317 317 318 319 319 319 318 318 317 315 311 310 309 310 317 307 305 306 306 305 304 304
334 333 330 328 322 312 310 308 308 310 310 309 311 313 313 313 314 315 317 318 318 318 319 319 320 320 319 319 318 318 316 313 311 310 315 314 311 310 306 306 306 305 304
333 331 329 324 313 311 310 308 310 311 310 310 311 313 313 313 314 314 315 317 318 319 320 320 320 320 320 319 318 318 316 312 311 310 310 308 308 310 311 309 306 306 304
327 326 326 320 313 309 309 309 311 311 310 310 312 313 313 313 314 314 315 315 319 320 321 320 320 320 320 319 318 317 315 312 311 310 309 308 307 311 310 308 308 306 305
327 325 321 319 315 313 310 315 317 311 310 311 312 313 313 313 313 313 314 318 320 321 321 321 320 320 319 319 318 317 314 311 310 309 308 305 305 309 310 308 307 307 305
322 318 317 316 316 317 318 317 311 312 311 311 312 313 313 313 313 315 318 320 321 322 322 320 320 320 319 319 318 314 311 310 309 308 304 301 303 306 309 307 307 307 307
320 318 318 317 318 318 317 312 309 310 311 311 312 313 313 313 314 320 322 323 323 322 320 320 319 320 320 318 313 310 310 309 306 302 299 299 300 302 304 307 307 306 307
321 320 320 320 317 317 316 313 309 313 312 311 313 315 317 320 322 322 322 323 323 321 320 319 320 320 318 311 310 310 308 303 300 299 298 298 299 299 300 305 307 309 307
322 321 319 318 318 321 315 313 310 314 313 314 321 322 322 321 322 322 323 324 322 321 320 320 319 314 310 310 310 306 300 299 298 298 298 298 299 298 298 301 308 308 307
320 322 325 327 326 320 315 312 310 314 317 321 323 324 323 323 321 322 324 323 322 320 320 319 312 310 310 309 303 299 298 297 297 298 298 299 297 298 301 304 307 306 305
323 322 323 324 325 322 318 313 312 315 321 325 325 324 323 323 323 324 324 323 320 320 319 312 310 310 308 302 300 298 297 297 298 299 299 298 298 298 299 301 304 303 303
322 323 322 324 323 325 323 315 317 313 322 321 323 322 323 323 323 323 324 322 322 320 314 311 310 308 303 300 297 297 296 297 298 298 298 298 297 298 297 296 296 297 296
321 322 326 326 323 324 321 315 322 323 321 324 324 324 324 323 320 320 322 322 321 317 311 310 308 306 302 298 297 298 298 297 298 298 298 298 298 298 296 296 295 296 295
322 323 326 326 324 324 322 319 322 325 325 326 325 325 324 321 320 320 321 321 318 311 311 308 308 303 298 298 299 300 300 299 298 298 298 299 297 297 296 295 295 296 295
322 324 326 325 324 324 324 323 323 324 324 325 325 325 322 320 320 320 320 317 312 311 309 308 305 303 304 301 300 299 299 300 297 298 298 297 297 296 296 296 295 295 294
321 322 324 326 325 325 326 326 325 324 324 324 325 324 321 320 319 318 316 313 311 310 308 305 307 304 307 306 305 297 295 295 299 299 298 297 295 294 294 295 295 293 294
325 323 323 324 325 326 325 326 325 326 325 325 325 322 321 319 318 316 313 311 311 309 306 306 309 310 310 306 296 295 294 294 295 297 296 296 295 295 295 294 294 295 294
328 327 326 325 325 326 324 324 326 326 325 325 325 323 322 319 317 315 312 312 311 308 305 307 310 312 304 298 297 294 294 296 297 297 296 296 295 294 294 293 293 292 292

GFSSE_850_thetae_042.txt.gz
Theta_e
341 335 329 334 336 337 337 337 336 335 335 331 325 320 312 309 309 309 309 308 308 312 316 318 319 324 318 314 315 316 315 313 310 310 309 309 310 311 312 315 326 326 323
341 334 328 331 336 336 336 336 335 333 328 323 315 309 308 308 308 308 308 309 312 316 319 317 316 314 314 316 317 317 316 314 313 315 320 314 310 308 308 310 311 313 319
340 335 326 327 332 335 335 334 329 324 319 312 308 307 308 309 309 310 310 311 315 318 318 317 315 316 316 317 317 316 314 311 311 317 320 321 315 309 310 309 308 309 310
338 336 332 325 325 327 326 324 320 315 311 307 308 308 310 310 310 310 312 315 316 317 320 319 316 317 317 316 314 313 312 311 314 320 321 322 321 308 308 309 310 309 310
338 337 333 325 325 324 323 318 313 310 307 308 309 310 310 310 311 313 315 315 315 317 319 318 317 316 316 316 313 313 312 312 319 320 320 322 321 311 308 314 317 309 310
337 337 328 325 325 323 317 312 309 307 308 309 310 310 310 312 314 314 314 314 315 315 316 316 316 316 316 314 314 314 312 314 319 320 321 320 320 308 307 308 308 308 308
338 336 327 325 324 319 313 309 307 308 308 310 310 310 311 314 314 313 313 313 314 315 314 315 316 315 315 315 314 313 311 313 317 318 319 319 313 306 306 306 306 305 306
337 336 328 325 319 314 310 308 308 308 309 309 309 311 313 313 313 313 314 314 315 315 316 316 316 317 316 315 315 314 311 315 317 317 319 318 306 305 305 305 304 304 304
336 334 327 325 320 317 310 308 308 309 310 309 311 313 313 313 314 315 315 315 316 317 318 318 319 319 318 318 318 316 313 312 318 319 318 317 307 306 305 305 305 304 303
335 331 327 325 321 314 312 308 308 309 309 310 312 313 314 315 316 316 317 317 317 318 319 319 320 319 319 318 318 317 314 316 318 318 318 316 310 309 309 306 305 305 303
334 332 328 325 320 315 310 311 310 310 309 311 312 314 315 318 318 320 318 318 318 319 320 320 320 319 319 319 318 317 315 315 316 316 317 308 313 313 308 307 307 306 305
332 329 327 324 317 315 315 318 316 311 310 312 313 313 320 321 321 319 317 318 319 320 320 320 320 320 319 318 317 315 314 313 314 314 314 306 306 312 311 309 308 307 306
326 323 322 315 314 315 312 314 312 311 311 312 313 315 320 318 315 320 317 319 320 321 321 320 320 319 319 317 318 315 312 311 311 310 309 303 302 307 311 310 309 308 307
325 322 321 321 318 312 312 311 311 313 313 312 316 319 314 318 315 317 323 323 321 321 322 320 320 320 319 319 317 311 310 310 309 307 306 300 302 306 310 309 309 309 307
321 321 315 312 310 310 310 315 316 313 311 313 317 313 318 318 314 317 318 322 322 322 322 320 319 319 319 318 311 310 310 306 301 303 305 301 299 300 303 311 310 309 308
319 319 316 313 314 315 316 315 313 311 310 316 319 314 313 313 313 319 321 322 323 322 320 319 318 318 317 312 310 310 304 301 300 299 304 306 300 299 299 302 308 309 308
318 317 316 315 318 320 320 315 310 315 318 319 313 314 315 314 319 321 322 323 323 322 321 320 320 318 312 310 310 306 303 301 299 298 302 305 305 302 297 299 304 308 308
322 322 322 320 319 320 320 318 318 321 319 318 319 314 321 323 322 322 323 323 323 322 320 320 317 312 311 310 306 304 302 301 298 299 301 301 303 304 306 300 305 305 306
323 324 322 319 319 323 322 314 312 313 317 321 319 322 323 322 322 323 323 323 323 321 320 319 314 311 310 307 305 304 303 303 301 301 301 302 301 302 303 302 299 303 304
325 324 323 321 325 325 324 317 319 317 321 324 323 324 324 324 323 323 324 324 323 320 320 317 311 310 308 306 303 304 305 303 302 302 301 300 300 299 299 299 299 299 298
328 326 326 326 326 326 326 324 321 320 322 325 324 325 323 323 323 323 323 323 322 320 318 315 311 309 308 304 307 307 306 304 303 302 301 300 300 299 299 298 298 298 298
327 328 327 327 327 327 328 327 322 323 322 324 322 322 324 323 324 321 321 321 322 320 318 311 310 308 305 309 308 307 310 306 303 302 302 301 300 299 298 297 297 297 297
327 327 327 328 330 328 329 327 324 325 327 325 324 325 324 324 324 321 321 321 321 319 314 311 309 308 307 308 309 306 306 306 304 303 302 302 300 299 298 297 297 297 296
327 327 327 328 330 329 329 328 326 324 325 326 324 324 324 324 322 321 321 321 320 317 312 311 310 308 310 311 311 308 301 302 302 303 303 301 300 299 298 298 297 297 296
326 327 327 328 330 329 328 328 328 327 326 327 324 323 324 324 321 320 320 319 317 314 312 310 309 308 312 312 308 303 303 302 302 301 300 300 299 299 298 297 297 296 296
329 328 326 326 327 329 329 327 327 326 328 326 324 324 324 323 321 320 317 316 314 312 311 309 306 308 311 307 302 301 301 302 301 300 300 300 299 298 297 297 296 296 295

GFSSE_850_thetae_045.txt.gz
Theta_e
341 336 333 337 338 338 338 337 334 334 334 333 330 323 315 310 311 312 312 311 309 314 324 324 319 315 314 315 315 314 311 311 316 314 309 309 309 311 316 321 325 326 326
341 335 333 341 339 338 338 337 335 334 334 332 324 315 308 309 310 310 308 310 315 318 324 322 315 315 316 316 315 313 313 315 320 321 321 314 309 309 308 309 310 312 323
340 337 335 341 339 338 338 337 335 335 333 325 315 308 308 309 308 308 311 315 319 317 315 314 316 317 316 314 312 310 312 320 321 322 322 322 315 308 310 310 309 309 309
339 338 336 340 340 338 337 336 335 334 325 315 308 308 308 308 309 311 315 319 319 317 315 316 316 316 313 313 312 311 316 320 321 322 323 322 321 309 313 309 310 313 312
338 337 336 338 337 337 336 335 334 325 315 308 308 308 309 310 310 315 317 319 321 319 316 317 316 316 313 314 312 313 320 321 322 322 321 322 321 308 309 311 308 308 308
334 335 331 336 336 336 335 333 324 315 308 308 308 310 310 311 315 316 315 318 320 318 317 316 316 315 314 314 312 311 318 319 321 322 321 318 310 305 305 306 306 306 307
338 333 333 329 333 332 328 323 315 309 308 308 310 310 311 315 315 315 315 316 316 317 316 316 315 315 314 313 311 310 317 318 319 321 320 318 306 305 305 304 304 304 304
338 336 331 327 327 325 320 314 309 308 308 310 310 312 315 315 314 314 315 315 315 315 316 316 316 317 317 316 314 311 316 318 319 321 320 318 306 305 304 304 304 303 303
337 336 327 327 322 318 313 309 308 308 309 310 311 314 315 313 313 314 315 315 316 316 317 319 319 318 319 317 315 312 315 319 320 320 319 317 307 306 306 305 304 304 303
335 331 327 325 321 314 309 308 308 309 310 310 312 313 313 314 314 315 315 317 318 319 319 319 319 319 319 318 315 314 317 318 319 319 319 309 310 310 307 306 306 305 304
333 331 327 327 322 317 311 308 309 311 309 312 313 313 315 315 316 319 318 317 318 319 320 320 320 320 319 318 316 315 316 317 316 317 318 305 311 314 312 309 308 306 306
332 328 327 326 320 312 314 317 314 313 313 314 314 315 317 316 322 323 318 318 319 320 320 320 320 319 320 318 316 316 315 315 314 314 314 303 305 313 313 311 310 307 306
329 330 326 323 319 312 312 311 313 316 320 314 316 319 319 322 323 319 318 319 320 321 320 320 319 320 320 318 317 315 314 314 313 311 310 303 301 309 311 311 310 309 307
326 324 324 320 316 317 318 317 317 319 314 315 318 323 321 324 322 323 323 324 323 323 321 321 321 320 320 319 313 312 312 312 309 308 308 306 299 302 309 309 311 310 309
323 321 318 318 316 316 315 314 317 317 314 316 317 323 323 323 323 324 325 325 325 324 323 321 320 319 320 317 314 313 310 308 306 306 308 306 301 299 301 306 310 311 309
321 320 317 315 315 315 315 315 313 315 316 321 322 321 323 323 323 324 325 325 324 323 323 321 320 319 318 315 313 311 309 306 306 303 306 308 306 301 298 300 309 309 310
318 317 317 317 316 313 312 311 312 315 318 321 320 321 322 323 323 325 326 325 324 323 322 321 320 319 317 314 312 310 307 306 306 303 305 307 307 306 301 298 304 309 310
319 318 316 314 312 314 315 315 316 318 319 318 321 324 324 325 326 325 326 325 324 323 322 321 320 319 315 314 311 309 308 307 306 305 306 305 306 306 307 305 300 305 306
319 317 318 316 318 319 320 323 321 320 321 320 321 324 325 326 325 324 326 325 323 322 322 321 320 317 315 311 310 308 309 308 306 305 305 305 304 304 305 305 301 299 301
322 321 320 320 322 322 323 324 322 320 322 322 322 325 326 326 322 322 325 324 323 322 322 320 318 315 312 310 308 307 309 309 307 306 305 304 303 302 302 302 301 302 300
324 324 324 323 322 323 324 324 322 320 320 322 324 326 327 327 324 324 325 324 323 322 321 319 317 313 311 309 310 313 312 310 309 306 305 304 303 302 301 301 300 300 300
326 326 325 325 325 326 327 327 324 322 320 322 324 326 325 326 326 324 325 324 322 321 320 318 315 313 312 309 312 313 314 312 309 307 305 304 304 303 302 301 300 299 299
326 326 326 326 327 327 328 327 326 323 322 322 324 326 325 326 326 325 325 323 322 320 318 318 316 312 311 311 311 313 311 311 308 308 306 306 305 303 302 301 300 299 299
328 328 328 328 328 327 327 328 327 323 325 327 325 325 327 327 326 325 324 322 320 319 318 316 314 311 310 311 312 312 310 307 306 307 307 306 304 303 302 301 300 299 299
329 329 329 329 328 329 329 328 328 327 326 327 327 327 327 327 325 323 322 320 320 319 316 315 311 310 310 309 312 310 307 307 306 306 306 305 304 302 302 300 300 299 298
326 328 329 329 329 329 330 329 330 329 327 327 327 327 326 325 322 322 321 321 321 319 315 313 310 309 308 308 310 306 306 305 306 305 304 303 303 302 301 300 299 298 298

GFSSE_850_thetae_048.txt.gz
Theta_e
341 336 336 336 338 337 336 336 333 334 333 332 327 320 310 311 312 313 313 311 323 318 320 316 314 313 314 314 312 313 317 320 321 313 309 309 310 312 312 313 319 324 324
337 337 337 337 338 337 336 335 333 334 333 331 323 312 310 311 311 311 309 314 326 319 319 314 315 315 314 312 313 319 322 322 322 322 313 309 309 309 309 309 309 316 324
333 338 340 340 338 337 336 334 334 334 332 326 317 309 310 310 309 309 314 319 325 318 314 316 315 313 311 310 315 321 322 323 323 323 321 318 321 313 309 310 310 309 310
332 335 339 341 341 337 336 334 334 333 329 321 310 309 309 308 309 313 317 318 316 315 316 315 313 312 312 312 317 320 321 322 323 323 322 318 312 314 312 309 309 309 309
338 335 337 340 341 338 336 335 334 333 324 314 308 309 308 309 312 317 317 316 315 316 316 315 313 313 311 315 320 321 322 322 322 318 318 312 307 306 306 306 306 307 307
334 331 334 339 339 339 336 335 334 327 317 308 308 308 309 312 316 318 318 317 315 316 316 315 314 313 311 314 319 319 320 322 321 319 308 306 305 305 305 304 304 304 305
332 333 335 328 338 338 336 335 331 321 309 308 308 310 311 315 317 318 319 317 316 316 316 314 314 313 311 311 318 318 319 321 321 320 312 306 305 305 304 304 304 303 303
336 337 334 334 337 336 335 333 323 312 308 308 310 310 314 316 316 317 317 316 316 316 316 316 316 317 314 311 313 318 320 321 321 320 318 307 305 305 304 304 303 303 303
336 335 332 336 336 334 332 323 313 308 308 310 310 314 316 316 316 316 316 315 315 316 318 318 318 318 314 312 314 318 320 320 320 319 318 306 306 305 305 305 303 304 303
335 336 330 332 331 327 323 317 310 309 310 310 313 316 315 315 315 315 315 316 317 319 319 319 319 318 315 312 316 317 318 318 319 320 319 306 307 308 306 306 304 304 304
336 334 328 327 326 326 320 314 313 310 311 315 317 315 314 315 315 315 317 318 318 319 319 320 320 319 316 313 315 316 316 316 316 316 317 307 305 310 310 308 306 305 305
334 329 326 327 324 322 322 311 310 312 316 316 314 314 315 315 316 316 317 318 319 320 319 320 319 320 320 318 316 316 314 314 313 313 313 308 303 312 313 311 308 306 306
331 330 326 325 323 320 318 313 314 313 313 315 315 316 317 319 321 318 317 318 319 320 320 319 320 321 320 318 314 313 313 313 312 311 310 308 301 307 310 310 308 308 307
329 327 325 324 321 318 317 315 313 312 316 317 322 321 322 323 322 318 318 319 320 321 320 321 321 321 320 318 312 312 311 311 308 308 307 307 303 300 301 309 311 312 310
327 326 324 321 318 318 315 314 315 316 317 320 319 322 318 319 321 320 323 324 322 323 322 322 322 320 320 316 312 312 310 309 307 306 307 307 306 301 300 306 311 312 311
323 322 319 315 313 312 315 318 317 317 314 316 316 316 321 323 324 324 325 325 324 325 323 322 321 320 319 315 312 311 310 309 309 305 306 307 307 306 300 301 310 311 311
321 320 318 316 318 316 316 315 313 314 315 316 317 323 322 324 323 323 324 325 325 324 323 322 321 320 319 315 314 311 310 312 310 308 305 307 307 306 306 304 300 310 311
319 318 318 317 317 317 316 316 314 317 313 318 321 321 321 323 323 325 325 326 324 323 323 322 321 320 318 315 313 310 308 309 309 309 308 306 307 306 307 307 304 302 306
318 318 318 318 317 316 314 314 313 315 315 314 311 314 320 320 325 323 326 325 325 323 323 322 321 320 317 315 312 311 309 310 309 308 307 307 305 304 305 304 303 301 301
318 318 317 316 315 313 312 315 319 320 321 321 321 321 323 323 321 322 324 325 323 323 323 322 321 319 317 314 311 308 307 311 311 310 309 307 304 304 304 302 302 301 301
318 318 316 315 314 314 314 314 321 321 321 320 321 321 324 323 321 322 323 325 323 323 323 322 321 318 316 313 311 310 313 313 313 311 309 306 305 304 303 303 301 301 301
322 320 318 318 320 320 319 321 323 322 319 321 322 323 325 326 324 323 323 326 324 323 323 322 320 319 316 313 311 313 313 313 311 311 310 307 305 305 303 302 301 301 300
324 324 324 322 321 322 322 321 325 322 321 320 322 323 325 326 324 324 324 325 325 323 322 321 320 318 314 312 310 311 313 312 311 309 308 307 305 305 304 303 302 301 300
325 325 325 325 324 322 324 326 325 325 323 321 321 325 325 324 324 324 326 325 325 323 321 321 320 318 313 312 312 311 312 311 308 307 308 307 306 305 304 302 301 301 300
327 327 325 326 325 326 325 329 327 327 323 323 323 323 325 325 324 326 326 325 324 323 321 320 318 317 313 311 312 312 311 309 308 307 306 306 306 305 303 302 301 300 300
329 328 327 326 326 328 327 325 328 327 326 325 328 327 326 326 326 326 326 324 324 322 321 318 317 314 312 310 310 310 309 307 306 306 306 305 304 304 303 302 301 300 300

GFSSE_850_thetae_051.txt.gz
Theta_e
338 339 338 337 331 333 332 331 331 331 330 326 319 310 311 314 322 322 313 312 317 317 313 312 312 312 312 315 319 321 321 321 311 309 309 309 309 309 313 319 323 325 324
337 339 338 338 331 331 330 331 332 331 330 323 313 309 311 312 312 311 315 317 317 314 313 314 313 312 317 321 322 323 323 322 321 312 308 309 310 310 309 310 315 321 323
329 329 340 339 333 331 330 331 332 331 328 320 310 310 311 310 310 326 318 318 314 314 314 311 310 313 320 321 322 322 323 324 323 318 309 311 310 308 308 308 308 309 312
328 327 329 339 335 332 330 332 332 331 325 315 309 310 310 309 313 323 319 315 314 314 311 311 311 313 320 321 322 322 323 323 322 313 307 307 307 307 307 307 307 307 308
328 330 333 337 337 333 331 332 332 330 321 310 310 309 309 312 315 319 314 314 314 313 313 312 311 317 320 321 321 321 321 320 312 307 306 306 305 305 305 305 305 306 308
335 334 333 332 337 335 333 332 332 326 316 308 309 309 310 314 316 315 314 314 314 314 313 312 310 318 320 319 319 322 321 321 314 309 307 306 305 305 304 304 304 305 308
338 337 336 335 337 338 334 332 330 322 310 309 308 309 312 316 316 315 314 315 315 314 313 312 310 316 319 318 320 321 321 321 319 313 308 307 305 305 304 303 303 303 304
337 335 335 334 334 327 332 331 326 315 309 308 309 311 315 317 317 315 314 315 315 315 315 315 312 311 318 318 319 321 321 320 319 318 314 306 305 304 304 303 303 303 303
334 335 330 328 328 325 333 328 319 309 308 309 310 314 316 317 317 315 315 315 317 318 318 318 314 311 311 318 320 320 320 320 320 320 317 306 306 304 304 303 303 303 303
336 336 334 335 335 334 328 323 311 308 308 310 313 316 316 317 316 316 315 316 319 318 319 318 315 311 315 318 319 318 316 319 319 318 317 309 306 306 305 304 304 304 304
336 335 336 335 334 326 321 315 310 310 310 313 316 316 317 317 317 315 316 317 319 319 319 319 316 313 313 315 315 317 315 315 315 315 313 310 305 306 307 307 306 305 305
334 334 333 333 332 329 325 319 308 311 313 317 316 316 316 315 315 316 317 318 319 319 319 319 319 319 317 316 314 315 314 313 313 312 311 308 303 305 305 307 307 307 306
333 332 330 329 327 326 319 310 311 312 317 317 315 315 315 315 316 317 318 319 319 319 319 320 320 320 319 317 315 313 313 313 312 310 308 306 302 305 309 309 309 307 307
331 329 328 327 325 322 316 311 311 316 315 316 316 315 315 317 317 317 318 319 319 320 319 320 321 320 319 318 312 312 311 311 309 308 307 307 306 302 303 304 308 309 309
330 328 327 325 323 318 315 310 311 312 314 316 318 321 318 316 318 317 317 318 320 321 320 321 321 321 320 319 311 312 311 310 308 307 308 308 308 307 302 302 309 312 312
325 325 324 322 320 315 312 314 315 315 315 321 320 318 317 321 319 318 322 323 323 323 323 322 322 321 320 317 311 312 311 310 307 309 309 308 308 308 306 300 306 311 312
322 321 322 323 318 315 318 315 314 313 319 320 319 317 320 322 321 324 324 324 325 324 324 323 322 320 319 318 314 312 311 310 312 312 311 310 308 308 306 306 302 307 312
323 320 319 319 319 317 316 318 317 318 319 317 315 316 318 320 322 323 324 324 323 324 324 323 321 321 319 318 314 313 311 311 312 311 310 309 307 307 306 306 305 302 307
320 320 319 318 317 316 317 318 317 315 314 314 315 316 317 323 324 323 324 324 324 324 323 323 322 321 320 316 314 313 311 310 309 312 313 311 307 306 304 304 305 303 302
319 318 318 319 314 316 318 317 316 313 313 314 316 316 317 318 322 322 323 322 324 323 323 323 322 321 320 317 315 312 311 307 311 313 313 311 309 306 304 304 303 302 302
318 318 318 319 317 316 317 315 314 316 317 315 315 314 315 315 316 319 322 323 324 321 322 322 322 321 320 317 315 312 308 309 313 314 312 311 308 306 305 304 304 303 301
318 318 318 317 317 316 314 313 314 315 318 319 315 318 321 321 321 322 320 321 323 321 323 323 322 322 320 318 315 312 311 313 313 313 312 311 308 306 305 305 304 303 302
318 317 316 315 315 314 314 314 316 321 322 320 319 320 321 321 324 323 323 320 322 321 323 323 323 322 320 319 316 313 313 313 311 311 309 309 308 306 306 305 304 302 302
320 318 318 316 315 315 316 316 317 322 324 321 318 320 322 324 324 324 322 322 323 324 323 323 322 322 320 318 314 312 310 311 312 309 309 308 307 306 306 306 305 302 301
323 323 322 319 319 319 319 320 320 321 323 322 321 319 321 322 323 323 322 322 324 324 325 323 322 321 320 316 313 312 311 311 311 308 307 306 306 306 306 306 304 302 302
324 323 323 324 323 322 318 321 323 323 325 324 323 322 320 323 324 324 321 322 323 325 324 323 322 321 319 317 314 312 312 312 309 308 308 307 306 306 304 304 302 302 302

GFSSE_850_thetae_054.txt.gz
Theta_e
341 336 329 325 324 326 328 325 327 329 328 321 314 310 312 317 320 322 311 311 316 314 310 310 313 314 316 317 317 313 310 309 309 309 309 310 315 319 322 324 324 325 325
339 338 334 328 326 326 327 326 327 328 323 315 310 312 317 322 324 311 312 315 313 312 312 314 317 319 321 322 322 320 315 312 308 308 310 316 309 310 313 316 323 323 323
338 335 333 334 330 326 328 327 328 327 319 310 310 313 319 317 310 313 316 313 313 313 313 318 320 321 322 323 324 319 316 313 308 308 308 309 313 309 308 308 311 320 324
332 331 332 326 333 328 329 328 328 325 315 310 311 311 310 311 313 316 313 314 312 310 314 319 321 322 322 322 322 320 319 311 307 307 307 306 307 307 307 307 309 309 314
330 335 332 332 334 332 329 329 328 322 312 311 311 310 310 315 316 314 314 312 311 311 313 319 321 321 321 321 321 319 311 308 308 307 307 306 306 305 305 305 307 312 311
328 338 336 330 325 328 330 330 327 319 311 311 310 310 316 318 314 314 313 312 313 311 314 319 321 321 321 321 321 321 320 316 309 308 307 306 306 307 305 305 306 308 312
329 329 329 329 333 334 331 329 325 315 311 310 309 312 315 315 313 313 313 313 312 310 315 320 320 318 320 321 321 320 320 318 316 307 306 306 305 304 304 304 304 303 303
333 333 332 331 331 334 332 329 321 312 310 309 311 315 315 314 314 314 314 313 312 311 312 319 318 319 320 321 321 320 319 319 318 314 307 306 305 304 304 304 303 303 303
333 335 334 335 336 335 329 325 322 313 309 310 315 317 315 314 314 315 315 315 316 315 311 313 318 318 319 319 320 320 320 320 318 317 313 307 307 305 304 303 303 303 302
333 334 335 335 331 329 328 327 321 310 309 311 316 318 317 315 314 315 316 318 318 318 314 311 312 318 320 318 319 318 318 317 316 314 311 307 306 306 305 304 304 303 302
334 333 330 330 329 331 328 324 316 310 311 315 317 317 317 316 315 315 318 318 319 318 316 311 314 316 319 318 318 317 315 315 314 311 309 306 305 305 305 305 305 305 304
334 335 333 331 330 328 325 321 313 309 311 318 318 318 317 316 315 316 318 318 319 319 317 314 314 314 314 315 315 315 314 313 312 310 308 306 305 305 305 306 309 312 311
334 334 333 332 331 327 326 322 310 312 317 317 317 317 316 315 316 317 319 319 319 319 318 318 319 317 315 314 313 313 312 312 311 309 308 308 307 304 307 306 311 312 310
333 333 332 329 327 326 322 312 315 314 317 316 316 316 315 316 317 317 318 319 319 319 319 320 320 319 318 317 312 312 312 311 309 309 310 309 308 306 305 311 311 310 310
331 331 331 328 325 319 312 312 315 317 317 316 315 315 315 317 315 315 318 318 319 319 319 320 320 320 320 319 314 312 311 310 309 310 311 309 309 308 305 304 308 313 313
330 330 329 327 324 316 313 318 317 317 316 315 315 317 317 315 315 316 315 316 319 320 320 321 321 321 320 319 313 312 311 310 312 312 311 310 310 309 308 305 304 310 312
329 328 327 327 324 318 316 317 317 317 316 315 319 320 315 315 318 317 318 321 321 322 322 323 322 321 320 319 315 312 311 311 312 312 311 311 312 310 308 306 306 304 310
325 326 326 323 321 319 313 314 318 318 321 319 321 318 316 316 316 321 322 321 322 323 324 324 323 322 321 320 319 315 312 311 311 311 311 313 313 310 308 306 305 304 304
322 323 323 320 318 314 313 317 318 317 317 319 317 316 317 319 322 322 323 322 323 324 324 323 323 322 321 320 317 315 315 312 309 309 312 313 312 311 308 307 305 305 304
320 320 321 321 317 316 318 317 315 314 318 319 317 316 316 321 323 321 322 323 322 323 324 323 323 322 321 320 317 315 314 312 309 308 313 313 312 311 308 306 306 305 304
320 320 320 320 319 317 316 314 314 313 317 316 315 315 316 319 320 318 322 322 321 321 321 323 322 322 322 320 318 315 313 311 309 309 313 313 312 311 309 307 306 305 304
319 319 318 319 318 316 316 317 317 317 316 315 316 315 316 316 316 315 315 317 317 318 319 322 323 322 322 321 319 316 313 311 309 310 312 312 311 310 309 307 306 305 305
318 318 319 318 317 316 318 317 316 316 314 315 314 314 315 315 315 317 319 318 319 321 320 322 322 322 322 322 320 317 312 312 312 312 313 311 309 310 309 307 306 306 305
318 318 318 319 317 316 318 316 316 315 315 316 315 314 314 314 316 320 321 323 323 321 320 321 322 322 322 322 320 319 315 313 312 311 311 311 309 309 308 307 306 305 305
317 317 317 317 318 318 316 314 314 314 316 317 317 315 315 314 319 321 321 324 323 321 321 321 322 322 323 322 321 320 313 310 311 311 311 312 309 308 307 306 306 306 305
318 317 316 314 316 317 315 314 314 316 319 319 317 320 318 316 321 322 323 322 321 322 321 322 323 323 323 322 321 318 316 315 311 311 312 309 308 310 308 306 305 305 304

GFSSE_850_thetae_057.txt.gz
Theta_e
340 329 324 323 326 327 330 330 328 325 324 328 331 334 330 327 322 320 315 310 321 323 320 313 310 310 309 309 309 310 310 309 309 314 325 327 330 324 324 324 324 324 325
341 333 325 324 326 327 329 329 327 326 324 320 325 327 327 324 320 310 309 314 316 311 311 313 315 315 314 312 311 308 308 309 311 313 310 317 326 323 323 322 325 325 324
339 330 327 326 326 326 327 326 326 326 322 315 317 320 320 319 312 313 315 313 311 311 315 316 317 319 318 314 313 310 308 308 308 308 309 309 313 314 317 321 324 323 322
336 330 326 327 330 330 327 326 326 322 314 316 317 319 319 312 313 314 313 312 312 315 317 317 318 320 319 317 315 308 307 307 307 307 307 307 309 318 315 313 314 318 322
337 335 332 333 331 327 325 329 326 318 312 322 323 319 313 314 315 313 313 312 314 317 319 320 320 320 319 314 311 312 308 307 307 307 307 306 307 312 312 312 316 317 315
332 331 330 329 327 328 330 328 326 317 312 320 317 314 315 315 313 313 311 310 315 318 320 320 320 320 320 320 319 314 311 307 307 307 306 306 307 312 308 306 307 308 306
335 330 333 329 331 331 329 331 331 315 313 319 319 316 316 313 313 311 311 311 315 320 320 320 321 321 321 320 319 317 317 310 306 306 306 305 307 307 305 304 304 305 307
329 333 336 333 331 332 332 331 324 316 311 319 326 319 314 314 312 312 312 311 317 320 319 318 320 321 321 320 319 318 318 316 313 309 308 307 306 305 306 304 304 303 303
330 334 335 331 329 330 326 324 321 318 312 322 326 318 314 313 313 312 311 313 319 320 317 319 319 320 320 320 319 319 317 315 313 310 307 307 306 305 305 304 303 302 302
333 332 332 334 334 332 326 324 322 312 314 322 324 315 315 314 313 312 312 311 315 318 317 319 319 319 318 318 318 317 315 314 311 309 307 306 306 306 306 305 304 303 302
333 331 332 332 332 331 327 325 315 314 317 320 322 315 315 314 314 315 316 315 311 312 315 317 318 319 319 318 317 315 314 312 310 308 308 307 307 306 306 305 305 305 304
331 330 332 332 330 328 326 325 316 311 316 322 322 318 315 315 316 317 318 318 314 311 311 315 318 318 318 316 315 314 312 311 309 308 309 310 308 307 306 306 306 307 307
325 331 331 330 330 328 324 317 315 313 314 317 319 317 316 315 317 318 318 318 317 314 312 314 316 316 313 312 313 313 312 311 309 309 311 310 310 310 308 310 310 310 309
331 331 330 330 329 326 324 322 319 314 316 317 319 319 316 316 318 318 319 318 318 317 316 316 316 315 314 313 312 312 311 310 309 310 311 310 310 309 309 310 315 313 310
330 329 330 330 327 326 325 324 316 312 313 315 320 319 315 316 318 318 318 319 319 319 319 319 319 318 318 317 314 312 311 310 309 310 310 311 312 309 309 312 316 314 311
328 328 329 328 326 325 323 318 314 315 316 320 319 317 315 317 317 318 319 319 319 319 319 320 320 320 320 319 318 312 311 311 311 311 311 312 314 310 308 311 312 314 313
327 326 327 327 326 326 324 315 318 322 322 320 318 316 316 316 316 316 318 319 319 319 320 321 321 321 320 319 318 311 311 311 311 311 311 312 314 310 308 307 306 307 311
327 327 328 325 323 320 317 317 319 319 318 316 315 316 316 315 316 317 317 318 319 321 321 322 322 322 321 320 318 318 313 311 310 310 310 312 313 311 309 307 306 306 305
325 325 325 324 325 320 316 318 320 317 315 319 320 317 317 318 316 318 319 321 321 322 322 323 323 322 322 321 320 318 315 314 312 310 309 312 313 312 310 308 307 306 305
322 323 324 322 323 323 321 319 319 321 318 320 318 315 318 320 318 319 319 320 320 321 321 323 323 323 322 321 321 319 316 314 313 311 308 311 313 312 311 309 307 306 306
319 322 322 321 320 319 315 314 319 321 321 316 316 321 320 318 317 319 322 319 319 321 320 322 323 323 322 321 321 319 317 314 313 312 310 309 312 313 311 310 308 307 306
319 319 320 321 319 315 314 318 319 322 321 317 316 316 319 319 319 320 321 321 322 321 321 321 322 323 322 322 321 320 317 315 314 312 310 308 311 312 311 310 309 307 306
318 317 318 320 320 315 313 314 317 317 316 316 317 316 316 317 319 318 315 316 316 316 319 319 320 322 322 322 322 321 315 315 315 315 311 309 311 312 310 310 309 308 307
319 319 318 319 320 318 317 317 316 314 315 316 316 317 315 315 315 316 315 315 316 319 318 318 319 319 322 322 322 321 318 318 315 312 313 313 312 311 311 309 309 308 306
318 319 319 318 319 318 317 317 316 314 315 314 315 316 315 315 315 315 315 313 319 322 323 323 321 320 321 322 322 322 320 318 316 313 313 313 311 313 310 309 308 307 306
316 317 318 319 319 318 318 317 317 317 317 316 316 315 315 314 314 315 313 314 320 321 322 323 323 322 322 322 322 322 322 320 318 318 314 312 311 312 311 309 308 307 306

GFSSE_850_thetae_063.txt.gz
Theta_e
336 334 334 333 332 331 333 329 335 336 336 335 332 328 323 320 319 318 319 319 325 324 326 321 324 324 325 319 323 323 325 326 326 327 327 327 326 326 326 328 329 327 328
334 333 333 333 331 332 329 332 335 335 336 335 333 329 322 320 320 320 321 325 326 326 324 312 320 314 312 312 319 322 323 325 325 326 326 326 325 322 324 327 326 326 328
333 331 332 332 331 329 330 332 333 334 335 333 331 332 324 321 321 320 321 326 327 324 311 311 317 316 316 309 310 312 316 314 317 321 325 324 324 321 323 322 323 323 324
335 331 330 329 328 327 329 330 329 327 330 333 332 328 326 322 321 322 326 327 325 312 310 310 309 309 308 308 308 308 308 308 309 313 321 322 319 315 320 321 320 322 321
334 331 330 327 326 326 327 328 328 325 325 332 332 327 325 321 321 323 323 321 314 314 316 311 308 308 308 308 308 307 308 308 308 311 318 313 317 317 314 312 314 312 310
337 333 327 329 329 327 327 327 326 326 329 333 331 326 323 319 315 320 317 322 323 326 322 310 309 309 308 308 307 307 307 307 307 309 312 315 318 315 313 313 309 310 308
336 335 328 330 326 329 329 325 327 327 329 330 327 324 320 313 313 316 324 324 324 322 312 313 310 310 307 307 306 306 306 307 308 308 313 315 315 314 314 309 307 306 305
337 329 330 329 327 327 325 326 325 326 325 324 323 320 315 315 318 321 325 318 318 316 314 316 314 314 311 310 310 309 309 308 308 308 315 317 315 311 313 306 305 304 303
334 331 329 327 327 326 326 327 328 322 322 318 319 316 314 315 320 325 319 319 319 318 318 317 316 317 314 313 312 310 308 308 307 308 316 317 308 308 306 305 304 303 303
332 331 330 327 327 327 329 327 328 327 323 321 318 316 314 315 321 321 319 318 320 320 319 318 318 317 315 314 312 309 307 307 308 308 315 309 308 308 307 306 305 304 304
329 330 332 331 328 328 330 328 326 324 324 321 317 316 315 319 320 319 319 319 319 320 320 319 318 317 314 313 311 309 308 309 310 310 313 310 310 308 308 307 306 305 304
329 329 330 331 332 331 329 327 321 322 316 316 315 316 315 315 316 319 318 318 319 320 320 318 317 316 314 313 311 309 309 310 311 312 312 312 313 311 309 308 308 307 306
327 325 324 327 331 330 330 324 326 325 322 319 320 314 313 316 318 319 318 318 318 318 318 318 317 316 314 312 311 310 309 311 311 312 312 312 312 313 311 310 309 308 309
327 326 328 329 327 327 326 326 327 322 320 321 318 314 312 315 318 319 318 317 317 318 317 318 317 314 313 312 312 310 309 311 311 311 312 312 311 312 313 311 310 310 311
327 327 325 326 326 326 323 324 324 320 322 320 318 313 312 314 317 318 318 317 317 317 316 317 314 312 312 312 312 311 309 310 311 311 311 312 311 311 313 314 314 313 312
327 327 325 323 325 326 323 324 322 319 318 318 317 315 312 311 311 312 312 312 314 314 315 315 313 312 313 312 311 311 310 309 310 311 310 312 311 309 309 313 314 314 314
327 327 326 324 325 326 323 321 320 321 321 318 317 316 313 314 316 314 312 312 313 313 316 317 316 318 319 319 315 311 310 310 310 311 311 311 313 311 309 308 309 313 314
325 327 326 327 326 326 322 321 317 318 320 318 319 317 314 317 318 316 315 313 314 317 319 319 320 320 319 319 318 315 311 310 310 310 310 310 312 312 310 309 308 310 313
325 325 326 326 327 324 321 317 317 318 319 318 317 317 315 317 318 318 318 317 318 319 319 320 320 321 321 320 319 318 318 315 313 310 311 309 310 312 312 311 309 307 307
324 325 326 324 325 324 323 322 318 319 318 318 316 315 317 316 317 318 318 319 319 319 319 320 321 321 321 321 321 321 320 320 317 315 314 312 308 310 312 312 311 309 308
323 324 324 325 325 324 319 318 316 315 315 319 319 317 319 316 317 318 318 318 319 319 319 320 320 320 321 321 321 321 321 320 320 318 316 314 313 312 309 311 312 311 310
323 323 324 325 324 324 321 321 319 318 316 316 319 320 317 318 317 317 318 318 319 319 317 320 319 320 321 321 322 321 320 320 321 321 320 318 315 314 312 309 310 311 310
321 322 322 323 324 324 323 322 317 318 322 316 320 318 316 317 316 317 317 318 320 320 318 319 320 320 319 318 320 321 320 320 320 320 320 319 317 315 313 310 314 310 310
319 320 320 322 323 322 321 321 316 321 315 321 322 321 319 317 318 319 319 316 319 318 319 319 318 319 318 318 320 321 321 321 320 320 319 319 318 318 313 313 314 310 312
318 319 319 319 320 321 321 319 320 314 318 319 318 317 317 320 319 318 316 317 317 317 317 316 316 318 319 319 320 320 321 321 321 320 319 318 319 317 316 316 314 312 312
317 318 319 319 319 320 321 318 320 315 319 318 319 317 319 317 315 315 315 317 316 316 315 315 315 316 318 321 321 322 322 321 321 320 319 318 317 318 315 316 312 312 312

GFSSE_850_thetae_066.txt.gz
Theta_e
342 345 336 335 334 332 330 333 337 335 331 331 328 325 324 326 318 318 318 318 323 330 330 328 329 329 330 329 328 327 325 326 327 327 328 329 329 328 329 329 329 329 330
342 344 335 334 333 333 333 333 336 334 333 331 328 325 322 321 318 318 317 319 329 332 328 325 326 323 324 322 323 324 326 328 328 327 327 328 327 329 329 329 329 330 329
341 343 334 333 334 334 335 335 333 334 334 331 328 323 320 320 320 322 320 324 325 329 325 316 315 317 314 320 324 326 325 326 326 326 326 327 328 327 327 328 328 328 327
341 340 336 334 334 333 335 331 335 335 335 331 327 322 320 320 320 321 324 325 326 320 313 315 311 309 313 319 322 321 323 324 321 324 324 325 325 324 324 323 323 323 323
340 340 337 335 333 332 330 335 336 335 335 332 328 323 321 321 321 320 325 326 324 311 311 317 309 308 310 315 313 310 311 313 319 322 322 322 323 321 317 317 315 315 313
341 339 337 333 330 332 333 336 335 336 334 332 329 323 322 322 323 324 325 325 313 310 310 308 308 309 309 308 308 308 309 311 321 321 321 320 321 309 306 306 306 306 306
339 338 337 330 330 325 333 336 334 331 333 331 329 324 323 323 326 324 322 315 316 311 308 308 308 308 307 307 307 307 309 320 321 321 321 321 318 311 307 305 304 304 303
338 337 335 330 326 323 329 330 330 329 331 332 328 326 323 321 323 320 320 321 325 310 309 308 308 307 307 307 307 307 309 319 320 321 320 320 316 313 308 305 304 303 303
336 336 334 331 325 329 329 330 330 328 332 332 327 325 322 316 318 320 323 324 326 312 311 309 307 308 309 309 309 308 311 319 320 320 320 319 312 312 307 305 304 304 304
334 334 332 331 329 329 329 330 330 332 333 330 325 322 317 314 315 318 315 322 314 315 315 315 313 312 311 310 308 308 309 318 320 320 320 317 314 314 308 306 305 304 304
332 332 332 331 329 329 330 328 328 328 329 327 323 318 317 323 314 316 317 317 317 317 317 317 315 313 311 309 307 308 318 319 320 320 319 312 312 311 308 306 305 305 304
332 331 330 331 328 327 329 328 328 328 327 323 321 319 316 323 320 323 318 319 319 319 318 317 315 313 313 309 308 314 318 320 321 320 318 313 312 311 309 308 307 306 305
330 330 330 331 331 327 327 327 328 329 326 324 318 317 320 323 325 319 318 320 320 319 319 318 315 317 318 316 314 317 317 320 320 319 314 314 315 314 311 310 308 308 307
329 326 326 325 325 329 327 328 328 328 325 321 322 317 321 325 321 320 323 324 323 322 321 320 320 320 318 317 316 311 318 319 320 320 313 312 314 316 315 311 310 308 309
325 327 326 325 326 325 327 328 329 325 323 321 318 317 321 320 319 319 324 324 324 324 323 322 321 318 317 316 314 313 317 318 319 319 318 312 312 315 316 316 313 310 309
327 326 324 326 326 326 326 325 325 322 319 320 319 316 320 315 317 318 319 321 322 324 323 322 320 318 318 317 314 313 313 316 316 319 319 313 311 314 317 316 316 315 314
327 327 324 324 326 325 325 324 324 324 322 324 320 318 315 312 313 318 318 318 320 321 320 320 318 318 317 316 312 311 310 310 313 313 318 319 313 310 313 315 315 315 315
327 327 324 323 323 325 324 324 324 323 320 319 319 315 312 314 315 318 317 318 319 315 317 314 317 319 318 317 314 311 311 310 310 311 312 315 317 317 309 309 314 315 315
326 326 325 325 326 325 324 323 323 322 319 318 315 317 312 312 313 313 313 314 313 314 316 317 318 319 318 317 316 314 313 312 310 310 310 310 310 312 314 311 308 308 312
325 326 326 326 326 325 323 322 321 320 319 318 316 320 312 315 316 315 313 312 314 316 321 320 320 320 320 318 316 318 319 318 316 314 311 312 310 310 312 312 311 309 308
324 325 326 326 326 324 323 321 319 320 321 317 319 320 313 314 316 315 315 314 314 319 321 320 320 321 321 320 319 320 321 320 320 319 317 315 315 312 310 310 312 312 312
323 324 325 325 324 325 323 320 320 318 321 318 317 321 317 315 316 318 318 318 318 318 319 319 320 320 321 320 321 322 322 320 321 321 320 321 318 314 313 311 310 310 312
322 323 325 324 325 325 324 321 320 318 319 319 317 316 316 317 316 317 318 318 319 319 319 320 320 319 322 321 321 321 322 321 322 320 320 319 318 319 315 316 312 309 309
322 322 324 324 324 324 324 322 320 319 317 321 319 317 315 315 320 317 317 318 318 318 319 320 320 320 320 321 321 320 321 321 320 320 319 319 319 319 318 316 318 314 312
321 321 322 322 323 324 324 321 321 318 317 319 320 319 315 317 320 317 317 317 317 318 319 319 321 320 317 317 321 320 320 321 321 321 320 321 319 319 319 319 318 316 311
321 321 321 321 322 323 323 323 322 320 319 319 320 317 319 318 318 317 317 316 319 317 317 317 318 318 317 317 318 322 322 322 322 322 320 321 320 319 319 319 317 315 315

GFSSE_850_thetae_069.txt.gz
Theta_e
341 344 339 335 338 339 338 337 335 332 329 328 328 325 324 321 319 318 317 318 319 326 328 329 330 331 331 328 324 322 325 326 328 328 329 329 330 330 330 329 330 330 329
342 344 339 334 337 339 339 337 335 332 329 328 328 325 322 319 319 318 318 319 330 331 329 329 330 329 328 328 326 325 326 327 327 328 327 329 330 330 330 331 331 330 331
342 346 341 335 334 340 340 338 335 332 330 330 327 326 321 320 322 319 316 330 330 328 324 324 324 324 326 324 323 325 327 327 327 327 329 329 330 328 329 330 329 329 329
342 344 341 335 335 339 339 337 335 333 329 331 328 324 321 325 326 322 319 329 329 318 317 319 325 317 321 324 326 328 326 323 325 327 327 327 327 327 327 328 326 323 324
341 342 341 335 336 339 340 337 336 333 330 331 328 323 319 324 327 328 326 323 325 315 311 317 316 316 320 324 324 325 322 324 323 325 325 325 324 324 322 321 320 320 318
342 342 340 337 336 337 336 337 337 334 332 331 329 322 320 322 325 326 327 325 321 313 316 314 310 314 318 320 318 319 319 323 323 323 324 323 322 316 312 310 309 308 308
341 340 340 338 336 335 326 335 336 335 334 331 329 323 322 322 326 326 327 324 312 311 312 310 309 310 312 310 311 315 322 321 322 322 322 321 313 306 305 305 305 305 304
338 339 339 337 335 332 332 325 322 336 334 331 328 322 322 323 326 327 324 315 311 309 309 308 308 308 308 309 310 318 321 322 322 322 322 319 306 305 305 304 303 303 302
331 337 338 338 333 331 329 325 324 334 334 330 327 323 323 324 325 324 322 315 310 308 308 308 308 308 307 307 310 318 321 322 322 321 320 317 309 308 306 305 304 303 303
332 332 336 336 335 330 327 324 327 333 332 331 326 324 325 325 323 321 324 323 309 309 309 308 307 307 307 308 310 318 320 321 322 321 321 311 308 310 308 306 305 305 305
333 332 333 335 335 333 331 329 330 325 333 331 327 326 325 324 323 323 326 324 311 310 308 308 310 310 309 308 312 319 321 322 321 321 318 310 311 310 307 306 305 305 305
334 333 333 333 333 333 333 331 330 332 331 331 329 325 322 322 325 324 325 319 313 314 313 312 312 310 309 308 318 320 322 322 322 320 314 311 311 311 309 307 306 305 306
331 328 332 332 332 334 331 330 331 331 332 330 328 323 319 324 325 323 322 315 316 317 316 314 312 315 317 315 319 321 322 322 322 321 314 314 314 313 310 309 308 307 307
329 331 331 330 331 332 331 331 330 328 330 329 326 321 321 322 322 324 319 317 317 318 317 314 318 320 319 317 319 321 322 322 321 320 313 313 315 313 311 309 309 309 309
330 330 326 327 327 328 328 329 329 329 329 327 325 321 320 321 321 321 321 320 319 322 320 320 322 321 320 319 319 320 321 322 322 321 315 313 314 313 314 312 310 309 308
331 327 325 324 324 326 326 327 328 328 328 325 324 319 320 322 322 323 324 324 323 323 323 322 322 321 320 319 318 319 320 321 321 321 318 313 313 316 316 315 314 313 312
328 328 325 324 325 324 326 326 325 325 326 322 322 322 320 317 321 324 325 324 323 324 323 323 322 320 320 319 318 318 319 320 320 321 320 316 312 313 317 316 316 315 315
327 327 326 325 325 325 324 324 325 325 326 323 321 319 318 317 317 323 324 324 324 324 324 322 321 319 319 319 318 317 317 317 318 318 320 320 318 316 311 315 316 316 316
326 326 327 324 324 324 325 325 324 324 323 321 320 318 320 321 319 317 321 322 322 322 322 321 320 320 320 319 317 316 315 315 315 315 316 317 319 319 317 313 310 313 316
326 327 327 324 325 325 324 324 324 323 323 322 318 315 320 321 320 320 320 321 321 321 320 320 320 321 321 320 318 317 315 315 314 313 313 312 312 311 315 315 313 310 309
325 326 326 325 325 325 324 324 324 322 322 320 316 313 312 319 320 317 318 317 318 319 320 320 321 322 321 321 319 318 318 318 317 316 315 315 314 314 311 311 313 312 312
323 324 326 326 326 325 324 323 323 322 321 318 315 314 320 320 318 315 315 315 316 314 322 322 323 323 323 321 321 321 321 320 319 320 317 317 316 315 314 314 313 312 314
323 324 324 325 326 325 324 323 322 321 320 318 316 317 319 321 320 317 318 316 314 316 323 322 323 323 321 322 321 322 321 322 323 322 320 319 318 318 315 314 315 313 312
323 324 324 324 324 324 323 322 322 321 321 319 316 316 320 316 317 316 317 317 315 319 323 323 321 322 320 320 321 321 321 323 323 322 322 320 319 318 319 317 316 317 317
323 324 325 324 325 324 324 323 321 321 322 321 318 316 321 320 317 316 317 317 318 319 320 320 320 320 320 319 319 320 323 322 322 322 321 321 320 319 318 319 319 318 319
326 322 324 324 324 324 324 323 324 323 321 320 319 318 318 319 317 318 316 316 318 318 318 318 319 319 319 319 319 321 322 322 322 322 322 322 322 321 320 319 319 319 318

GFSSE_850_thetae_072.txt.gz
Theta_e
342 339 342 338 338 337 336 334 331 329 328 328 326 324 323 323 322 320 319 318 316 318 321 321 317 322 326 327 329 329 324 324 323 324 327 329 330 330 330 328 328 329 330
344 340 343 338 338 338 336 334 331 329 328 327 326 324 323 321 319 318 317 316 318 327 330 330 329 324 321 323 324 323 324 327 328 328 330 332 330 330 330 328 329 330 330
345 340 342 337 338 338 337 335 332 329 328 327 327 325 321 319 318 319 318 318 324 329 330 330 331 329 326 324 322 325 327 327 328 329 330 330 330 330 330 329 330 329 329
344 344 339 338 336 338 339 338 334 330 329 328 327 325 320 319 320 324 329 328 325 328 330 329 330 326 324 324 325 326 325 325 326 327 330 329 330 329 329 328 328 328 327
335 343 342 339 335 336 340 341 337 332 329 328 328 325 320 320 323 327 329 330 324 320 329 329 318 322 324 326 325 324 326 327 327 326 325 327 329 326 326 323 322 320 319
339 343 340 341 336 335 340 340 340 334 331 329 329 324 321 322 320 327 329 330 323 323 328 324 317 322 324 325 322 322 323 324 325 325 323 321 323 324 316 314 313 312 312
337 341 341 340 340 335 339 339 339 337 333 330 329 323 322 322 324 325 329 329 322 312 317 311 317 319 320 321 321 323 323 323 323 323 320 315 321 313 309 307 306 306 306
330 340 340 340 339 337 336 337 333 332 335 331 329 322 324 323 324 323 327 328 326 314 310 310 312 314 313 314 320 321 322 323 323 321 313 309 312 309 306 304 304 304 303
327 338 340 339 336 336 334 334 329 327 323 332 328 321 324 325 324 326 326 320 318 312 309 308 309 310 309 318 322 322 323 322 322 319 311 310 309 308 305 304 303 303 303
336 329 338 339 338 336 329 331 327 325 325 325 329 323 326 325 325 326 322 313 312 309 308 308 308 308 309 317 321 322 322 322 321 320 312 309 310 307 305 304 305 305 305
334 335 332 337 337 336 333 331 329 326 323 329 328 323 327 325 327 323 318 311 308 308 308 308 308 307 308 317 321 321 322 322 321 320 311 312 311 307 306 306 306 306 306
333 332 332 332 335 336 334 331 326 329 324 328 329 326 327 327 324 325 323 309 308 308 307 307 307 308 309 319 321 322 322 322 321 318 310 312 310 308 306 306 306 306 306
332 333 329 331 332 333 332 333 331 330 329 325 330 329 327 325 324 327 322 309 308 307 309 310 309 308 312 320 321 322 322 322 321 314 311 312 312 311 308 307 307 306 306
331 329 330 330 331 332 332 332 332 330 329 331 329 328 324 322 324 326 323 311 311 312 312 311 310 310 313 319 321 322 323 322 321 315 313 314 313 312 311 309 308 307 307
331 331 330 330 330 332 332 332 331 331 331 330 329 326 323 322 325 323 321 314 315 314 312 315 320 318 314 319 321 321 322 321 321 313 313 312 313 313 312 309 308 308 308
330 330 326 327 326 327 330 331 330 330 329 330 327 325 322 322 321 320 316 315 317 316 313 322 322 320 319 319 320 321 322 321 321 316 313 313 312 312 311 311 310 310 310
329 330 327 325 324 325 326 327 327 329 329 329 327 324 323 319 318 321 317 317 320 318 316 322 322 321 320 319 319 320 321 322 321 320 314 313 313 314 314 314 314 313 312
329 329 326 325 325 325 324 327 327 329 329 328 326 325 322 320 321 319 319 319 323 323 321 323 321 320 319 319 318 319 320 321 322 321 319 316 312 312 314 316 316 315 315
330 328 326 324 324 324 324 325 326 327 327 326 326 324 323 321 321 322 321 322 323 323 323 323 321 320 320 319 318 318 318 319 319 320 321 321 318 315 313 312 313 315 315
328 326 326 324 325 324 324 324 325 325 325 325 324 324 322 319 320 316 321 324 325 324 324 322 320 319 319 319 318 317 316 316 315 314 316 319 320 319 317 316 315 312 312
328 327 326 324 325 325 324 324 323 323 324 324 324 322 319 316 316 322 324 324 323 322 322 322 320 320 321 321 319 317 315 315 314 314 313 313 313 313 315 316 315 313 312
325 326 325 325 325 325 324 324 324 323 323 323 322 320 320 320 320 322 321 321 322 322 321 321 320 321 321 321 319 317 318 318 316 315 315 316 316 316 315 313 312 313 313
322 327 325 326 325 326 324 324 324 323 323 321 321 318 318 318 321 320 321 321 320 319 318 319 319 320 321 321 319 319 321 321 321 320 319 318 317 317 318 319 318 315 314
323 324 327 327 325 325 324 324 324 323 322 322 319 318 316 316 314 316 319 317 316 314 315 318 319 320 322 320 321 321 321 321 321 320 322 320 318 317 317 316 316 317 317
324 327 326 324 325 324 323 323 323 322 322 321 315 313 313 317 320 320 319 318 315 315 315 315 319 321 320 320 319 319 320 320 319 319 320 321 321 320 319 319 318 318 319
325 325 326 325 324 324 324 323 323 322 321 320 318 314 318 320 319 319 320 319 315 316 313 314 319 321 320 320 319 319 319 318 320 320 320 319 321 320 320 320 320 319 318

GFSSE_850_thetae_075.txt.gz
Theta_e
340 341 340 338 336 335 334 331 328 328 328 326 325 325 325 327 329 333 334 331 326 317 315 318 327 330 329 329 332 333 327 327 325 325 327 328 329 329 326 327 327 329 330
330 336 336 339 337 336 335 332 329 328 328 327 325 324 324 324 325 325 323 320 316 316 317 321 328 328 327 329 330 325 324 322 323 327 330 330 330 329 329 330 330 330 330
331 332 331 336 337 337 336 334 330 328 328 328 326 323 323 322 321 319 317 316 316 323 328 322 325 324 327 326 324 323 323 325 328 329 332 331 330 330 330 330 329 330 329
332 327 331 336 337 337 337 336 332 329 328 327 326 323 321 319 318 317 317 322 328 329 329 330 325 322 323 323 326 327 327 327 328 330 329 329 329 330 329 329 328 327 326
331 332 330 334 337 337 338 337 334 330 329 327 327 324 320 318 318 317 322 328 329 329 329 326 325 324 324 325 325 326 326 326 327 328 329 329 330 329 327 327 326 324 321
324 328 329 335 337 336 339 338 337 335 330 327 328 324 319 319 320 324 324 327 327 328 330 322 322 324 324 326 327 327 326 327 325 324 327 327 328 324 321 319 316 313 312
324 330 337 338 338 337 335 340 340 336 333 329 329 324 325 321 324 326 327 326 328 327 319 316 322 325 324 324 324 325 325 326 325 320 318 325 320 314 312 309 308 307 306
324 331 339 340 339 340 336 336 339 337 334 332 332 327 322 323 327 327 326 324 326 321 316 317 322 323 322 323 323 324 324 324 324 321 313 315 313 311 307 306 305 305 304
327 329 336 340 340 339 338 336 336 333 326 329 325 332 328 324 328 329 326 322 319 315 316 317 319 321 322 322 322 322 322 322 317 311 310 312 313 308 307 304 304 303 303
327 329 335 338 339 337 336 336 333 331 330 326 324 329 328 329 327 326 324 322 314 311 314 315 314 314 319 322 322 323 322 322 318 308 309 310 308 307 304 303 303 304 305
332 330 328 338 338 337 335 334 332 330 326 328 326 324 328 330 328 327 324 316 312 310 311 311 310 314 321 322 322 322 321 321 314 308 308 309 306 306 305 305 306 306 306
334 333 330 332 334 336 335 331 330 328 327 325 325 324 332 329 327 325 321 312 309 309 309 309 309 318 321 321 321 322 321 321 320 312 307 307 306 306 306 306 306 306 307
331 329 332 331 330 331 334 332 331 330 326 324 323 326 331 328 327 321 316 311 309 308 308 308 309 317 321 321 322 322 321 321 321 311 308 309 308 307 307 307 307 307 306
330 329 327 328 328 331 333 332 330 327 328 327 332 331 327 328 323 322 312 308 308 308 308 307 308 315 320 322 322 322 321 321 320 309 310 310 310 309 308 308 307 307 306
328 327 328 330 330 331 333 332 331 330 330 328 326 329 328 325 323 324 310 308 308 307 308 309 309 319 321 322 322 323 323 321 320 311 311 311 311 310 309 308 308 307 307
326 328 328 329 329 330 332 332 331 331 330 328 326 329 326 321 325 322 312 308 308 310 310 309 309 319 320 320 322 322 322 321 320 312 312 311 310 309 309 309 309 308 308
328 328 328 326 326 326 327 330 330 330 330 329 327 328 323 322 322 317 315 311 311 311 315 318 314 314 319 319 321 322 322 320 321 314 312 311 311 311 310 310 310 310 310
328 328 328 327 324 324 324 327 329 330 330 328 327 327 322 322 323 323 314 314 314 313 321 321 320 319 319 318 321 321 322 321 321 319 316 312 312 313 313 313 313 313 313
326 327 327 325 324 325 325 325 327 328 329 328 328 325 322 322 321 323 313 315 316 315 322 323 321 320 319 318 320 320 321 321 321 320 320 315 315 312 312 313 313 314 314
326 326 326 324 324 324 323 327 327 326 326 329 327 326 323 322 320 320 315 316 318 318 320 323 321 319 319 319 318 318 319 320 320 320 318 317 317 317 315 314 313 312 313
326 326 327 324 324 324 324 324 325 326 327 328 328 325 325 321 320 319 317 319 323 321 320 323 321 319 320 320 318 318 317 317 317 317 320 318 318 317 316 315 315 315 315
325 324 324 324 325 324 323 323 326 326 326 326 325 326 324 320 320 319 319 323 322 323 322 322 320 319 319 319 318 317 316 315 315 314 314 315 316 317 316 314 314 314 315
324 325 326 324 325 324 324 322 323 323 324 324 324 325 323 321 320 320 322 320 321 321 320 321 320 319 321 320 320 318 317 316 316 315 315 315 315 315 314 314 314 314 315
323 323 325 326 325 324 324 323 323 322 322 323 324 324 322 320 318 319 318 322 323 322 320 321 321 320 321 319 320 319 318 320 321 321 319 318 318 317 318 318 316 316 317
323 322 327 324 326 324 324 323 323 323 323 322 323 321 318 317 318 321 322 322 322 321 321 321 321 319 320 320 320 320 319 320 321 320 319 318 321 320 319 319 319 319 319
324 323 323 326 326 324 324 323 323 323 323 322 322 320 320 320 319 320 322 321 321 319 319 317 317 319 319 320 321 319 319 320 319 319 319 319 318 318 320 320 320 320 319

GFSSE_850_thetae_081.txt.gz
Theta_e
334 329 334 334 332 332 330 328 329 334 335 336 339 340 339 337 337 333 331 332 330 326 325 325 326 323 326 332 333 334 332 331 330 331 332 332 332 332 332 332 332 332 332
325 324 327 331 333 332 330 328 329 333 332 332 336 339 338 338 338 337 333 332 328 325 323 324 325 326 329 332 332 331 330 329 330 332 333 333 332 332 332 332 332 332 330
323 321 322 327 333 333 330 328 329 329 328 328 329 334 336 337 338 336 334 332 328 324 319 321 330 330 327 329 332 330 328 328 330 331 332 330 329 329 329 328 329 329 330
322 322 322 323 330 334 331 328 328 328 327 326 326 329 335 335 337 335 333 331 325 318 317 325 331 328 329 331 329 326 326 327 329 329 327 332 327 328 329 329 328 328 328
324 325 323 322 325 334 333 330 328 328 328 326 325 327 333 335 335 334 331 323 317 317 319 330 329 327 330 329 326 325 326 328 328 328 330 328 329 328 328 327 323 319 319
323 323 323 323 325 332 335 332 329 329 328 327 326 327 330 331 328 326 321 318 317 320 331 331 328 326 327 325 323 325 326 326 329 329 327 327 327 328 326 321 318 315 314
322 322 323 325 326 332 336 334 331 330 329 328 328 326 327 326 323 319 318 318 323 323 328 328 326 325 324 323 323 326 326 327 328 327 327 326 328 327 323 320 316 312 310
323 322 324 329 331 333 336 336 333 331 330 330 330 329 327 326 324 324 326 329 330 330 329 327 325 324 327 327 327 327 326 327 326 327 327 328 326 322 319 314 311 307 306
325 322 325 331 336 338 337 337 335 334 332 330 329 327 326 326 325 326 329 329 329 329 327 326 325 325 326 325 324 323 323 322 324 322 324 324 321 316 310 307 306 305 305
324 324 325 329 339 339 337 337 337 336 334 331 329 328 328 327 326 325 328 329 327 326 326 325 325 325 325 324 323 323 323 322 320 318 313 320 313 315 312 309 306 304 304
325 328 327 326 327 336 337 335 336 336 334 331 331 328 326 324 327 328 329 327 326 325 325 325 325 326 326 324 323 322 320 318 317 311 309 312 312 315 313 308 304 305 306
327 328 328 329 328 329 330 333 333 336 335 330 331 328 326 325 326 324 326 325 326 324 325 326 326 325 323 323 322 321 321 316 310 309 308 310 313 313 310 307 306 307 307
328 329 329 330 329 328 332 329 333 334 332 330 330 328 327 325 323 326 327 326 326 325 324 325 323 322 322 322 321 321 320 312 308 308 309 312 310 311 308 307 307 307 306
329 329 329 329 327 327 331 332 331 330 324 328 329 328 328 324 326 327 327 326 322 326 324 323 322 321 322 322 322 321 317 314 307 308 308 307 308 309 309 307 307 307 306
329 329 328 328 324 324 328 330 331 327 329 328 327 327 324 326 325 329 327 326 322 325 323 322 321 321 322 322 321 320 320 320 314 308 307 307 307 307 308 307 307 307 306
329 329 328 327 321 325 328 328 330 329 329 326 326 326 325 326 324 328 327 325 319 324 323 321 321 321 321 321 321 320 321 320 316 308 308 309 308 308 307 308 307 307 306
328 328 328 325 321 327 328 329 331 329 327 327 325 325 325 325 327 325 327 321 315 320 320 320 320 321 321 321 321 321 321 320 316 309 310 310 310 309 308 307 307 307 307
329 328 327 325 322 326 328 330 330 328 325 327 325 325 325 327 326 326 326 317 312 315 315 318 320 320 321 322 321 321 322 320 317 312 311 311 310 309 308 308 308 308 308
328 328 327 325 323 325 325 330 329 330 327 327 326 327 327 327 328 327 324 313 310 311 312 318 320 320 321 322 322 322 322 320 319 313 312 311 310 309 309 309 310 310 310
328 328 327 325 322 325 325 325 328 329 329 327 328 326 326 327 329 327 319 310 309 309 310 316 320 320 321 322 321 321 322 320 320 318 313 312 312 312 311 311 311 312 312
328 328 327 324 321 324 324 324 327 327 328 328 328 326 328 327 327 324 315 309 308 308 308 311 319 320 320 320 320 321 321 321 320 320 319 318 314 313 312 312 312 312 313
329 328 327 323 323 323 324 324 326 326 328 329 329 327 327 327 325 323 311 308 307 307 308 309 319 320 319 319 320 321 321 320 321 320 320 320 319 317 316 315 315 314 314
328 328 327 323 323 323 323 324 325 327 326 327 327 328 327 325 322 322 310 308 307 309 309 310 318 318 315 317 318 320 319 320 320 320 319 318 316 316 316 316 315 315 315
328 328 326 320 323 324 323 324 325 325 327 326 327 328 327 323 323 323 319 310 310 310 312 312 315 316 318 318 318 319 319 317 317 317 317 316 315 314 313 314 314 314 315
328 327 326 319 324 323 323 323 324 325 325 327 326 327 327 323 324 323 320 313 312 312 318 320 320 320 320 318 318 318 318 316 316 316 316 317 315 314 314 315 316 317 317
328 327 323 320 324 324 323 322 324 323 324 325 324 324 326 324 323 324 322 319 314 316 317 322 322 321 321 319 319 318 318 317 317 317 317 319 319 318 318 318 319 319 319

GFSSE_850_thetae_084.txt.gz
Theta_e
330 329 328 330 329 331 334 334 332 333 336 337 338 339 340 337 334 330 331 331 330 326 326 328 329 329 328 327 331 332 330 329 330 331 332 332 332 332 333 332 332 332 332
321 323 326 329 330 332 333 331 330 334 336 336 338 340 339 336 333 330 331 330 328 326 326 326 326 326 332 330 332 332 331 329 330 332 333 332 332 332 331 331 331 332 331
320 321 322 325 329 331 332 329 331 335 335 336 337 339 339 336 334 331 331 330 327 326 325 325 324 323 329 332 332 331 329 330 331 332 333 333 332 331 331 331 330 329 330
321 321 321 323 326 330 331 329 330 334 333 333 335 337 338 337 336 335 332 331 328 326 323 323 324 331 329 331 330 329 328 330 332 332 333 333 330 329 329 329 329 328 329
322 322 322 323 326 330 332 330 330 331 330 332 336 338 338 337 337 334 334 331 328 326 325 321 326 331 327 328 330 328 327 329 330 330 329 329 327 329 328 328 328 328 327
322 323 323 323 325 331 332 331 329 330 330 329 331 335 336 338 337 335 333 331 330 326 328 328 331 329 329 330 328 325 326 327 328 326 328 328 329 328 327 322 317 320 320
324 326 323 323 324 330 333 332 330 330 329 329 330 331 334 336 335 334 332 330 327 328 328 328 329 328 329 329 326 325 326 327 327 328 329 329 328 326 322 316 313 313 313
323 323 323 324 325 329 334 333 331 330 330 329 330 329 330 330 330 330 327 325 327 328 328 329 328 328 327 326 324 326 326 328 328 327 327 326 326 326 321 317 312 311 312
324 324 324 325 329 331 335 335 333 331 330 329 328 328 327 326 326 324 323 324 326 326 327 329 328 326 325 324 323 325 326 328 327 326 325 328 325 324 321 315 309 308 308
326 325 324 327 331 334 336 336 335 333 332 330 328 329 329 326 326 326 324 326 327 329 329 328 327 325 325 327 327 327 327 327 326 324 323 325 324 323 317 311 309 306 308
326 325 325 328 334 334 333 336 336 335 334 333 330 329 329 326 325 324 325 324 327 328 327 327 327 327 327 326 325 324 323 321 321 322 317 323 321 318 320 310 307 306 306
326 325 327 327 331 331 334 334 336 335 335 333 330 328 327 327 326 326 326 325 326 325 326 327 328 326 325 325 324 323 322 319 319 316 312 318 323 319 316 308 307 307 309
327 325 328 328 329 327 327 330 333 334 333 333 331 329 329 328 327 325 326 325 326 324 326 327 327 326 325 324 323 321 320 316 314 311 310 316 319 320 310 309 310 308 308
328 327 329 328 329 328 328 329 328 328 333 331 332 329 329 328 326 325 325 326 325 324 324 326 325 326 325 323 321 321 320 313 310 309 310 314 318 316 312 309 309 308 306
328 328 328 329 329 328 325 326 330 330 332 331 331 328 328 326 325 326 324 324 325 324 324 325 326 324 322 322 321 321 314 309 308 309 309 312 315 316 315 310 309 307 306
328 328 329 329 329 327 323 324 328 329 330 330 327 329 328 326 327 324 325 325 324 324 324 325 325 322 321 321 321 320 319 318 309 308 309 309 315 317 317 312 309 307 306
327 328 329 329 329 325 321 325 326 327 330 329 328 328 328 327 325 325 326 327 326 323 325 325 322 321 321 322 321 320 320 319 314 308 308 308 311 313 313 313 309 307 306
327 328 329 329 328 324 322 326 327 327 330 329 327 327 327 326 325 326 326 324 326 323 325 324 321 321 321 321 321 320 320 320 316 310 310 310 311 310 310 309 307 307 307
328 328 329 329 326 324 324 326 327 328 330 328 327 326 326 325 326 325 325 325 326 321 325 323 321 321 321 321 321 321 320 320 316 312 311 311 312 311 309 308 307 308 308
328 329 329 328 326 325 325 331 328 327 327 327 326 327 325 325 325 325 324 324 326 320 325 323 320 321 321 321 321 321 321 320 318 314 312 312 312 311 310 309 309 309 310
328 329 328 327 327 325 325 328 327 326 328 329 327 325 326 325 326 326 326 325 326 317 325 324 320 320 320 321 321 321 320 320 319 316 315 312 312 312 311 311 310 310 311
329 328 328 328 326 322 323 324 326 326 326 327 328 327 326 326 326 327 326 326 324 315 323 321 319 319 320 322 322 321 320 319 319 319 319 317 318 314 314 313 312 312 312
328 328 328 328 326 321 323 323 326 325 327 326 327 327 327 325 326 326 327 327 321 312 318 318 318 319 320 321 321 321 320 320 320 320 320 320 319 319 317 316 314 315 315
328 328 328 327 324 321 323 324 324 323 325 326 327 327 325 326 327 327 327 325 316 311 311 313 317 319 320 320 320 320 320 319 320 320 320 320 318 316 315 313 313 314 314
328 328 328 326 322 320 323 322 323 324 326 325 327 327 325 327 325 326 324 319 311 309 309 309 314 319 319 320 320 319 319 319 317 316 316 316 317 313 316 316 313 313 314
327 329 328 326 320 322 323 323 325 323 324 325 326 327 326 326 327 324 324 317 309 308 308 308 309 317 319 319 317 315 316 318 318 316 315 315 316 317 317 317 315 315 316

GFSSE_850_thetae_087.txt.gz
Theta_e
327 324 323 323 323 324 328 332 336 337 337 336 338 339 340 339 336 332 330 330 331 330 330 330 331 332 331 331 331 329 329 330 331 333 333 333 332 332 332 332 333 333 333
324 321 321 321 323 324 328 333 335 333 334 336 338 339 340 339 336 331 331 331 331 328 328 329 329 330 330 330 331 329 328 330 332 332 332 332 332 332 332 332 332 332 332
320 321 321 321 321 324 328 333 332 332 335 337 338 339 340 338 335 331 331 330 329 327 327 327 328 327 326 328 331 330 328 329 332 333 333 333 333 332 331 331 331 331 331
322 321 321 321 321 326 330 331 330 333 336 337 339 339 340 336 334 330 331 330 328 327 326 327 325 324 328 330 332 330 328 330 332 333 333 333 332 331 331 331 330 330 329
321 321 321 321 321 325 329 331 331 333 335 337 339 340 339 336 333 331 332 329 327 326 326 326 325 325 328 330 329 328 327 330 332 333 332 332 331 330 329 329 329 329 329
322 322 322 322 323 325 330 331 332 333 333 336 338 339 338 336 334 332 332 330 328 327 328 329 328 330 330 329 329 328 327 331 332 331 333 330 330 329 329 329 328 328 327
322 322 322 322 323 325 330 331 331 333 331 332 336 338 338 337 335 335 333 333 330 329 329 328 329 331 329 329 330 327 329 331 330 329 329 329 329 327 327 326 323 326 325
323 323 322 323 323 325 330 332 331 331 331 329 329 333 334 334 335 335 333 332 331 326 326 328 330 329 330 330 328 327 328 328 328 327 328 329 328 326 318 314 314 316 317
324 324 323 324 325 327 330 332 332 331 330 329 329 333 333 334 335 333 332 329 326 326 327 328 330 327 330 328 327 327 327 327 327 328 328 327 327 321 316 315 312 314 313
324 324 325 325 326 328 333 333 334 332 331 330 329 331 332 332 333 332 326 326 323 326 326 327 329 327 328 327 327 328 328 328 327 327 326 325 325 324 319 314 309 312 309
324 325 325 325 326 329 334 340 336 334 332 331 330 330 329 329 330 325 325 324 325 326 326 327 328 327 327 326 327 327 328 328 327 326 323 323 323 322 316 311 309 309 311
325 325 325 324 326 331 331 336 337 335 334 333 332 329 329 327 327 326 326 327 325 326 325 327 327 326 327 327 329 328 328 327 327 326 321 320 322 322 316 311 310 310 312
327 326 325 325 326 331 331 333 335 336 334 333 333 332 329 329 327 325 324 326 327 328 327 326 326 326 327 328 326 325 323 323 322 322 319 318 321 321 316 314 312 310 312
329 328 326 326 327 329 327 331 333 334 335 335 333 332 330 328 326 328 326 326 327 326 325 327 327 327 327 325 323 323 321 319 318 316 315 321 321 321 317 317 314 313 310
330 329 328 327 328 329 328 329 328 334 336 336 332 331 330 328 328 328 326 326 327 326 324 326 327 326 325 325 323 321 320 318 314 313 315 321 320 320 319 319 318 315 309
329 330 329 328 328 329 329 329 328 329 333 333 333 331 330 328 328 328 326 326 326 326 324 325 326 325 325 324 322 321 317 311 310 312 315 320 320 320 321 320 320 317 309
321 329 330 329 329 329 329 329 327 329 333 331 330 330 329 328 328 328 325 326 326 324 323 325 325 325 325 323 321 320 317 314 310 312 313 318 319 319 319 318 319 318 315
318 326 330 329 330 329 329 328 323 328 332 328 329 332 330 327 329 327 325 326 325 324 324 325 324 325 322 322 321 320 319 319 313 313 313 316 317 318 319 319 319 318 313
317 323 330 329 330 329 329 326 324 329 331 327 329 329 330 329 327 327 327 326 324 324 324 324 326 324 321 322 321 320 320 319 316 312 311 313 314 316 316 317 317 316 309
317 322 329 329 330 329 328 324 328 328 329 327 329 328 327 327 327 326 326 326 326 323 324 325 325 322 321 322 321 320 320 319 318 314 311 312 314 314 312 312 311 310 308
318 319 328 329 330 329 327 325 327 326 326 327 327 328 326 326 327 326 326 325 323 323 324 324 325 322 321 321 321 320 320 320 318 316 313 313 313 313 312 310 309 309 309
318 318 327 329 329 328 327 326 328 326 325 327 326 327 326 325 326 326 326 325 320 325 324 325 324 321 321 321 321 320 319 319 318 318 315 313 313 312 312 311 311 311 311
318 319 326 329 329 327 327 323 327 325 326 326 325 327 327 324 325 325 325 325 324 325 324 324 323 321 321 321 321 321 320 322 320 318 318 317 314 315 313 313 313 313 312
319 323 328 329 328 327 325 321 323 324 324 325 326 326 326 327 326 325 327 325 325 325 326 323 324 323 320 320 321 321 321 320 321 321 319 319 319 319 318 316 313 312 313
321 325 328 328 328 327 321 322 322 324 323 323 324 326 326 327 325 325 325 326 326 326 326 321 325 323 320 320 321 321 321 320 319 318 320 319 319 318 316 315 314 313 312
323 326 328 328 328 326 319 324 325 322 324 325 326 326 326 326 324 325 326 325 326 327 324 317 323 322 319 319 320 321 321 320 319 318 316 316 316 315 312 313 314 316 316

GFSSE_850_thetae_093.txt.gz
Theta_e
338 335 323 323 323 323 324 327 331 339 341 341 341 340 338 335 334 333 332 332 332 335 336 338 338 335 333 334 330 328 331 334 333 333 334 334 335 336 336 336 337 335 333
339 331 321 321 321 322 324 325 328 334 337 339 340 340 339 336 335 333 332 331 332 335 337 336 334 332 333 332 329 328 330 330 331 333 333 334 334 334 335 335 335 333 333
341 322 321 321 320 321 322 325 328 331 335 338 339 339 339 337 335 334 332 331 333 338 338 335 332 333 332 330 329 328 329 331 333 333 333 336 333 333 334 334 334 334 334
338 322 322 321 320 320 321 323 329 333 335 335 336 338 338 338 336 334 332 332 334 336 334 332 332 332 330 330 328 328 330 332 333 332 336 338 333 334 334 333 333 332 332
336 326 323 322 321 321 320 322 328 333 333 332 334 338 338 338 336 335 333 332 334 334 333 334 333 331 329 329 329 327 329 332 332 336 335 336 333 333 332 332 331 331 331
337 339 323 322 322 321 321 322 327 331 331 331 335 338 338 339 337 335 333 333 334 337 333 332 333 330 327 330 330 328 330 333 332 337 334 334 333 332 331 331 330 330 330
338 339 323 322 322 321 321 322 326 330 331 332 336 338 339 340 338 336 333 333 337 335 332 332 331 328 328 331 331 328 331 331 335 334 333 334 332 332 330 330 329 328 328
339 340 323 322 321 321 321 321 325 330 331 333 336 338 340 340 337 336 334 334 337 333 332 330 330 326 328 332 330 328 332 333 334 333 333 333 332 330 329 329 328 327 327
342 333 323 322 322 321 321 322 325 329 331 332 335 336 337 338 338 335 334 333 333 331 330 330 327 325 329 330 330 329 332 331 333 331 332 332 330 329 328 327 326 325 325
344 332 324 323 322 321 321 322 324 328 331 332 333 334 334 335 335 335 333 332 332 332 331 331 327 323 326 328 330 330 332 331 331 329 330 329 328 328 326 326 318 317 316
345 343 327 323 324 323 322 322 324 328 331 331 332 332 333 334 335 334 333 333 332 332 332 329 326 328 327 327 329 328 330 332 331 329 331 328 328 327 320 313 311 311 311
345 340 334 325 325 325 339 332 324 326 331 332 332 332 331 334 335 335 334 333 332 331 329 327 325 328 327 327 329 328 330 329 328 329 328 328 326 324 317 315 310 309 310
343 343 337 330 328 326 337 339 339 338 337 337 336 337 334 336 334 333 334 333 332 328 328 327 326 328 327 329 329 328 330 329 329 328 327 325 324 323 321 319 311 309 314
337 341 343 334 340 327 332 334 340 339 338 337 336 337 337 336 333 333 333 333 332 328 327 326 326 324 327 328 328 329 328 329 327 327 325 325 323 323 321 319 318 316 311
330 337 343 338 337 330 328 326 329 332 339 338 338 336 335 333 333 334 333 332 331 327 326 327 327 326 327 327 326 328 327 327 327 326 325 324 321 321 321 321 319 317 313
324 332 340 342 333 339 330 326 327 326 329 332 335 334 334 333 334 332 331 331 327 326 327 326 327 327 326 325 327 327 328 325 325 323 324 319 320 320 319 320 318 318 317
323 325 335 343 337 335 329 327 327 327 327 330 329 333 332 333 333 332 330 329 326 327 327 327 326 327 326 324 326 327 326 324 323 322 323 321 321 320 320 320 319 318 317
321 325 331 339 339 336 331 328 327 328 327 327 327 326 329 332 332 332 331 328 328 328 327 327 327 326 325 326 328 325 324 323 322 321 322 321 321 320 318 319 319 319 319
321 323 329 336 337 335 333 329 328 328 328 329 330 329 324 330 331 329 331 330 327 327 327 328 326 325 325 326 325 324 323 321 321 321 323 321 320 321 320 319 319 319 318
319 323 327 334 338 334 335 333 330 331 330 330 330 330 327 329 330 329 329 329 328 328 326 327 326 324 325 325 325 323 322 322 320 320 321 322 318 320 320 321 319 318 316
320 322 328 333 338 335 340 335 331 332 331 332 332 330 326 327 330 329 328 327 327 327 327 326 326 324 324 325 323 322 322 322 322 320 321 321 321 322 320 321 319 318 313
321 322 328 332 337 335 334 338 335 333 334 331 330 326 324 328 328 328 327 328 327 327 327 326 324 323 324 325 323 323 323 321 321 322 320 320 321 321 321 322 321 320 319
321 324 327 330 335 335 333 335 335 334 333 333 327 327 326 328 328 328 326 327 327 327 327 326 325 322 323 324 322 322 322 322 322 322 322 320 321 320 320 320 320 320 319
320 325 328 330 335 334 334 335 336 332 331 329 328 326 325 325 327 328 327 328 328 327 326 326 325 322 322 323 323 322 321 320 322 323 321 321 321 321 321 320 320 320 320
319 324 329 331 334 334 335 335 334 333 333 330 327 327 326 326 326 327 327 327 327 324 325 325 323 321 322 323 323 323 321 323 322 323 322 322 321 321 321 321 321 320 320
320 327 331 332 333 334 334 334 334 333 331 328 330 327 327 328 326 326 326 326 325 325 326 325 323 321 323 324 323 321 322 322 323 323 322 322 322 322 321 321 321 320 320

GFSSE_850_thetae_096.txt.gz
Theta_e
337 329 326 322 321 320 320 322 329 335 339 340 341 339 338 336 335 332 331 331 330 332 335 336 336 336 336 338 336 335 336 338 337 336 334 335 336 335 335 336 336 334 333
332 328 322 321 321 321 320 321 325 332 338 339 340 340 339 337 335 333 332 331 332 334 335 336 337 333 332 333 329 329 333 336 333 333 334 335 335 335 336 336 334 333 333
331 327 321 322 320 320 319 320 324 329 334 337 339 340 339 338 336 334 333 331 332 334 336 337 333 331 331 330 328 328 330 331 332 332 333 334 334 334 335 334 332 332 333
324 322 323 322 320 320 320 321 324 329 333 337 338 339 339 338 336 335 333 332 334 337 336 335 332 331 331 328 327 327 329 332 332 333 335 333 333 334 334 333 333 333 333
323 322 324 321 321 320 320 320 324 329 332 335 336 338 338 338 337 336 334 332 334 337 334 333 332 332 329 328 327 327 330 332 332 335 334 333 334 333 333 333 333 332 332
334 324 322 322 321 320 320 320 323 328 331 332 333 335 337 338 338 337 334 332 335 335 333 332 332 330 329 327 328 327 331 332 333 333 334 333 333 332 332 331 330 330 329
339 330 322 322 322 321 320 320 321 325 329 330 332 335 337 337 338 337 336 334 335 335 333 332 331 330 326 327 329 327 332 331 334 333 333 333 332 331 331 330 330 328 327
339 338 325 322 322 321 320 320 321 324 328 330 331 335 337 338 339 337 336 334 334 335 332 332 331 328 325 328 329 328 331 331 334 333 333 332 332 331 330 329 329 328 327
339 337 329 322 322 321 320 320 321 323 327 330 332 335 338 339 339 337 336 334 333 336 333 331 330 328 325 329 328 329 331 331 333 333 332 332 332 331 329 328 327 326 323
340 340 329 322 322 321 320 321 322 324 326 330 332 334 336 338 338 337 336 334 333 335 333 331 330 328 327 331 328 329 332 332 332 332 332 331 331 330 328 327 326 320 319
343 343 330 325 322 322 321 321 322 323 326 330 332 333 333 334 336 336 335 334 333 333 332 332 330 326 326 328 327 328 332 330 330 330 329 329 328 328 327 326 323 313 313
345 346 340 330 323 323 322 321 322 322 324 328 331 332 331 334 334 335 335 334 333 333 332 332 330 327 326 326 328 328 328 331 329 328 327 328 327 326 325 318 312 310 310
344 346 344 339 327 325 329 323 323 322 323 328 331 333 331 333 333 335 335 334 333 332 332 331 328 326 325 327 326 327 328 329 329 328 326 327 326 324 322 313 309 311 310
341 344 345 340 335 327 333 329 325 326 327 328 332 336 335 333 333 334 335 334 333 332 331 330 328 327 326 325 326 327 328 329 329 326 325 326 324 322 318 311 308 312 314
326 341 343 341 340 330 331 333 333 336 335 333 337 336 335 336 335 335 334 334 333 333 332 329 328 328 325 325 327 326 328 328 327 327 326 325 324 321 319 321 317 312 312
321 326 341 338 341 338 331 330 330 336 340 337 335 334 336 336 335 335 334 334 333 333 331 328 327 327 326 325 326 325 328 327 328 328 326 324 323 319 319 322 317 316 311
319 322 336 338 337 339 333 331 330 327 330 334 335 333 332 333 334 333 333 333 332 332 331 328 326 327 327 326 325 325 326 326 326 326 325 322 320 319 319 321 320 316 313
318 320 324 337 337 340 337 337 335 330 326 327 328 332 332 332 332 333 332 333 332 331 329 326 327 327 327 326 322 325 326 325 324 324 323 322 317 320 317 319 319 318 316
319 320 323 336 338 334 340 334 343 334 330 328 326 326 330 331 330 331 332 331 331 329 327 327 327 327 328 325 322 325 326 324 322 322 322 321 317 319 319 319 319 318 318
320 319 322 327 337 334 340 337 343 343 333 333 330 328 327 328 326 329 331 331 330 329 328 328 327 327 326 324 323 325 325 323 322 321 321 321 318 319 317 319 319 319 318
320 319 321 327 334 330 335 337 339 342 340 337 332 330 330 329 328 328 332 330 330 329 329 327 327 327 325 324 325 324 322 321 320 321 322 321 319 318 319 320 319 317 317
320 320 321 328 333 332 334 337 336 340 339 338 333 330 330 335 330 328 327 329 329 328 328 328 325 327 325 324 325 323 323 321 320 320 320 321 321 321 321 318 316 315 315
319 320 321 327 334 334 334 337 334 337 336 335 337 331 333 335 333 326 327 329 329 328 326 325 327 326 324 324 324 322 322 321 321 320 320 320 321 321 320 319 320 320 318
320 320 322 323 328 334 336 337 333 335 334 333 332 334 331 328 327 326 326 328 328 327 327 326 326 325 324 324 324 322 321 321 320 322 321 320 320 320 321 320 320 321 320
319 320 322 323 327 334 334 335 334 335 334 333 332 331 331 329 327 326 328 327 327 327 326 327 326 327 324 324 324 323 320 320 319 319 322 321 321 320 319 320 320 320 319
320 320 323 325 328 333 335 334 337 336 335 332 332 330 328 327 325 325 328 327 327 327 327 328 326 325 323 323 324 323 320 322 322 321 319 320 321 320 320 319 319 321 320

GFSSE_850_thetae_099.txt.gz
Theta_e
335 326 328 327 323 321 321 323 327 333 337 338 339 338 337 336 335 331 329 329 330 333 334 335 335 336 335 338 335 336 337 337 337 336 336 335 335 335 335 334 334 334 332
328 327 326 323 321 321 321 322 325 331 336 338 339 339 338 337 336 333 331 331 331 334 335 335 335 335 333 333 332 332 334 336 335 334 335 335 335 335 335 334 333 332 332
325 326 321 321 322 321 320 320 324 329 333 335 337 339 339 338 336 334 332 331 332 334 334 336 336 333 332 331 327 329 334 333 332 333 333 334 335 335 335 333 332 332 333
324 323 322 322 321 320 320 320 322 327 331 334 336 338 338 338 337 335 333 331 331 333 335 336 333 332 332 328 327 329 331 332 332 332 333 334 334 334 333 332 332 332 333
325 322 323 321 321 320 319 319 321 325 329 333 336 337 338 338 338 337 334 331 332 335 335 334 331 331 330 327 327 329 331 331 331 332 332 332 333 333 332 333 333 333 333
323 323 322 321 321 320 320 320 320 323 328 331 333 335 336 337 337 337 335 333 333 335 334 332 330 331 328 327 327 329 331 331 334 333 332 332 333 333 333 333 333 331 329
322 323 322 321 321 320 320 320 320 322 326 329 330 332 334 336 337 337 336 334 333 335 332 331 330 330 328 326 328 331 331 332 333 333 333 333 332 332 332 330 330 328 326
323 323 322 321 321 320 320 320 320 321 323 327 329 331 335 336 337 337 337 335 334 334 332 331 330 329 327 328 329 331 331 331 333 332 332 332 332 331 330 329 328 327 326
331 329 324 322 322 321 320 320 321 321 322 326 328 331 335 337 337 338 337 335 334 334 333 332 331 329 327 330 329 331 330 332 332 332 331 331 332 331 329 328 327 326 325
336 337 334 324 322 321 320 320 321 321 322 325 328 330 335 338 338 338 337 335 334 333 334 332 331 331 327 327 328 332 330 331 333 332 331 331 331 330 329 328 326 322 320
337 335 335 329 322 322 320 320 321 321 321 323 328 330 333 337 338 338 337 335 334 333 334 333 331 330 326 327 327 329 331 331 331 331 331 330 330 329 328 327 327 322 313
338 335 335 333 323 322 321 320 321 321 321 322 324 329 331 332 336 336 337 335 334 333 333 332 331 328 326 325 325 326 331 331 330 330 329 328 328 328 327 327 325 315 311
341 341 339 336 332 323 322 321 321 321 321 321 323 327 330 331 334 334 335 335 334 333 333 332 331 327 326 327 324 325 328 330 330 328 327 326 327 327 326 323 318 311 310
341 339 337 336 335 328 324 323 322 322 322 321 322 325 329 330 331 332 333 334 334 333 332 332 331 328 326 326 325 324 327 328 329 328 326 325 326 323 321 322 312 310 310
331 341 341 338 337 332 328 327 327 323 323 323 322 324 326 330 331 331 332 333 334 333 332 332 330 327 327 327 325 325 327 327 328 328 326 325 325 324 318 315 315 312 313
320 324 337 341 339 339 329 326 329 325 325 326 326 323 324 329 332 333 333 333 334 333 333 332 331 329 327 328 325 325 326 327 328 326 325 325 324 323 320 311 320 319 314
318 320 323 333 339 341 339 331 328 329 329 330 327 327 327 329 333 334 333 333 332 333 333 332 330 328 327 327 326 325 325 326 328 327 327 325 324 322 319 319 321 319 318
318 318 318 325 335 341 341 338 332 334 333 332 330 330 328 330 332 333 333 333 332 332 331 331 330 327 327 327 327 325 325 326 326 327 327 324 321 321 318 319 320 319 316
319 319 319 321 330 341 340 339 337 332 336 337 333 332 330 329 329 331 332 332 331 332 330 330 329 327 326 327 326 326 324 327 326 326 324 322 321 318 318 317 318 320 319
319 320 319 319 323 338 338 339 338 337 330 336 339 336 333 331 331 330 331 332 332 331 331 330 328 326 327 327 327 324 324 325 325 324 323 321 321 317 317 317 319 318 318
319 319 320 319 324 339 340 338 338 337 335 338 334 335 330 335 332 331 330 334 332 331 330 329 327 327 327 327 326 323 326 324 323 322 322 321 320 317 318 317 319 319 319
319 320 321 320 323 335 335 333 335 337 334 337 336 336 332 332 335 337 333 331 330 329 329 329 328 327 327 327 324 323 325 323 322 322 321 321 321 318 316 316 318 318 317
316 320 320 321 323 335 336 336 337 337 335 335 334 333 335 333 335 336 333 330 329 329 328 328 328 327 327 326 323 324 322 322 321 321 321 321 320 319 315 317 316 317 316
319 318 320 321 327 332 333 332 331 330 333 333 334 333 333 334 333 331 330 329 327 326 327 327 328 326 326 326 323 323 322 321 320 321 320 320 320 321 320 320 318 317 319
323 321 320 320 329 332 333 330 328 330 333 330 332 332 332 332 330 332 331 328 326 326 326 328 325 325 325 325 324 323 322 321 320 320 321 321 320 320 320 320 320 320 320
325 322 321 323 326 329 330 326 325 330 333 333 332 331 331 330 330 329 329 326 325 325 327 328 327 325 326 326 323 323 322 321 320 320 320 320 319 320 320 321 321 320 320

GFSSE_850_thetae_102.txt.gz
Theta_e
332 332 332 330 327 323 321 324 329 333 336 337 336 336 336 335 332 330 335 338 340 336 334 334 333 338 340 338 335 336 336 338 337 336 336 335 335 334 334 333 333 333 332
327 329 329 327 323 321 321 322 326 332 336 337 337 337 336 336 334 330 329 330 331 333 334 335 335 335 337 336 334 334 335 335 334 335 335 334 334 334 334 334 333 332 332
326 327 326 322 320 321 321 322 325 331 334 336 338 338 337 336 335 332 330 330 332 334 335 335 335 334 334 333 331 332 333 332 331 332 334 334 335 335 334 333 332 332 333
323 326 321 321 321 321 320 320 322 326 330 333 336 338 337 337 336 334 331 330 332 334 335 335 334 333 333 329 328 331 331 329 331 333 332 333 334 334 333 332 332 332 333
324 323 321 321 320 320 319 319 320 323 326 330 334 337 337 337 336 335 332 330 332 334 334 335 332 331 331 328 330 330 329 330 331 333 331 333 334 333 332 332 332 333 332
323 322 322 320 320 319 319 319 319 322 325 329 332 335 337 337 337 336 334 331 331 334 333 333 331 332 329 328 329 330 330 330 331 332 332 332 332 332 332 332 333 332 331
323 322 321 321 320 320 320 320 319 321 324 328 331 333 335 336 337 337 335 333 332 334 333 331 330 331 328 328 330 331 330 331 332 332 331 331 332 332 333 333 332 329 327
322 323 320 321 321 320 320 320 320 320 323 326 329 331 333 335 336 337 336 334 332 334 332 330 331 330 328 328 330 331 330 331 333 333 332 332 332 332 332 331 329 326 324
322 323 321 321 321 320 320 320 320 319 321 325 327 329 332 335 336 337 337 335 333 333 332 330 330 330 328 329 330 331 331 331 332 332 332 332 332 332 330 329 327 325 324
322 323 322 321 321 320 320 320 320 320 320 323 326 329 332 336 337 337 337 335 335 333 333 332 331 330 328 328 329 329 330 332 331 331 331 331 331 331 329 328 326 325 323
332 330 326 322 321 321 320 320 320 321 320 321 324 327 332 336 337 337 337 336 334 333 334 332 332 330 326 327 326 327 328 331 332 331 331 330 331 331 328 327 326 324 316
334 333 334 331 328 322 321 320 320 321 320 321 321 325 330 335 336 337 337 336 335 333 333 333 332 330 326 324 325 325 326 327 330 330 330 330 330 330 328 327 323 322 313
336 335 334 335 334 326 322 321 321 321 321 321 321 322 328 330 334 336 337 336 335 334 333 333 332 330 326 326 325 325 324 326 327 331 330 329 328 328 328 327 325 318 311
337 337 334 335 335 333 325 322 321 321 321 321 321 320 325 327 330 333 334 335 335 334 333 333 331 329 326 326 325 325 325 326 326 329 328 327 326 326 325 326 323 317 310
336 335 330 334 334 336 335 324 322 321 322 321 321 321 323 324 326 329 332 333 334 334 333 333 332 330 326 326 326 325 324 325 327 327 327 326 325 325 323 318 322 315 310
334 331 325 329 334 338 338 331 323 322 322 323 322 321 321 323 324 326 329 330 331 332 333 333 332 331 326 326 326 325 325 325 326 327 327 326 325 324 323 316 317 316 313
328 328 323 322 326 334 339 337 328 324 325 324 324 322 321 322 323 323 328 329 330 331 333 333 332 331 328 327 326 326 325 325 326 327 327 326 324 324 323 319 320 321 320
318 318 320 322 322 324 334 338 337 327 328 327 329 327 323 323 324 325 327 330 332 332 333 333 332 331 330 328 327 327 326 326 326 326 327 326 325 324 322 319 320 322 320
317 318 318 318 319 321 327 332 341 335 330 329 331 334 329 328 327 327 327 330 333 333 332 334 331 329 329 329 327 327 326 325 326 325 327 327 325 322 320 319 321 320 320
317 318 318 318 318 318 319 328 339 338 334 333 331 333 335 332 332 331 330 331 333 333 332 333 330 329 329 328 326 326 327 325 325 325 326 327 323 321 319 317 320 320 318
318 318 319 319 319 319 320 323 337 336 337 336 334 333 337 336 333 333 332 333 333 332 330 329 329 327 328 327 326 326 325 327 325 327 326 325 322 320 318 316 317 318 318
315 316 318 319 319 319 319 320 332 332 336 336 336 335 337 338 337 336 334 334 333 330 330 329 328 329 329 327 327 326 325 325 325 326 326 323 321 320 318 316 316 318 317
313 314 315 318 319 319 320 323 333 333 333 336 336 334 336 337 335 333 333 332 331 329 329 328 327 328 327 326 327 326 324 323 324 323 323 322 321 320 320 317 316 317 318
321 319 316 316 319 320 321 323 330 332 332 329 335 334 334 333 332 332 332 331 331 329 328 327 326 326 327 327 326 326 324 324 323 322 322 321 321 320 319 316 315 315 317
324 324 321 318 320 320 321 323 333 333 330 331 334 333 333 332 332 332 330 330 329 328 327 327 325 326 327 327 326 326 323 322 323 322 322 322 322 320 319 316 316 317 316
325 325 325 323 322 323 322 327 333 332 332 331 333 333 333 331 331 330 330 329 328 328 327 327 326 326 326 326 326 326 323 321 321 321 321 321 321 320 321 320 320 319 318

GFSSE_850_thetae_105.txt.gz
Theta_e
332 336 339 338 337 333 327 325 327 328 330 331 333 334 334 333 334 340 342 341 340 338 333 333 332 337 337 336 335 335 335 338 337 335 335 335 335 335 333 333 333 333 332
328 335 338 337 335 330 327 326 326 328 332 333 334 335 335 333 331 334 338 339 339 335 333 333 335 338 339 335 335 335 335 335 334 334 334 334 334 333 333 333 333 332 333
328 333 335 333 330 327 326 325 325 327 331 335 335 335 335 334 332 329 330 331 332 333 334 334 336 336 336 333 333 333 334 333 332 334 333 333 334 333 333 333 332 332 331
327 330 329 326 322 322 324 326 325 326 328 333 336 336 335 335 333 331 330 330 332 334 334 334 335 333 332 331 329 332 333 331 331 333 333 334 334 333 333 332 332 332 332
328 327 325 321 321 322 323 323 322 323 325 328 334 336 336 336 335 333 330 330 332 333 334 335 334 331 331 327 328 330 330 330 332 333 333 334 334 333 332 332 332 333 332
326 325 321 321 321 320 320 320 321 322 323 326 330 335 336 336 336 335 332 330 331 333 334 335 331 331 328 327 328 328 329 330 333 333 333 332 333 333 332 332 332 333 333
324 321 321 321 320 319 319 319 320 321 323 325 329 333 336 336 336 336 334 331 332 333 333 333 330 330 327 326 326 328 330 330 332 332 332 332 332 332 332 332 332 332 330
322 321 322 320 320 319 319 319 319 320 322 325 329 330 334 336 336 336 335 333 331 333 333 331 330 329 327 326 326 327 329 330 331 331 331 331 332 332 332 332 332 328 326
322 322 321 321 320 320 320 320 320 320 321 325 328 329 331 334 335 336 336 335 332 333 332 330 331 329 327 327 327 327 327 330 332 332 330 331 332 333 332 331 329 326 323
322 322 321 321 320 320 320 320 320 320 321 323 327 328 329 331 334 336 336 335 334 333 332 330 331 330 328 328 329 328 327 329 331 332 330 331 332 332 331 328 327 324 323
322 322 321 320 321 320 320 320 320 321 322 322 326 328 329 331 334 336 336 336 335 334 333 331 331 330 329 329 329 328 326 328 331 330 330 331 331 332 329 328 326 324 322
321 322 322 321 321 321 320 320 320 320 321 323 324 328 329 331 334 335 337 336 335 334 333 332 331 330 327 327 328 327 323 321 330 330 330 331 330 332 329 328 326 324 321
326 323 322 322 321 321 321 320 320 320 321 322 324 325 328 331 334 336 337 336 335 334 333 333 332 331 328 325 326 325 326 324 324 325 329 330 330 330 329 327 326 323 316
334 332 333 334 333 330 324 321 320 320 320 321 322 322 325 330 333 334 336 336 335 335 334 333 332 331 329 326 325 326 325 326 325 324 328 329 329 329 327 327 326 324 316
339 337 334 335 336 335 334 328 322 321 320 321 321 321 322 328 329 330 334 335 335 334 334 333 332 331 330 326 325 325 325 325 325 325 327 328 327 326 325 325 324 324 318
331 338 337 336 336 336 335 335 333 324 321 320 321 321 322 323 327 327 329 332 333 334 333 333 333 332 329 326 326 325 325 325 325 325 326 327 326 325 325 324 322 324 318
316 320 339 337 333 335 335 335 336 335 323 321 321 322 323 323 325 326 327 329 330 332 333 333 333 333 331 329 325 325 325 324 325 325 327 327 326 325 325 323 321 323 320
315 316 317 335 337 335 334 332 336 337 331 322 322 322 323 324 324 327 327 327 328 330 332 333 333 333 331 328 325 325 326 325 325 326 325 327 327 325 324 323 321 317 320
315 315 316 317 326 338 336 335 331 334 335 330 325 325 324 324 325 328 329 328 329 330 331 333 333 331 330 328 326 326 326 327 326 326 325 327 327 325 324 323 320 321 319
315 315 316 316 317 325 336 331 332 333 334 337 330 329 327 325 325 328 331 330 331 332 332 333 331 330 329 328 327 327 327 327 326 326 326 326 327 325 324 321 319 320 320
313 315 317 317 317 317 330 326 331 332 328 332 337 332 331 331 328 329 331 333 334 334 333 333 330 329 328 329 328 327 327 326 326 326 326 325 326 326 323 320 319 319 321
312 313 314 316 317 317 318 318 322 322 324 325 335 335 333 334 334 332 332 334 335 335 334 333 330 328 327 329 327 326 325 326 326 327 326 325 326 326 322 320 318 316 313
311 312 312 313 315 317 318 320 322 329 329 335 336 334 334 334 335 334 335 334 334 333 332 330 329 328 327 327 325 326 325 324 324 325 325 325 326 325 322 320 318 316 314
312 312 314 313 314 316 318 319 321 321 323 327 331 329 332 332 335 335 334 334 333 332 331 330 329 328 327 326 327 327 326 324 323 324 325 323 326 324 321 319 318 316 314
322 322 321 317 315 315 316 319 320 323 322 322 331 329 327 330 334 334 334 333 332 331 330 330 328 327 327 326 326 325 326 326 325 323 323 323 324 322 320 320 319 317 315
325 325 323 321 318 316 316 319 322 321 324 327 333 331 329 331 334 331 333 331 331 330 329 329 328 327 327 326 325 325 326 325 324 324 324 323 323 321 320 320 319 317 315

GFSSE_850_thetae_108.txt.gz
Theta_e
328 333 337 339 338 336 334 330 327 327 327 329 330 332 332 333 337 340 341 340 338 336 332 331 332 336 335 333 332 333 337 338 335 335 336 334 335 334 333 333 333 333 332
326 333 338 338 337 336 334 329 328 327 327 329 330 331 333 333 334 339 340 339 338 335 333 332 333 338 335 334 335 335 336 337 334 334 334 335 336 333 333 333 332 332 332
327 333 336 336 337 336 333 330 329 328 329 330 330 332 334 333 333 334 336 337 337 334 333 332 336 338 336 333 334 334 335 334 334 334 337 336 334 333 333 333 332 332 332
327 332 333 334 335 333 330 329 330 330 330 331 332 333 335 334 332 330 331 332 332 333 333 333 335 335 333 332 331 333 332 332 333 335 334 335 333 333 333 332 332 331 331
326 329 331 332 330 329 327 327 330 331 330 330 332 334 335 335 333 330 330 330 331 333 333 333 334 332 331 329 328 330 330 330 332 333 333 335 333 333 332 332 331 331 331
327 329 330 328 326 326 325 326 328 329 328 329 331 333 334 335 335 333 330 330 331 333 333 333 333 331 330 326 327 329 328 330 332 332 333 333 333 333 332 332 332 332 333
326 328 327 324 322 324 324 324 326 327 327 327 330 332 334 335 336 335 331 330 331 332 332 333 331 329 328 325 326 326 327 329 331 332 332 332 332 333 332 332 332 332 331
325 327 324 322 323 323 322 322 324 326 327 328 329 332 334 335 336 336 334 331 331 332 333 332 329 330 326 325 325 326 328 328 329 331 332 330 332 332 332 332 332 331 328
326 325 322 322 322 321 320 320 322 324 326 328 328 331 333 334 336 336 335 333 331 332 332 330 329 329 326 325 324 326 327 329 328 329 330 329 331 332 331 332 331 327 324
326 323 322 322 321 320 320 320 321 323 326 328 328 330 333 334 335 335 335 335 332 332 332 329 330 329 327 325 325 326 327 329 330 330 330 329 330 332 332 331 329 325 323
326 322 322 321 321 320 321 321 322 322 324 326 328 328 332 333 333 335 335 335 334 332 332 330 330 329 327 325 325 326 325 327 329 331 330 330 330 332 332 329 327 324 322
326 323 322 321 321 320 320 321 322 323 322 323 325 326 328 332 332 334 335 336 335 334 332 331 330 330 328 326 325 326 325 326 328 328 330 329 330 331 331 328 327 325 324
328 326 326 322 321 321 320 320 321 322 322 322 323 324 326 329 333 334 335 336 335 334 333 332 331 330 329 327 324 325 326 327 326 328 329 329 330 331 331 328 327 326 322
330 327 325 325 323 321 321 321 321 321 321 321 321 323 324 328 332 335 335 336 336 335 334 333 332 331 330 328 326 325 325 326 324 325 325 329 329 330 331 329 327 325 323
334 334 329 326 323 323 322 322 321 320 320 321 321 321 323 325 328 333 335 336 336 335 335 333 333 332 331 329 327 326 325 326 326 325 324 326 329 329 330 327 326 324 324
317 318 326 338 332 326 325 326 326 322 321 320 321 321 320 321 324 331 334 335 335 335 334 334 333 332 331 330 329 326 325 325 325 325 324 324 327 329 328 326 326 324 323
314 314 315 325 336 338 336 334 334 331 326 322 320 321 321 320 321 326 331 334 334 335 334 334 333 333 332 330 330 326 325 325 325 325 324 321 325 328 326 325 326 325 320
314 314 314 315 317 327 337 336 335 334 332 329 324 321 321 321 321 323 329 330 333 334 334 334 333 333 332 331 329 326 325 325 325 324 324 325 325 327 326 325 325 324 322
313 313 313 314 315 316 320 335 335 334 334 335 334 325 321 322 322 322 327 330 331 332 333 333 333 333 332 331 328 327 326 325 325 325 325 325 326 327 326 325 323 322 320
311 312 313 314 314 315 316 323 334 335 333 331 335 330 323 322 323 323 325 330 330 332 332 333 333 333 331 330 329 327 326 325 326 326 326 326 325 326 327 325 323 322 320
310 311 312 313 314 314 315 316 323 334 334 330 328 334 328 326 324 324 325 328 331 331 331 331 332 331 330 329 328 327 326 327 326 326 326 326 326 325 327 325 324 321 320
311 311 311 311 312 313 314 315 317 318 334 326 324 333 333 331 328 326 325 326 330 331 332 332 332 331 329 328 328 328 327 327 327 326 326 325 326 326 326 325 324 320 319
311 311 310 311 311 312 314 315 322 327 334 334 330 328 334 334 332 329 329 328 328 330 332 333 332 330 329 327 327 327 326 325 325 324 325 326 325 326 327 326 324 320 319
315 314 312 311 311 312 312 315 323 328 327 327 324 321 328 335 334 332 332 332 331 331 332 332 331 330 329 327 326 327 327 325 324 324 324 326 326 325 325 326 324 321 319
318 320 318 314 313 313 313 314 317 325 322 320 319 325 324 334 334 332 332 334 332 332 333 332 331 329 328 327 327 327 326 326 325 323 324 325 325 325 325 326 324 321 318
316 319 322 319 316 316 316 314 316 321 320 322 325 325 326 332 333 330 331 333 332 332 332 331 330 329 329 328 327 327 327 324 325 325 324 323 324 324 325 325 323 320 319

GFSSE_850_thetae_111.txt.gz
Theta_e
332 332 334 333 336 337 333 332 331 332 335 337 339 340 341 341 340 340 339 337 335 332 330 330 331 331 332 335 333 333 335 337 336 336 336 335 335 333 333 333 333 332 332
329 333 333 333 336 335 334 332 330 330 333 333 332 334 334 336 338 340 340 339 337 334 331 331 332 335 334 333 331 336 336 337 335 336 335 335 334 333 333 333 333 332 332
329 332 333 334 335 335 334 332 330 330 330 330 331 332 332 334 336 338 339 338 336 333 332 332 335 336 333 334 334 334 337 336 335 335 335 337 335 333 333 332 331 332 333
328 331 332 334 334 335 335 332 331 330 330 331 332 332 333 334 334 334 333 333 333 331 332 332 336 337 334 333 333 334 334 334 334 335 336 336 334 333 333 333 333 332 332
329 331 333 334 334 334 333 332 331 330 331 331 332 333 333 333 332 331 330 330 330 331 332 334 335 334 332 331 329 331 331 332 333 335 333 339 335 333 332 332 332 331 331
330 331 333 334 334 333 332 332 332 331 332 332 332 333 334 333 332 330 329 329 329 331 333 333 334 332 330 328 327 328 329 330 332 332 334 335 336 334 332 332 331 331 330
331 330 333 333 333 331 331 332 333 332 332 333 333 333 334 334 334 331 329 329 330 330 332 333 333 330 329 326 326 327 327 328 331 332 332 334 335 333 332 332 332 331 330
332 333 334 333 332 330 329 331 332 330 331 332 333 333 334 334 335 333 330 329 329 330 331 333 332 329 328 325 325 325 327 328 331 332 332 331 334 333 332 332 332 331 330
334 336 333 332 331 329 328 330 330 329 328 330 332 333 333 334 335 334 333 330 329 329 331 331 330 328 327 324 324 325 327 328 329 331 331 330 331 333 332 332 332 330 324
335 337 336 330 327 327 330 331 330 328 327 329 331 333 333 334 335 335 335 333 331 330 331 330 329 329 327 324 323 325 326 327 329 330 330 330 331 332 332 332 332 327 323
337 336 337 331 328 327 328 328 329 327 328 328 331 333 334 334 335 335 335 334 333 332 331 330 328 329 327 325 324 325 326 326 328 330 330 329 329 331 332 332 331 326 323
336 335 335 330 327 329 329 327 326 326 329 329 329 332 334 332 333 335 335 335 334 333 332 331 329 329 328 326 325 326 326 326 328 331 331 329 330 331 332 331 330 326 324
333 333 331 328 327 327 326 326 324 323 325 326 328 330 331 333 332 333 335 335 335 334 333 332 330 330 329 327 325 325 326 325 326 328 329 329 329 330 331 331 328 326 325
332 332 329 328 327 325 326 325 324 322 322 322 324 326 328 330 331 332 334 335 335 335 334 332 331 330 330 328 327 325 326 325 325 327 329 328 329 330 331 331 328 327 325
316 318 332 328 326 326 325 324 323 322 321 321 323 324 324 326 328 330 332 334 335 335 334 334 332 331 331 330 329 327 326 325 326 324 327 326 327 329 330 331 328 327 325
313 315 316 318 320 329 324 324 323 322 321 321 322 322 323 323 325 327 330 333 335 335 335 334 333 332 332 331 330 328 327 326 326 326 326 325 325 327 329 331 329 328 324
313 313 313 313 314 320 335 329 324 323 322 322 321 321 322 323 324 326 328 331 332 335 335 334 334 333 332 332 331 329 327 327 327 326 325 324 325 325 328 331 328 325 325
311 313 313 313 313 314 317 330 336 329 326 325 323 322 322 322 322 323 326 329 332 332 335 335 334 334 333 332 332 330 328 328 327 325 325 324 323 322 323 324 327 326 326
310 312 313 313 313 313 314 315 324 331 335 333 331 327 324 323 322 321 322 327 331 332 333 335 335 334 333 333 333 331 329 327 326 325 325 325 325 325 322 323 327 325 324
309 310 311 312 312 312 313 314 315 323 333 336 333 332 332 326 323 322 322 323 328 330 333 333 335 334 334 333 332 329 328 327 326 326 325 325 325 326 326 326 327 326 323
309 310 310 310 311 311 313 313 314 315 322 333 334 330 332 334 328 323 323 322 326 328 328 331 333 333 335 331 331 329 329 329 327 326 325 325 326 326 326 324 326 326 324
310 310 311 311 311 310 311 313 314 314 315 323 332 331 330 331 334 326 324 323 323 327 328 329 331 332 334 331 329 330 329 328 328 326 326 326 326 326 326 326 324 325 324
314 313 311 311 311 310 310 312 318 321 325 323 332 335 330 327 332 332 325 325 324 325 326 327 328 329 332 330 329 329 327 326 326 326 326 325 326 324 325 326 326 325 324
312 312 313 312 311 311 310 310 322 321 329 330 318 322 331 326 328 333 331 328 326 326 327 327 328 329 331 330 329 328 327 326 326 325 325 325 325 325 324 325 326 326 324
310 312 314 314 314 312 311 312 313 322 321 328 320 319 327 326 326 327 333 331 329 328 327 327 329 331 330 329 328 328 326 326 326 325 325 324 324 324 324 325 325 325 325
307 310 312 314 317 316 313 314 314 316 326 330 327 322 326 331 326 328 331 333 332 332 331 331 331 332 330 330 329 328 327 326 326 327 326 324 323 323 324 325 325 325 325

GFSSE_850_thetae_114.txt.gz
Theta_e
340 339 337 340 341 337 336 333 332 338 342 343 342 342 342 341 338 336 334 333 331 329 330 332 333 334 334 333 331 334 335 337 336 336 336 336 335 334 333 333 335 334 333
342 334 335 338 338 337 335 332 332 338 342 343 342 342 342 341 339 337 337 336 334 331 330 331 332 332 333 333 333 334 336 336 336 336 335 336 334 333 333 334 336 333 333
338 333 334 334 336 336 334 332 331 335 339 341 342 342 342 340 339 339 339 337 335 332 331 331 333 335 334 332 333 335 337 336 335 335 336 341 336 334 334 334 334 333 333
344 333 334 334 336 336 334 333 331 333 335 336 340 340 339 338 338 339 339 337 335 332 331 332 335 335 333 333 334 334 336 334 334 334 338 340 338 334 333 332 333 333 333
345 339 333 333 336 335 334 333 331 330 331 332 333 334 335 335 337 337 337 336 334 331 332 331 336 336 333 333 333 333 333 332 333 336 341 341 339 333 333 333 332 332 332
344 345 334 333 335 335 335 333 331 331 331 332 333 333 334 334 335 335 334 334 332 331 332 333 335 334 332 331 329 330 330 331 333 338 337 335 339 333 333 333 332 332 330
345 346 337 337 335 335 335 333 332 332 332 332 332 333 334 334 334 332 331 331 331 332 332 332 333 332 330 328 327 328 327 330 336 337 339 336 337 333 333 332 331 331 329
345 345 338 338 337 336 335 333 332 333 333 333 333 333 334 334 333 331 330 330 331 332 332 332 332 330 329 326 326 326 325 329 335 336 335 335 334 333 332 332 331 331 329
338 337 339 339 339 337 336 333 333 333 333 333 333 333 333 334 333 332 331 330 331 332 332 332 332 329 328 326 325 324 324 327 335 336 335 336 333 333 332 332 332 331 329
339 338 339 339 339 338 337 334 334 334 334 333 333 334 333 334 334 334 332 331 331 331 332 332 331 328 328 325 324 324 325 328 335 335 336 335 331 333 332 332 332 331 324
338 339 339 340 339 339 339 334 335 335 334 333 333 334 334 334 334 334 334 333 332 331 332 332 331 329 328 326 324 325 326 333 335 334 335 334 330 332 332 332 332 330 324
342 339 339 340 339 337 339 338 335 335 334 334 333 333 334 339 340 340 337 334 333 333 332 332 331 330 328 329 326 327 329 334 334 333 335 332 329 330 332 332 332 330 324
337 342 337 338 338 336 337 336 338 339 338 335 333 336 336 339 339 338 339 335 335 334 333 333 331 330 331 336 335 333 334 334 333 333 333 330 329 330 331 331 332 330 325
329 340 338 333 335 333 331 331 331 333 330 328 328 335 339 335 338 340 340 340 337 337 337 335 334 334 336 337 336 336 334 334 333 334 331 328 330 330 330 332 332 329 326
318 328 339 338 331 329 328 327 327 326 336 328 327 327 330 330 332 334 339 340 340 339 339 338 337 336 335 336 337 336 334 334 334 334 334 329 329 328 330 331 332 329 327
313 314 315 334 337 334 328 326 324 324 328 323 323 324 326 328 330 329 336 339 339 339 339 339 337 336 334 336 335 335 335 335 333 333 333 329 326 326 327 327 328 330 328
313 313 312 313 325 324 327 328 326 323 323 324 322 323 325 327 331 327 328 336 339 339 338 337 339 337 335 335 334 336 334 333 333 333 333 332 328 325 325 326 330 326 329
311 312 312 311 313 318 314 320 332 328 324 323 322 323 323 323 326 329 327 328 336 338 338 336 336 336 334 335 334 333 333 333 333 332 332 331 329 324 324 323 325 327 327
310 310 311 310 311 312 321 323 321 329 334 333 325 323 323 322 322 326 331 328 330 333 333 337 335 335 335 335 334 334 333 332 331 331 331 330 327 324 323 325 323 323 325
313 312 308 309 310 310 317 331 333 333 336 338 337 334 331 328 325 325 335 332 327 331 333 334 336 336 335 335 333 333 333 332 330 330 329 328 327 325 325 325 325 323 322
314 313 310 309 311 310 315 322 329 333 333 334 337 336 335 332 330 328 330 325 322 323 329 333 335 336 335 334 333 332 331 330 328 329 330 329 327 325 325 325 325 324 324
311 312 313 313 313 314 316 315 325 329 332 328 332 333 337 336 332 331 331 330 324 323 330 331 332 335 335 334 333 333 332 330 328 328 327 328 327 325 325 325 323 325 326
308 309 310 311 312 312 314 318 316 327 330 332 332 335 335 334 332 328 329 332 328 324 324 332 332 333 335 334 333 331 331 329 330 331 328 328 328 327 326 325 324 325 324
304 305 307 310 312 312 313 316 318 320 328 330 332 330 317 324 333 329 328 330 333 326 324 325 330 331 332 332 333 332 330 330 330 329 328 325 326 327 325 325 325 325 325
302 302 305 309 313 313 311 314 319 318 325 329 331 332 326 316 327 335 328 331 332 331 325 325 331 331 330 331 330 332 330 331 330 328 329 329 325 325 325 324 324 324 324
299 300 307 308 311 314 313 313 315 322 322 327 329 332 332 324 317 323 334 334 332 332 329 327 328 330 330 330 329 331 330 330 330 328 328 327 328 328 325 324 324 324 324

GFSSE_850_thetae_117.txt.gz
Theta_e
342 347 338 338 339 341 337 335 331 331 336 342 343 339 340 338 335 332 330 329 329 329 330 331 333 334 335 335 330 333 334 336 336 336 335 335 335 334 333 334 338 335 334
339 344 340 338 338 338 336 334 331 333 339 342 343 340 341 339 336 333 332 332 330 330 331 332 334 334 334 333 332 334 336 336 335 335 335 335 334 334 334 336 338 333 333
342 347 340 336 336 336 335 333 331 332 340 343 342 341 342 340 337 334 335 334 332 331 331 331 332 332 334 333 333 335 335 336 334 335 336 340 336 333 334 335 335 333 333
345 351 341 338 337 334 335 332 331 330 336 341 342 342 342 341 338 336 337 336 334 331 331 332 334 335 333 331 333 334 336 334 333 335 339 339 339 334 334 334 333 333 333
347 350 345 340 336 335 334 333 331 329 334 338 340 341 341 339 338 338 338 337 335 332 332 333 336 334 333 333 334 333 335 333 334 337 339 338 338 333 333 332 333 333 333
347 348 347 340 337 336 334 333 331 330 331 333 336 338 338 337 337 338 338 337 335 332 332 333 336 335 333 331 331 332 332 332 331 338 341 337 337 333 333 333 333 332 332
347 348 347 339 337 337 335 334 331 330 330 331 333 334 334 335 336 336 336 335 334 332 332 333 336 335 331 330 328 329 330 329 340 338 335 337 337 333 333 333 332 332 330
348 349 348 343 338 338 335 335 332 331 330 331 332 333 334 334 335 334 334 334 332 332 332 334 334 333 330 329 326 327 327 329 337 338 335 336 336 333 333 332 332 331 329
349 348 349 342 339 338 336 336 334 332 331 332 332 333 334 335 335 334 332 332 332 332 332 333 333 333 330 328 326 325 325 326 338 337 333 337 334 333 333 332 331 330 329
348 349 349 341 340 338 337 337 335 334 333 333 333 333 334 335 335 334 333 332 332 332 332 333 333 332 330 327 327 324 324 326 335 337 334 335 333 333 332 332 332 331 329
341 348 349 344 342 343 341 337 336 336 335 334 333 333 333 334 334 334 333 332 332 332 332 333 333 331 329 327 327 325 326 330 335 335 334 333 333 332 333 332 332 331 325
335 344 347 350 343 347 346 344 337 337 336 335 334 333 334 337 341 341 339 334 333 333 333 334 333 330 329 328 327 326 327 335 333 333 334 334 331 330 332 332 332 331 326
327 343 344 347 347 341 344 345 343 342 341 338 336 337 335 341 341 341 342 338 335 333 334 334 332 331 330 336 336 332 333 334 334 333 334 333 329 329 331 332 332 332 329
320 336 345 346 343 340 340 344 343 341 342 341 341 339 340 341 341 342 342 342 338 338 336 336 334 332 335 336 335 335 334 334 333 334 334 333 327 329 329 331 332 332 332
318 323 338 343 344 344 340 343 337 337 340 341 342 341 341 339 340 342 340 340 339 340 339 340 337 337 337 337 337 335 335 335 334 333 335 331 326 329 330 330 332 332 331
316 317 318 330 342 341 342 341 340 335 340 340 340 340 340 341 340 342 340 339 340 338 340 341 339 338 337 340 337 337 335 335 334 333 334 333 327 327 327 328 330 330 329
314 315 316 317 319 336 340 340 340 340 339 340 340 340 331 337 339 339 338 339 338 339 339 341 339 338 337 336 337 336 336 335 334 333 333 333 332 328 326 326 327 327 330
312 313 314 315 316 322 331 337 339 339 339 338 339 337 327 324 335 339 333 334 339 338 340 339 339 338 337 336 336 337 335 335 334 334 334 331 333 332 328 324 325 325 324
312 314 315 317 316 317 319 331 336 337 338 339 338 339 334 322 323 334 337 329 332 340 339 338 338 339 337 338 337 336 336 337 335 335 333 332 331 330 330 326 324 324 324
317 317 317 318 320 320 316 319 330 335 336 338 338 337 336 336 324 326 338 335 328 333 339 338 337 338 337 339 336 337 336 334 335 334 334 332 331 330 328 327 324 325 325
314 314 315 316 317 319 321 317 320 331 334 336 335 339 338 338 339 336 336 336 331 326 328 336 337 338 336 337 337 336 335 334 334 334 334 332 330 331 329 328 327 325 325
310 311 312 312 313 315 317 320 318 320 328 333 334 335 339 340 339 339 338 338 339 333 328 339 336 337 336 335 336 334 334 333 334 333 332 332 332 331 329 328 328 325 325
307 308 308 309 310 312 313 315 318 319 320 328 332 334 337 340 341 340 338 335 338 334 331 333 333 339 336 335 335 334 333 331 332 332 331 331 331 329 329 328 328 326 326
304 306 306 306 307 309 311 313 316 318 320 322 330 333 333 338 339 339 340 339 338 334 333 331 327 329 338 337 334 333 332 330 331 331 332 331 331 330 329 328 325 326 326
302 303 303 303 304 306 308 309 312 316 319 321 321 332 332 335 336 338 339 339 339 337 331 330 330 329 333 337 334 333 333 333 333 333 331 331 331 329 327 327 326 324 324
299 299 299 300 302 303 304 305 307 310 315 319 322 325 331 332 333 335 337 337 337 337 334 331 331 328 330 332 335 332 331 332 333 332 331 331 330 330 329 329 327 323 323

GFSSE_850_thetae_120.txt.gz
Theta_e
342 343 337 332 331 334 334 335 334 331 331 338 342 340 340 338 335 332 330 328 329 329 329 330 331 331 331 331 331 330 333 334 335 335 334 335 334 333 333 336 337 334 334
342 346 342 335 332 333 333 334 331 329 331 337 342 340 340 339 336 334 332 330 329 329 330 331 333 334 335 334 330 333 334 335 334 333 334 334 333 333 335 338 336 333 334
343 346 345 339 335 336 334 333 330 330 332 337 342 341 341 340 337 336 335 333 330 330 331 332 333 333 332 333 333 333 335 334 333 334 336 335 333 333 334 337 334 333 333
346 350 348 342 337 337 334 333 330 329 333 339 342 341 341 341 338 336 336 335 333 331 331 331 332 333 334 332 332 334 335 333 333 336 338 339 334 333 334 335 332 333 332
347 352 350 344 339 338 335 333 331 328 330 335 340 341 341 340 338 336 337 336 334 332 331 332 334 335 333 331 333 333 335 332 332 335 338 337 337 333 334 333 333 333 332
348 350 350 342 340 339 336 333 331 329 331 336 339 339 340 339 337 337 337 337 335 333 331 332 335 334 333 333 333 332 332 329 330 337 336 336 336 333 333 332 333 332 332
348 349 349 343 341 338 336 333 332 329 331 333 335 337 338 337 337 337 337 337 335 333 331 332 335 336 334 332 330 330 328 328 335 337 335 334 335 333 333 333 332 332 330
349 350 349 347 341 338 336 334 333 331 331 333 334 335 335 335 336 337 337 336 335 332 331 332 335 335 333 331 328 328 326 332 338 338 334 331 334 334 333 333 332 331 329
342 349 351 349 346 338 337 334 333 331 331 331 332 333 333 334 336 336 337 335 333 331 331 333 333 334 332 330 327 327 325 333 339 337 333 328 333 334 332 332 331 331 328
336 349 350 347 343 338 337 335 334 333 331 331 332 332 333 335 336 336 336 335 332 331 331 332 333 333 331 329 326 325 322 324 337 335 335 330 331 333 332 331 331 330 329
335 338 347 348 343 339 338 336 336 334 333 332 332 333 333 335 336 336 335 333 332 331 331 333 333 333 331 329 326 324 321 324 335 334 334 333 332 330 332 331 331 331 329
322 336 340 345 346 344 339 337 337 335 334 333 333 333 333 335 335 335 334 333 332 332 332 333 333 333 331 329 326 323 321 322 333 334 334 334 334 331 329 332 332 331 329
320 331 342 342 345 345 345 344 339 337 334 334 333 332 332 334 337 337 337 336 334 333 333 333 333 333 330 329 328 325 322 332 333 335 334 333 333 328 329 331 332 332 331
318 321 338 345 341 344 345 346 345 340 336 335 335 332 330 331 336 340 339 338 336 335 334 333 333 332 331 330 336 335 331 332 335 334 333 333 333 329 328 329 332 332 331
317 319 325 337 342 343 344 342 343 343 340 338 335 335 335 333 333 340 338 339 338 338 337 336 336 334 331 334 336 336 334 332 334 333 332 332 331 327 328 329 330 332 331
316 317 318 319 330 339 341 340 341 342 343 343 340 338 336 338 337 338 337 341 338 337 336 336 337 337 335 335 335 336 335 334 335 334 334 332 332 327 327 327 329 330 331
313 314 315 317 317 321 335 338 339 341 339 341 341 343 342 338 339 341 337 341 340 340 336 338 337 338 336 336 337 336 335 335 334 334 334 332 332 331 328 326 326 327 329
313 313 314 315 316 317 320 328 335 338 339 337 341 341 339 340 338 342 340 340 338 341 341 339 335 339 337 336 336 336 336 334 335 334 334 332 333 332 331 330 327 325 326
317 317 317 318 319 319 316 318 327 334 335 336 337 341 340 337 336 340 337 336 336 340 337 340 337 337 337 336 336 335 335 336 334 333 333 332 333 332 330 329 329 325 324
313 314 315 315 316 318 320 318 318 327 335 334 334 337 342 340 336 335 340 338 334 339 339 340 339 336 336 337 336 336 336 335 333 335 333 332 332 331 331 330 329 327 324
310 310 311 312 313 314 316 318 321 319 326 337 337 337 339 340 338 333 332 338 333 332 337 340 339 337 335 336 336 336 334 334 335 333 333 333 331 331 330 330 329 328 326
308 307 307 309 309 310 312 314 317 320 320 327 335 335 336 339 339 337 335 334 328 328 330 339 340 336 335 335 335 334 335 335 334 333 332 332 332 331 330 329 330 328 327
305 304 305 306 307 307 308 310 312 315 319 319 325 332 335 334 340 338 338 337 335 328 327 328 335 335 335 335 335 335 334 333 333 333 331 332 332 331 331 330 329 328 327
302 302 302 302 303 304 305 307 309 312 314 317 320 322 335 336 335 340 339 339 339 338 337 335 331 329 334 336 336 335 333 330 330 333 333 332 330 330 329 330 329 329 328
298 298 298 298 298 300 302 304 305 307 310 314 317 319 323 330 334 334 333 337 340 339 340 337 336 332 330 333 336 335 335 333 331 332 331 332 332 330 329 328 328 327 326
295 294 294 294 295 296 298 300 301 303 306 310 312 316 320 322 329 333 330 334 333 338 336 340 337 334 331 331 335 335 333 334 334 331 332 331 330 331 330 329 328 327 327

GFSSE_850_thetae_123.txt.gz
Theta_e
341 342 335 333 330 327 327 330 332 332 330 335 341 341 340 337 334 333 330 328 328 328 330 329 328 331 334 333 332 330 333 335 335 335 334 334 333 333 333 334 333 334 333
339 342 341 336 331 331 330 331 332 329 329 336 341 341 340 338 335 334 332 330 328 328 329 330 331 331 331 333 331 333 334 336 334 334 334 333 333 333 336 334 333 333 334
339 339 345 340 334 332 332 332 330 328 330 336 340 341 340 339 336 335 334 332 329 329 329 330 332 334 333 332 331 333 335 334 334 335 334 333 333 334 336 335 333 333 334
342 346 347 342 338 334 333 333 330 329 330 336 340 341 340 339 337 336 335 334 332 330 329 330 331 332 332 333 332 334 335 334 334 338 338 336 333 333 335 333 332 332 332
345 348 350 346 340 338 335 333 330 330 330 336 340 341 340 339 338 336 336 335 333 331 330 330 331 334 333 331 333 333 335 333 336 336 337 335 333 333 334 332 333 332 332
347 349 349 347 343 340 336 333 331 331 331 336 338 340 340 339 337 335 336 336 333 332 330 331 334 334 332 332 333 333 332 334 336 336 335 336 335 333 332 332 332 332 331
348 349 349 346 343 340 336 334 332 330 330 334 337 338 338 338 336 335 336 336 335 333 330 331 334 334 333 331 331 332 332 333 332 332 328 333 333 333 332 332 332 332 330
345 349 349 348 341 340 337 334 332 330 331 333 336 337 338 336 335 335 336 335 334 333 331 331 333 335 333 330 327 328 331 332 334 327 332 332 332 333 332 332 331 331 329
329 340 349 350 348 342 338 335 333 331 330 330 333 334 335 334 334 335 336 335 333 332 331 332 334 334 332 329 327 326 328 333 336 334 331 332 331 333 332 332 331 331 328
328 331 336 344 346 345 339 336 333 332 330 330 330 331 331 333 334 335 335 335 334 332 330 331 332 333 333 329 326 325 325 332 337 335 333 332 330 331 331 332 331 330 328
324 324 326 336 339 344 342 337 334 333 331 330 330 331 331 332 333 333 334 335 334 332 330 331 332 332 332 329 327 324 323 326 334 334 330 331 332 329 330 331 331 330 329
319 321 332 341 341 343 341 338 336 334 332 331 330 331 331 330 331 331 332 333 334 333 331 331 332 331 331 330 328 325 321 327 334 334 333 333 333 332 329 330 331 331 330
318 319 327 338 343 341 343 339 337 335 334 332 331 332 332 331 331 332 332 331 333 333 332 331 331 331 331 330 328 326 322 324 334 335 334 333 333 332 328 328 331 331 330
316 317 319 328 339 342 342 344 342 338 336 334 333 332 332 332 332 333 331 330 331 332 332 332 331 331 331 330 328 329 325 325 333 333 334 333 333 332 330 328 330 331 331
315 317 318 317 317 330 341 341 344 345 344 339 335 333 332 333 332 333 332 331 331 333 333 333 332 332 332 331 329 333 334 330 334 334 334 334 331 331 329 327 328 330 331
314 315 320 323 332 331 328 336 340 342 344 342 339 335 334 331 332 333 338 334 333 337 335 334 333 333 333 332 330 334 333 334 332 333 334 334 330 331 326 327 328 329 330
314 314 318 318 319 325 326 330 335 337 338 339 341 341 338 333 332 333 339 339 334 336 335 334 334 335 335 335 331 334 336 335 333 335 333 334 333 332 332 326 326 327 329
313 312 314 316 316 317 317 317 320 328 334 337 337 339 343 339 338 335 337 339 337 341 337 337 334 335 333 336 333 334 335 335 334 334 334 333 332 332 331 330 329 326 326
313 314 314 314 315 316 316 317 317 319 323 334 336 337 337 338 337 337 337 338 339 341 340 340 338 336 334 335 335 335 334 336 335 333 333 333 333 332 331 330 330 329 328
311 311 311 310 310 310 312 315 317 317 319 322 332 334 335 335 336 335 336 340 339 338 339 341 340 339 337 334 335 334 334 334 334 334 334 333 333 332 332 331 330 329 329
309 308 308 307 307 307 307 308 310 315 317 321 321 332 334 333 334 337 335 335 337 337 340 340 339 339 338 336 335 336 334 334 334 335 333 332 332 332 331 330 330 329 329
305 306 306 307 307 306 307 308 308 310 313 318 321 326 334 334 335 333 333 332 335 334 337 341 339 340 339 338 335 336 336 335 334 334 334 334 332 332 330 330 330 329 328
302 302 303 304 305 304 304 305 306 307 309 310 317 319 321 324 333 332 332 329 330 336 335 337 340 340 339 338 335 334 336 335 334 332 333 334 333 332 331 332 330 329 329
298 299 300 301 301 302 302 302 302 303 305 308 309 314 318 321 327 332 332 331 329 333 334 334 337 340 336 335 337 334 332 330 332 332 332 332 332 332 331 332 330 330 329
297 298 298 299 300 300 300 300 300 300 302 303 308 308 311 317 320 328 331 333 333 332 334 334 332 336 336 330 333 332 335 333 331 329 331 330 332 331 332 332 331 329 329
296 296 296 296 295 297 299 299 298 298 298 300 301 308 309 309 315 320 324 331 332 333 332 333 335 336 334 333 334 334 332 334 333 330 332 331 330 330 331 331 330 329 328

GFSSE_850_thetae_126.txt.gz
Theta_e
340 339 337 336 335 332 331 331 331 333 332 335 340 340 338 334 330 330 328 327 328 328 327 322 325 331 339 338 333 331 333 334 334 334 335 334 332 332 333 333 334 333 333
337 337 340 336 335 332 331 332 332 332 330 335 340 340 339 336 333 331 329 328 328 329 329 327 329 332 332 331 331 332 334 335 334 334 334 333 333 333 334 333 333 332 333
332 335 342 339 336 334 332 332 332 330 329 335 340 340 340 337 334 333 332 329 328 328 329 330 330 331 333 332 333 334 334 333 334 334 333 332 332 334 334 332 332 333 333
335 339 341 343 338 336 334 332 331 329 330 335 339 340 340 338 335 334 334 332 329 329 329 331 332 332 332 332 334 334 334 334 334 334 333 332 333 333 335 332 332 333 331
334 344 348 346 341 338 336 333 331 329 330 334 338 340 340 338 336 334 334 333 331 329 330 330 331 332 333 332 334 334 333 335 335 337 335 333 333 333 334 332 332 332 332
337 350 349 348 346 341 338 334 331 329 330 334 338 340 339 338 336 334 334 333 332 330 330 330 333 334 331 331 333 333 333 334 334 335 335 335 334 333 333 332 332 331 331
328 347 349 348 345 343 340 335 331 330 329 332 336 339 339 338 335 333 333 333 332 331 330 331 334 333 332 332 332 331 330 332 334 334 333 334 334 332 332 332 332 331 330
322 330 344 346 346 343 341 336 332 330 329 330 332 336 337 336 333 332 332 332 331 331 330 330 333 334 333 331 332 330 329 330 332 333 330 329 333 332 331 332 331 331 329
323 323 331 332 344 345 341 338 333 331 329 330 330 332 334 334 332 332 332 332 331 330 330 330 331 334 332 330 329 331 328 330 330 330 330 326 332 331 331 332 331 330 328
322 323 322 324 333 342 346 341 335 332 330 331 332 332 333 333 331 331 332 331 330 330 329 329 331 333 332 329 327 328 327 333 332 334 330 328 328 331 330 331 331 330 328
318 319 326 330 338 339 342 343 337 333 332 332 332 332 334 334 332 332 332 332 331 330 329 329 330 332 332 329 327 326 326 332 335 332 328 330 330 330 331 331 331 330 328
317 318 327 335 338 340 340 342 339 335 333 331 332 332 331 334 333 332 332 332 332 331 330 329 330 331 331 330 328 325 323 327 332 333 333 332 331 329 328 329 331 330 329
315 316 320 328 335 340 341 341 340 336 334 332 331 330 330 331 334 333 333 332 333 333 331 330 329 330 330 330 328 326 322 322 332 333 333 333 332 332 329 327 330 330 330
315 316 329 329 331 336 337 340 342 338 336 334 332 331 331 331 331 333 332 331 332 332 332 331 330 329 330 330 329 327 323 322 333 333 333 333 333 332 331 328 329 330 330
314 321 327 327 328 336 338 339 341 341 340 339 335 333 332 332 331 332 333 333 332 332 332 332 331 330 330 330 330 328 325 322 324 332 332 333 333 332 331 329 328 330 330
315 318 328 322 323 327 328 331 335 339 340 338 338 337 335 333 332 332 331 333 333 333 331 331 332 331 331 331 331 329 331 328 329 333 333 333 333 330 330 328 327 329 330
314 315 318 319 322 326 328 328 329 335 336 337 339 338 340 336 334 333 332 331 331 333 333 334 333 333 332 332 331 330 331 334 332 331 332 332 333 331 331 329 327 328 328
313 313 313 314 316 317 318 319 319 324 326 331 333 336 337 337 335 334 333 333 332 336 335 337 337 334 334 333 334 331 331 333 333 331 331 333 333 333 332 330 328 326 326
311 311 311 312 312 313 315 315 315 316 317 319 319 327 335 334 327 334 334 334 334 338 338 337 336 335 333 334 335 332 333 333 334 334 332 331 332 332 332 331 330 329 328
308 308 308 309 309 309 310 311 311 310 311 314 316 318 326 333 334 330 334 332 336 335 337 336 339 337 335 334 334 334 333 334 334 334 334 333 331 333 332 332 331 331 330
307 306 306 306 307 307 307 307 308 308 308 307 307 311 318 324 332 334 334 331 328 333 334 336 337 338 339 337 335 336 335 335 334 335 334 334 333 332 332 333 331 331 330
303 304 305 305 306 306 306 307 307 308 308 308 307 306 309 318 322 329 332 334 322 327 329 334 334 334 335 334 336 337 336 335 334 334 334 333 334 333 329 331 331 331 329
301 302 302 303 304 305 305 305 306 306 307 307 307 307 307 309 318 320 328 332 333 326 323 331 332 332 330 331 331 335 336 335 334 334 333 334 334 332 332 331 330 330 329
297 298 299 301 301 302 302 303 303 304 305 307 306 307 308 308 309 316 320 325 332 333 332 332 329 327 331 331 330 331 332 332 333 335 334 333 334 333 333 331 330 330 330
295 294 295 296 297 299 300 301 301 301 303 304 305 305 307 308 308 308 316 320 325 331 332 326 324 324 331 332 332 330 329 333 331 329 331 332 332 331 332 332 329 330 330
293 294 296 296 298 298 298 298 298 298 299 300 303 304 305 306 308 308 308 313 320 325 330 332 331 330 329 332 331 332 331 331 332 331 328 329 327 328 330 331 330 330 330

GFSSE_850_thetae_129.txt.gz
Theta_e
339 340 339 336 335 334 335 336 335 333 332 336 338 338 335 331 329 330 333 331 327 325 324 325 325 329 337 338 334 331 333 334 334 334 334 332 333 333 333 333 333 332 333
339 339 339 336 335 334 335 335 335 334 332 334 338 339 338 334 330 329 328 327 327 328 323 324 326 333 333 331 330 332 334 334 333 334 333 332 332 333 333 333 333 332 333
335 337 340 338 336 335 335 336 335 333 330 333 338 339 339 336 331 331 329 328 328 330 327 327 330 331 331 332 331 333 334 333 333 333 333 332 332 334 333 333 332 332 333
338 338 340 341 338 337 336 336 335 331 330 334 337 339 339 337 332 332 331 329 328 329 330 330 331 332 332 331 332 333 333 332 333 333 332 332 333 334 332 332 332 332 332
335 341 345 344 342 338 337 336 334 331 331 334 337 339 339 338 333 332 331 331 329 329 329 331 332 331 332 332 332 333 333 332 333 333 333 332 333 333 333 332 332 331 331
331 341 345 347 346 344 339 336 334 331 332 333 337 338 339 339 333 333 331 332 331 329 329 329 330 332 332 332 333 334 333 333 335 334 333 332 332 332 332 332 332 331 331
329 338 344 347 347 344 342 339 334 331 331 333 336 338 338 339 335 332 331 331 331 329 328 329 332 333 330 332 332 333 333 333 333 332 332 332 332 332 332 332 331 331 329
322 325 329 337 344 343 342 340 336 331 331 333 335 338 338 338 336 333 331 330 331 330 328 329 332 332 331 331 331 331 333 333 332 332 330 329 332 331 331 332 332 331 329
323 322 323 327 333 345 342 340 337 333 331 331 333 336 338 338 336 333 332 331 331 330 329 329 331 333 332 329 329 328 329 330 331 332 331 330 333 331 331 332 331 331 329
319 321 324 326 333 342 347 343 340 335 332 330 331 334 337 337 336 335 333 332 331 330 329 328 329 333 332 329 327 327 327 327 330 329 332 328 331 331 331 331 331 330 328
317 318 325 333 338 340 341 342 344 338 333 332 334 336 336 336 335 336 334 333 333 331 330 329 329 332 333 329 327 325 325 328 330 332 331 329 329 330 330 331 331 330 328
316 320 328 333 336 340 341 341 340 341 335 334 334 335 336 337 337 335 335 334 334 332 331 329 329 331 332 330 327 325 323 325 331 332 331 329 328 328 330 330 330 330 329
315 315 327 336 336 331 339 344 342 341 337 335 335 336 337 337 338 337 335 335 335 335 333 330 329 331 331 331 328 325 323 322 326 329 331 331 332 330 328 329 330 330 329
315 317 332 324 324 325 333 340 342 340 338 336 334 334 334 335 336 336 336 334 335 335 334 331 329 329 331 331 330 327 324 321 322 327 331 331 332 331 331 328 329 330 330
315 326 330 329 325 328 335 337 336 335 338 340 339 336 334 333 332 333 334 335 334 335 336 333 331 329 330 332 331 329 326 322 320 327 331 331 331 332 331 330 329 329 330
316 319 325 325 324 325 325 328 330 332 335 337 339 338 338 336 335 333 332 333 334 334 335 335 333 331 330 330 331 330 327 324 322 328 332 331 332 332 330 330 330 328 329
312 312 315 317 318 320 324 326 325 325 327 331 335 335 336 337 338 335 334 334 333 335 336 336 335 333 332 331 331 331 329 326 323 323 328 331 331 331 330 330 329 326 328
309 310 310 310 312 315 316 317 319 318 319 319 319 321 327 332 332 335 337 335 333 332 333 335 335 334 334 333 332 331 330 329 326 324 331 332 332 331 329 330 330 326 327
307 308 308 308 308 309 310 311 311 311 313 314 314 314 315 317 321 326 331 335 333 333 333 331 331 333 336 335 333 332 331 330 332 332 331 331 330 332 331 330 329 329 327
305 305 305 306 306 306 306 307 307 307 308 308 307 307 307 307 312 319 328 329 327 322 334 332 331 332 333 335 335 334 334 332 331 333 332 332 331 332 332 331 329 327 329
304 304 304 304 305 305 306 306 307 307 307 307 307 307 307 307 306 308 320 324 325 327 327 329 333 334 334 333 334 334 335 334 331 334 334 334 333 332 333 332 331 330 330
302 303 303 304 304 304 304 305 305 306 307 307 307 307 307 307 307 307 309 318 324 329 327 326 332 334 334 333 332 334 335 335 333 333 334 334 334 333 333 332 332 332 332
300 301 302 302 303 304 304 304 304 305 305 306 306 307 307 306 306 307 307 310 319 327 328 323 325 326 333 333 332 332 333 333 334 333 334 334 334 334 334 333 333 331 331
296 297 298 299 300 301 301 302 302 302 304 304 304 305 305 305 306 306 307 307 312 321 325 326 324 324 326 328 330 330 330 328 332 332 333 332 334 333 333 333 333 331 330
295 296 296 296 296 296 297 297 297 298 299 300 301 302 304 303 304 305 306 306 307 312 320 327 325 324 324 325 325 331 329 328 327 329 331 330 331 332 333 333 333 332 331
293 293 293 293 295 294 295 296 296 295 295 296 298 299 301 302 303 304 305 305 306 307 312 323 326 326 324 328 327 331 329 330 329 329 329 330 329 329 331 332 333 332 332

GFSSE_850_thetae_132.txt.gz
Theta_e
338 339 337 336 334 335 337 337 337 336 335 334 334 334 332 327 326 332 333 331 328 326 324 325 325 328 334 334 334 332 333 333 334 333 331 331 332 332 332 332 332 332 330
338 340 338 336 335 335 335 337 338 337 337 337 337 337 334 331 327 326 328 327 326 325 324 324 324 329 334 331 331 331 333 333 333 333 332 332 332 333 332 332 331 332 332
336 339 339 337 336 335 335 335 337 337 337 338 338 338 337 333 329 327 328 327 327 327 324 324 325 331 331 331 331 332 334 332 333 333 332 332 332 333 333 332 331 332 333
334 337 340 338 337 336 336 336 336 336 335 337 338 338 337 335 330 329 329 328 327 328 327 327 329 330 331 332 332 333 332 332 332 333 332 332 333 333 333 332 331 332 332
339 343 341 341 339 338 337 336 335 335 332 335 338 338 338 336 332 330 329 329 328 328 328 329 329 331 331 331 332 332 332 332 332 332 332 333 333 333 332 332 332 332 331
336 345 346 345 342 340 339 337 335 333 331 335 337 337 338 337 334 332 329 330 329 328 329 329 330 330 331 332 331 332 332 332 332 333 332 332 333 333 332 332 332 331 331
331 340 345 346 346 345 343 339 337 334 332 334 337 337 337 338 336 333 331 330 331 329 329 329 330 331 332 331 331 332 331 333 334 333 333 332 332 332 332 332 332 331 330
328 331 335 340 343 344 343 341 338 334 332 334 337 338 337 337 337 333 332 330 331 330 329 329 330 332 330 330 330 331 331 332 331 331 332 331 332 332 331 331 331 331 330
326 332 332 334 337 341 343 341 340 336 334 334 336 338 338 337 338 335 333 332 331 330 329 328 330 332 330 330 329 329 330 329 329 330 330 327 330 331 331 331 331 331 329
318 321 334 337 339 341 343 344 342 339 335 335 337 339 339 336 337 337 334 333 332 331 330 329 329 332 332 331 329 328 328 329 327 331 328 328 330 330 331 331 331 331 329
316 317 323 333 337 338 340 342 340 342 339 335 336 338 339 337 336 337 336 334 333 333 332 330 329 330 333 331 329 328 328 327 327 329 328 328 328 329 330 331 331 331 329
315 317 322 331 331 336 338 342 342 340 341 338 336 337 339 338 336 337 337 335 333 333 333 332 330 330 332 332 329 328 327 327 327 329 331 330 328 328 329 330 331 330 329
317 318 326 326 326 330 326 334 337 338 338 339 337 336 337 339 338 337 337 337 335 334 334 333 332 330 330 331 331 328 326 326 326 329 331 331 329 328 329 329 330 330 330
322 325 328 327 326 327 327 327 332 334 335 337 338 336 335 336 335 335 337 337 337 335 334 334 333 331 330 330 330 329 327 325 324 329 331 330 330 329 328 327 328 330 330
320 325 328 326 327 327 329 332 332 329 331 332 333 334 336 336 335 335 334 335 336 336 335 334 334 333 331 331 330 330 329 326 325 323 329 331 332 331 331 330 327 328 329
313 316 317 318 319 321 323 323 324 325 325 325 329 333 334 335 336 335 336 334 334 335 334 335 334 334 333 331 330 331 330 328 325 323 324 330 331 331 331 331 330 329 328
308 308 310 312 313 314 316 320 321 321 321 321 321 321 324 323 326 334 335 335 336 334 335 335 335 333 333 332 331 331 331 330 327 324 322 330 331 331 331 332 329 330 328
307 307 307 307 308 309 310 311 312 312 313 314 314 315 315 316 317 318 320 316 323 330 335 335 333 335 333 331 333 331 331 331 330 326 323 324 332 330 332 331 329 329 326
306 306 307 307 308 308 307 308 308 307 308 308 308 309 309 308 308 309 311 315 315 312 316 333 333 332 332 333 332 332 331 331 331 328 326 323 324 330 332 331 328 329 327
304 305 305 305 306 306 306 306 306 306 306 306 307 307 306 306 306 306 306 306 313 318 313 314 324 331 333 332 330 330 330 331 331 330 329 325 324 331 332 331 331 330 329
303 304 304 304 304 305 305 306 306 307 307 307 307 307 307 307 306 306 307 307 306 310 321 323 321 326 325 329 332 330 329 330 331 331 330 332 331 330 331 331 332 332 331
302 302 303 303 303 304 304 304 304 304 305 306 306 306 306 306 306 306 306 307 307 307 317 323 325 326 323 321 331 331 331 332 330 332 332 331 332 332 331 331 332 332 331
300 301 301 301 302 302 302 302 303 303 304 304 305 305 305 306 306 306 305 306 307 306 309 322 325 326 324 323 326 328 330 330 331 331 332 332 332 333 333 333 332 332 333
298 298 298 299 299 299 300 300 300 300 301 301 302 303 304 304 305 305 305 305 306 306 306 311 324 328 328 325 324 330 331 330 329 330 331 332 331 332 331 331 333 333 333
296 295 294 294 295 295 295 295 295 296 295 296 297 299 300 302 303 304 303 304 305 305 306 307 315 326 328 324 325 326 326 327 328 330 329 330 331 331 331 332 331 331 333
293 293 293 292 293 292 291 291 289 288 289 290 291 293 296 299 301 301 301 303 304 305 305 305 307 316 326 326 323 324 325 323 322 328 329 328 327 327 328 328 329 330 330